<?xml version="1.0" encoding="UTF-8" standalone="no" ?>
<gpx xmlns="http://www.topografix.com/GPX/1/1" xmlns:xsi="http://www.w3.org/2001/XMLSchema-instance" xsi:schemaLocation="http://www.topografix.com/GPX/1/1 http://www.topografix.com/GPX/1/1/gpx.xsd" version="1.1" creator="VisuGPX - https://www.visugpx.com">
  <metadata>
    <name>Port Joinville /Pte du But</name>
    <desc><![CDATA[Départ Port Joinville, suivre le GR en direction de l'héliport, quitter le GR en direction de Ker pierre Borny, puis la plage de la Gournaise poursuivre sur le GR jusque la Pte du But, passer l'aérodrome, la pte du château Maugarni,et quitter le GR au niveau de la Grotte du curé, direction Ker Chauvineau.Rejoindre la citadelle,ou fut emprisonné Pétain ensuite le cimetière ou il est enterré. Puis retour à Port Joinville. ch]]></desc>
  </metadata>
  <trk>
    <name><![CDATA[Port Joinville /Pte DU But 03-AVR-18]]></name>
    <trkseg>
      <trkpt lat="46.72456" lon="-2.34688">
        <ele>4.94</ele>
        <time>2018-04-03T07:27:14Z</time>
      </trkpt>
      <trkpt lat="46.72457" lon="-2.34687">
        <ele>2.54</ele>
        <time>2018-04-03T07:27:17Z</time>
      </trkpt>
      <trkpt lat="46.72455" lon="-2.34683">
        <ele>3.98</ele>
        <time>2018-04-03T07:27:28Z</time>
      </trkpt>
      <trkpt lat="46.72455" lon="-2.34682">
        <ele>5.42</ele>
        <time>2018-04-03T07:27:37Z</time>
      </trkpt>
      <trkpt lat="46.72454" lon="-2.34683">
        <ele>5.42</ele>
        <time>2018-04-03T07:27:41Z</time>
      </trkpt>
      <trkpt lat="46.72454" lon="-2.34685">
        <ele>5.91</ele>
        <time>2018-04-03T07:27:43Z</time>
      </trkpt>
      <trkpt lat="46.7244" lon="-2.34819">
        <ele>-2.75</ele>
        <time>2018-04-03T12:12:27Z</time>
      </trkpt>
      <trkpt lat="46.72441" lon="-2.34821">
        <ele>-3.23</ele>
        <time>2018-04-03T12:12:29Z</time>
      </trkpt>
      <trkpt lat="46.72547" lon="-2.34988">
        <ele>-1.79</ele>
        <time>2018-04-03T12:14:56Z</time>
      </trkpt>
      <trkpt lat="46.72555" lon="-2.34991">
        <ele>-1.79</ele>
        <time>2018-04-03T12:15:03Z</time>
      </trkpt>
      <trkpt lat="46.72561" lon="-2.34993">
        <ele>-1.79</ele>
        <time>2018-04-03T12:15:10Z</time>
      </trkpt>
      <trkpt lat="46.72571" lon="-2.34994">
        <ele>-0.34</ele>
        <time>2018-04-03T12:15:19Z</time>
      </trkpt>
      <trkpt lat="46.72576" lon="-2.34991">
        <ele>1.1</ele>
        <time>2018-04-03T12:15:25Z</time>
      </trkpt>
      <trkpt lat="46.72584" lon="-2.34989">
        <ele>2.54</ele>
        <time>2018-04-03T12:15:33Z</time>
      </trkpt>
      <trkpt lat="46.72584" lon="-2.3499">
        <ele>2.54</ele>
        <time>2018-04-03T12:15:36Z</time>
      </trkpt>
      <trkpt lat="46.72587" lon="-2.34991">
        <ele>2.54</ele>
        <time>2018-04-03T12:15:38Z</time>
      </trkpt>
      <trkpt lat="46.72598" lon="-2.34988">
        <ele>2.54</ele>
        <time>2018-04-03T12:15:47Z</time>
      </trkpt>
      <trkpt lat="46.72608" lon="-2.34987">
        <ele>2.06</ele>
        <time>2018-04-03T12:15:55Z</time>
      </trkpt>
      <trkpt lat="46.7261" lon="-2.34987">
        <ele>2.06</ele>
        <time>2018-04-03T12:15:57Z</time>
      </trkpt>
      <trkpt lat="46.72616" lon="-2.34987">
        <ele>2.06</ele>
        <time>2018-04-03T12:16:03Z</time>
      </trkpt>
      <trkpt lat="46.72623" lon="-2.34985">
        <ele>1.58</ele>
        <time>2018-04-03T12:16:10Z</time>
      </trkpt>
      <trkpt lat="46.72632" lon="-2.34986">
        <ele>0.62</ele>
        <time>2018-04-03T12:16:17Z</time>
      </trkpt>
      <trkpt lat="46.72638" lon="-2.34985">
        <ele>0.62</ele>
        <time>2018-04-03T12:16:23Z</time>
      </trkpt>
      <trkpt lat="46.72645" lon="-2.34984">
        <ele>1.58</ele>
        <time>2018-04-03T12:16:30Z</time>
      </trkpt>
      <trkpt lat="46.72654" lon="-2.34985">
        <ele>2.54</ele>
        <time>2018-04-03T12:16:37Z</time>
      </trkpt>
      <trkpt lat="46.7266" lon="-2.34972">
        <ele>2.54</ele>
        <time>2018-04-03T12:16:46Z</time>
      </trkpt>
      <trkpt lat="46.72662" lon="-2.34968">
        <ele>2.54</ele>
        <time>2018-04-03T12:16:49Z</time>
      </trkpt>
      <trkpt lat="46.72672" lon="-2.34964">
        <ele>3.02</ele>
        <time>2018-04-03T12:16:58Z</time>
      </trkpt>
      <trkpt lat="46.7268" lon="-2.3496">
        <ele>3.02</ele>
        <time>2018-04-03T12:17:05Z</time>
      </trkpt>
      <trkpt lat="46.72682" lon="-2.34957">
        <ele>2.54</ele>
        <time>2018-04-03T12:17:09Z</time>
      </trkpt>
      <trkpt lat="46.72688" lon="-2.34953">
        <ele>2.54</ele>
        <time>2018-04-03T12:17:16Z</time>
      </trkpt>
      <trkpt lat="46.727" lon="-2.34956">
        <ele>2.06</ele>
        <time>2018-04-03T12:17:27Z</time>
      </trkpt>
      <trkpt lat="46.72709" lon="-2.34964">
        <ele>1.1</ele>
        <time>2018-04-03T12:17:35Z</time>
      </trkpt>
      <trkpt lat="46.7271" lon="-2.34965">
        <ele>1.1</ele>
        <time>2018-04-03T12:17:36Z</time>
      </trkpt>
      <trkpt lat="46.72715" lon="-2.34974">
        <ele>0.14</ele>
        <time>2018-04-03T12:17:45Z</time>
      </trkpt>
      <trkpt lat="46.72724" lon="-2.34978">
        <ele>-0.82</ele>
        <time>2018-04-03T12:17:54Z</time>
      </trkpt>
      <trkpt lat="46.72733" lon="-2.34988">
        <ele>-0.82</ele>
        <time>2018-04-03T12:18:04Z</time>
      </trkpt>
      <trkpt lat="46.72736" lon="-2.34994">
        <ele>0.14</ele>
        <time>2018-04-03T12:18:11Z</time>
      </trkpt>
      <trkpt lat="46.72741" lon="-2.35003">
        <ele>0.14</ele>
        <time>2018-04-03T12:18:17Z</time>
      </trkpt>
      <trkpt lat="46.72749" lon="-2.35013">
        <ele>0.14</ele>
        <time>2018-04-03T12:18:25Z</time>
      </trkpt>
      <trkpt lat="46.72756" lon="-2.35019">
        <ele>0.14</ele>
        <time>2018-04-03T12:18:36Z</time>
      </trkpt>
      <trkpt lat="46.7276" lon="-2.35021">
        <ele>0.14</ele>
        <time>2018-04-03T12:18:40Z</time>
      </trkpt>
      <trkpt lat="46.72763" lon="-2.35031">
        <ele>0.62</ele>
        <time>2018-04-03T12:18:47Z</time>
      </trkpt>
      <trkpt lat="46.72765" lon="-2.35035">
        <ele>0.14</ele>
        <time>2018-04-03T12:18:50Z</time>
      </trkpt>
      <trkpt lat="46.7277" lon="-2.35039">
        <ele>0.62</ele>
        <time>2018-04-03T12:18:56Z</time>
      </trkpt>
      <trkpt lat="46.72772" lon="-2.3505">
        <ele>0.62</ele>
        <time>2018-04-03T12:19:03Z</time>
      </trkpt>
      <trkpt lat="46.72777" lon="-2.35071">
        <ele>1.58</ele>
        <time>2018-04-03T12:19:17Z</time>
      </trkpt>
      <trkpt lat="46.72778" lon="-2.35078">
        <ele>0.62</ele>
        <time>2018-04-03T12:19:22Z</time>
      </trkpt>
      <trkpt lat="46.72779" lon="-2.35084">
        <ele>1.1</ele>
        <time>2018-04-03T12:19:26Z</time>
      </trkpt>
      <trkpt lat="46.72782" lon="-2.35091">
        <ele>2.06</ele>
        <time>2018-04-03T12:19:30Z</time>
      </trkpt>
      <trkpt lat="46.72786" lon="-2.35099">
        <ele>2.06</ele>
        <time>2018-04-03T12:19:37Z</time>
      </trkpt>
      <trkpt lat="46.72787" lon="-2.35101">
        <ele>2.54</ele>
        <time>2018-04-03T12:19:39Z</time>
      </trkpt>
      <trkpt lat="46.72788" lon="-2.35105">
        <ele>2.06</ele>
        <time>2018-04-03T12:19:41Z</time>
      </trkpt>
      <trkpt lat="46.72796" lon="-2.35118">
        <ele>2.54</ele>
        <time>2018-04-03T12:19:51Z</time>
      </trkpt>
      <trkpt lat="46.72793" lon="-2.35132">
        <ele>4.46</ele>
        <time>2018-04-03T12:20:02Z</time>
      </trkpt>
      <trkpt lat="46.72792" lon="-2.35134">
        <ele>3.98</ele>
        <time>2018-04-03T12:20:06Z</time>
      </trkpt>
      <trkpt lat="46.72787" lon="-2.3514">
        <ele>3.98</ele>
        <time>2018-04-03T12:20:13Z</time>
      </trkpt>
      <trkpt lat="46.72784" lon="-2.3515">
        <ele>3.98</ele>
        <time>2018-04-03T12:20:19Z</time>
      </trkpt>
      <trkpt lat="46.72785" lon="-2.3516">
        <ele>2.06</ele>
        <time>2018-04-03T12:20:29Z</time>
      </trkpt>
      <trkpt lat="46.72786" lon="-2.35161">
        <ele>1.58</ele>
        <time>2018-04-03T12:20:31Z</time>
      </trkpt>
      <trkpt lat="46.7279" lon="-2.35175">
        <ele>-0.82</ele>
        <time>2018-04-03T12:20:42Z</time>
      </trkpt>
      <trkpt lat="46.72795" lon="-2.35195">
        <ele>-1.79</ele>
        <time>2018-04-03T12:20:53Z</time>
      </trkpt>
      <trkpt lat="46.72794" lon="-2.35198">
        <ele>-1.79</ele>
        <time>2018-04-03T12:20:56Z</time>
      </trkpt>
      <trkpt lat="46.72796" lon="-2.35213">
        <ele>-0.34</ele>
        <time>2018-04-03T12:21:04Z</time>
      </trkpt>
      <trkpt lat="46.72787" lon="-2.35227">
        <ele>3.98</ele>
        <time>2018-04-03T12:21:15Z</time>
      </trkpt>
      <trkpt lat="46.7278" lon="-2.35237">
        <ele>4.46</ele>
        <time>2018-04-03T12:21:23Z</time>
      </trkpt>
      <trkpt lat="46.72773" lon="-2.35252">
        <ele>3.02</ele>
        <time>2018-04-03T12:21:33Z</time>
      </trkpt>
      <trkpt lat="46.72773" lon="-2.35253">
        <ele>3.02</ele>
        <time>2018-04-03T12:21:34Z</time>
      </trkpt>
      <trkpt lat="46.72766" lon="-2.35265">
        <ele>2.54</ele>
        <time>2018-04-03T12:21:42Z</time>
      </trkpt>
      <trkpt lat="46.72761" lon="-2.35284">
        <ele>1.1</ele>
        <time>2018-04-03T12:21:53Z</time>
      </trkpt>
      <trkpt lat="46.7276" lon="-2.35297">
        <ele>0.62</ele>
        <time>2018-04-03T12:22:02Z</time>
      </trkpt>
      <trkpt lat="46.72758" lon="-2.35315">
        <ele>0.14</ele>
        <time>2018-04-03T12:22:14Z</time>
      </trkpt>
      <trkpt lat="46.72756" lon="-2.35334">
        <ele>0.14</ele>
        <time>2018-04-03T12:22:24Z</time>
      </trkpt>
      <trkpt lat="46.72755" lon="-2.35352">
        <ele>0.14</ele>
        <time>2018-04-03T12:22:36Z</time>
      </trkpt>
      <trkpt lat="46.72753" lon="-2.35364">
        <ele>-0.34</ele>
        <time>2018-04-03T12:22:43Z</time>
      </trkpt>
      <trkpt lat="46.72755" lon="-2.35381">
        <ele>1.1</ele>
        <time>2018-04-03T12:22:53Z</time>
      </trkpt>
      <trkpt lat="46.72755" lon="-2.35382">
        <ele>1.1</ele>
        <time>2018-04-03T12:22:55Z</time>
      </trkpt>
      <trkpt lat="46.72753" lon="-2.35392">
        <ele>1.58</ele>
        <time>2018-04-03T12:23:03Z</time>
      </trkpt>
      <trkpt lat="46.72749" lon="-2.35405">
        <ele>2.54</ele>
        <time>2018-04-03T12:23:11Z</time>
      </trkpt>
      <trkpt lat="46.72756" lon="-2.35425">
        <ele>4.94</ele>
        <time>2018-04-03T12:23:21Z</time>
      </trkpt>
      <trkpt lat="46.72759" lon="-2.3543">
        <ele>4.46</ele>
        <time>2018-04-03T12:23:25Z</time>
      </trkpt>
      <trkpt lat="46.72768" lon="-2.35435">
        <ele>3.98</ele>
        <time>2018-04-03T12:23:30Z</time>
      </trkpt>
      <trkpt lat="46.72769" lon="-2.35435">
        <ele>3.98</ele>
        <time>2018-04-03T12:23:32Z</time>
      </trkpt>
      <trkpt lat="46.72776" lon="-2.35437">
        <ele>3.02</ele>
        <time>2018-04-03T12:23:39Z</time>
      </trkpt>
      <trkpt lat="46.72789" lon="-2.35448">
        <ele>2.06</ele>
        <time>2018-04-03T12:23:54Z</time>
      </trkpt>
      <trkpt lat="46.72789" lon="-2.35447">
        <ele>1.58</ele>
        <time>2018-04-03T12:24:10Z</time>
      </trkpt>
      <trkpt lat="46.7279" lon="-2.35449">
        <ele>1.58</ele>
        <time>2018-04-03T12:24:21Z</time>
      </trkpt>
      <trkpt lat="46.7279" lon="-2.3545">
        <ele>2.06</ele>
        <time>2018-04-03T12:24:34Z</time>
      </trkpt>
      <trkpt lat="46.72792" lon="-2.35455">
        <ele>2.54</ele>
        <time>2018-04-03T12:24:51Z</time>
      </trkpt>
      <trkpt lat="46.72792" lon="-2.35454">
        <ele>3.02</ele>
        <time>2018-04-03T12:25:04Z</time>
      </trkpt>
      <trkpt lat="46.72798" lon="-2.35465">
        <ele>2.06</ele>
        <time>2018-04-03T12:25:14Z</time>
      </trkpt>
      <trkpt lat="46.728" lon="-2.35465">
        <ele>2.06</ele>
        <time>2018-04-03T12:25:17Z</time>
      </trkpt>
      <trkpt lat="46.72806" lon="-2.35477">
        <ele>2.54</ele>
        <time>2018-04-03T12:25:27Z</time>
      </trkpt>
      <trkpt lat="46.7281" lon="-2.35484">
        <ele>2.06</ele>
        <time>2018-04-03T12:25:35Z</time>
      </trkpt>
      <trkpt lat="46.72813" lon="-2.35488">
        <ele>1.58</ele>
        <time>2018-04-03T12:25:38Z</time>
      </trkpt>
      <trkpt lat="46.72814" lon="-2.35491">
        <ele>1.58</ele>
        <time>2018-04-03T12:25:41Z</time>
      </trkpt>
      <trkpt lat="46.72818" lon="-2.35498">
        <ele>1.58</ele>
        <time>2018-04-03T12:25:45Z</time>
      </trkpt>
      <trkpt lat="46.72821" lon="-2.35501">
        <ele>1.1</ele>
        <time>2018-04-03T12:25:50Z</time>
      </trkpt>
      <trkpt lat="46.72828" lon="-2.35514">
        <ele>1.1</ele>
        <time>2018-04-03T12:26:00Z</time>
      </trkpt>
      <trkpt lat="46.72836" lon="-2.3553">
        <ele>2.54</ele>
        <time>2018-04-03T12:26:09Z</time>
      </trkpt>
      <trkpt lat="46.72837" lon="-2.35532">
        <ele>2.54</ele>
        <time>2018-04-03T12:26:10Z</time>
      </trkpt>
      <trkpt lat="46.72839" lon="-2.35532">
        <ele>3.02</ele>
        <time>2018-04-03T12:26:13Z</time>
      </trkpt>
      <trkpt lat="46.72844" lon="-2.3554">
        <ele>3.02</ele>
        <time>2018-04-03T12:26:21Z</time>
      </trkpt>
      <trkpt lat="46.72851" lon="-2.35548">
        <ele>4.46</ele>
        <time>2018-04-03T12:26:28Z</time>
      </trkpt>
      <trkpt lat="46.72859" lon="-2.35556">
        <ele>3.02</ele>
        <time>2018-04-03T12:26:36Z</time>
      </trkpt>
      <trkpt lat="46.72867" lon="-2.35565">
        <ele>1.1</ele>
        <time>2018-04-03T12:26:45Z</time>
      </trkpt>
      <trkpt lat="46.72872" lon="-2.35572">
        <ele>1.58</ele>
        <time>2018-04-03T12:26:51Z</time>
      </trkpt>
      <trkpt lat="46.7288" lon="-2.35582">
        <ele>1.58</ele>
        <time>2018-04-03T12:27:00Z</time>
      </trkpt>
      <trkpt lat="46.72884" lon="-2.3559">
        <ele>1.1</ele>
        <time>2018-04-03T12:27:08Z</time>
      </trkpt>
      <trkpt lat="46.72887" lon="-2.35597">
        <ele>0.62</ele>
        <time>2018-04-03T12:27:16Z</time>
      </trkpt>
      <trkpt lat="46.72887" lon="-2.35597">
        <ele>0.62</ele>
        <time>2018-04-03T12:27:17Z</time>
      </trkpt>
      <trkpt lat="46.72891" lon="-2.35603">
        <ele>0.14</ele>
        <time>2018-04-03T12:27:23Z</time>
      </trkpt>
      <trkpt lat="46.72896" lon="-2.35613">
        <ele>0.14</ele>
        <time>2018-04-03T12:27:31Z</time>
      </trkpt>
      <trkpt lat="46.72902" lon="-2.35619">
        <ele>1.1</ele>
        <time>2018-04-03T12:27:38Z</time>
      </trkpt>
      <trkpt lat="46.72906" lon="-2.35626">
        <ele>1.1</ele>
        <time>2018-04-03T12:27:46Z</time>
      </trkpt>
      <trkpt lat="46.72908" lon="-2.35628">
        <ele>0.62</ele>
        <time>2018-04-03T12:27:48Z</time>
      </trkpt>
      <trkpt lat="46.7291" lon="-2.35628">
        <ele>0.14</ele>
        <time>2018-04-03T12:27:50Z</time>
      </trkpt>
      <trkpt lat="46.72918" lon="-2.35635">
        <ele>-0.34</ele>
        <time>2018-04-03T12:27:59Z</time>
      </trkpt>
      <trkpt lat="46.72919" lon="-2.35635">
        <ele>-0.82</ele>
        <time>2018-04-03T12:28:00Z</time>
      </trkpt>
      <trkpt lat="46.72924" lon="-2.35637">
        <ele>-0.34</ele>
        <time>2018-04-03T12:28:04Z</time>
      </trkpt>
      <trkpt lat="46.72925" lon="-2.3564">
        <ele>-0.34</ele>
        <time>2018-04-03T12:28:06Z</time>
      </trkpt>
      <trkpt lat="46.7293" lon="-2.35655">
        <ele>-0.82</ele>
        <time>2018-04-03T12:28:16Z</time>
      </trkpt>
      <trkpt lat="46.72934" lon="-2.3567">
        <ele>-0.34</ele>
        <time>2018-04-03T12:28:26Z</time>
      </trkpt>
      <trkpt lat="46.72936" lon="-2.35672">
        <ele>0.14</ele>
        <time>2018-04-03T12:28:29Z</time>
      </trkpt>
      <trkpt lat="46.72939" lon="-2.35683">
        <ele>0.14</ele>
        <time>2018-04-03T12:28:37Z</time>
      </trkpt>
      <trkpt lat="46.72935" lon="-2.35689">
        <ele>0.14</ele>
        <time>2018-04-03T12:28:46Z</time>
      </trkpt>
      <trkpt lat="46.72934" lon="-2.35691">
        <ele>0.14</ele>
        <time>2018-04-03T12:28:57Z</time>
      </trkpt>
      <trkpt lat="46.72935" lon="-2.35703">
        <ele>0.14</ele>
        <time>2018-04-03T12:29:04Z</time>
      </trkpt>
      <trkpt lat="46.72938" lon="-2.35719">
        <ele>-0.82</ele>
        <time>2018-04-03T12:29:13Z</time>
      </trkpt>
      <trkpt lat="46.7294" lon="-2.3572">
        <ele>-0.34</ele>
        <time>2018-04-03T12:29:16Z</time>
      </trkpt>
      <trkpt lat="46.72941" lon="-2.35728">
        <ele>-0.82</ele>
        <time>2018-04-03T12:29:22Z</time>
      </trkpt>
      <trkpt lat="46.72946" lon="-2.35751">
        <ele>-0.34</ele>
        <time>2018-04-03T12:29:38Z</time>
      </trkpt>
      <trkpt lat="46.72947" lon="-2.35755">
        <ele>-0.34</ele>
        <time>2018-04-03T12:29:40Z</time>
      </trkpt>
      <trkpt lat="46.72949" lon="-2.35765">
        <ele>-0.34</ele>
        <time>2018-04-03T12:29:46Z</time>
      </trkpt>
      <trkpt lat="46.72951" lon="-2.35769">
        <ele>0.14</ele>
        <time>2018-04-03T12:29:50Z</time>
      </trkpt>
      <trkpt lat="46.72955" lon="-2.35779">
        <ele>0.14</ele>
        <time>2018-04-03T12:29:56Z</time>
      </trkpt>
      <trkpt lat="46.72958" lon="-2.35792">
        <ele>0.14</ele>
        <time>2018-04-03T12:30:04Z</time>
      </trkpt>
      <trkpt lat="46.72964" lon="-2.35807">
        <ele>1.1</ele>
        <time>2018-04-03T12:30:12Z</time>
      </trkpt>
      <trkpt lat="46.72967" lon="-2.35817">
        <ele>0.14</ele>
        <time>2018-04-03T12:30:20Z</time>
      </trkpt>
      <trkpt lat="46.72972" lon="-2.35832">
        <ele>0.14</ele>
        <time>2018-04-03T12:30:29Z</time>
      </trkpt>
      <trkpt lat="46.72974" lon="-2.35845">
        <ele>0.62</ele>
        <time>2018-04-03T12:30:38Z</time>
      </trkpt>
      <trkpt lat="46.72975" lon="-2.35848">
        <ele>2.06</ele>
        <time>2018-04-03T12:30:41Z</time>
      </trkpt>
      <trkpt lat="46.72974" lon="-2.35861">
        <ele>3.98</ele>
        <time>2018-04-03T12:30:48Z</time>
      </trkpt>
      <trkpt lat="46.72973" lon="-2.35868">
        <ele>3.5</ele>
        <time>2018-04-03T12:30:53Z</time>
      </trkpt>
      <trkpt lat="46.72972" lon="-2.35871">
        <ele>3.5</ele>
        <time>2018-04-03T12:30:55Z</time>
      </trkpt>
      <trkpt lat="46.72973" lon="-2.35873">
        <ele>3.02</ele>
        <time>2018-04-03T12:30:57Z</time>
      </trkpt>
      <trkpt lat="46.72972" lon="-2.35881">
        <ele>3.02</ele>
        <time>2018-04-03T12:31:03Z</time>
      </trkpt>
      <trkpt lat="46.7297" lon="-2.35889">
        <ele>1.58</ele>
        <time>2018-04-03T12:31:12Z</time>
      </trkpt>
      <trkpt lat="46.72967" lon="-2.35896">
        <ele>1.1</ele>
        <time>2018-04-03T12:31:18Z</time>
      </trkpt>
      <trkpt lat="46.72966" lon="-2.35909">
        <ele>2.06</ele>
        <time>2018-04-03T12:31:29Z</time>
      </trkpt>
      <trkpt lat="46.72963" lon="-2.35921">
        <ele>2.06</ele>
        <time>2018-04-03T12:31:37Z</time>
      </trkpt>
      <trkpt lat="46.72963" lon="-2.35922">
        <ele>2.06</ele>
        <time>2018-04-03T12:31:39Z</time>
      </trkpt>
      <trkpt lat="46.72961" lon="-2.3593">
        <ele>2.06</ele>
        <time>2018-04-03T12:31:44Z</time>
      </trkpt>
      <trkpt lat="46.72955" lon="-2.35942">
        <ele>1.1</ele>
        <time>2018-04-03T12:31:52Z</time>
      </trkpt>
      <trkpt lat="46.72953" lon="-2.35948">
        <ele>0.62</ele>
        <time>2018-04-03T12:31:56Z</time>
      </trkpt>
      <trkpt lat="46.72942" lon="-2.35963">
        <ele>1.1</ele>
        <time>2018-04-03T12:32:09Z</time>
      </trkpt>
      <trkpt lat="46.72933" lon="-2.35971">
        <ele>1.58</ele>
        <time>2018-04-03T12:32:18Z</time>
      </trkpt>
      <trkpt lat="46.72933" lon="-2.35972">
        <ele>1.58</ele>
        <time>2018-04-03T12:32:19Z</time>
      </trkpt>
      <trkpt lat="46.7293" lon="-2.3598">
        <ele>0.62</ele>
        <time>2018-04-03T12:32:23Z</time>
      </trkpt>
      <trkpt lat="46.72928" lon="-2.35981">
        <ele>1.1</ele>
        <time>2018-04-03T12:32:26Z</time>
      </trkpt>
      <trkpt lat="46.72926" lon="-2.35985">
        <ele>1.58</ele>
        <time>2018-04-03T12:32:30Z</time>
      </trkpt>
      <trkpt lat="46.72913" lon="-2.35988">
        <ele>0.14</ele>
        <time>2018-04-03T12:32:38Z</time>
      </trkpt>
      <trkpt lat="46.72905" lon="-2.36001">
        <ele>-1.79</ele>
        <time>2018-04-03T12:32:48Z</time>
      </trkpt>
      <trkpt lat="46.72903" lon="-2.36004">
        <ele>-1.79</ele>
        <time>2018-04-03T12:32:51Z</time>
      </trkpt>
      <trkpt lat="46.72898" lon="-2.36014">
        <ele>-3.23</ele>
        <time>2018-04-03T12:33:01Z</time>
      </trkpt>
      <trkpt lat="46.72898" lon="-2.36017">
        <ele>-3.23</ele>
        <time>2018-04-03T12:33:03Z</time>
      </trkpt>
      <trkpt lat="46.72897" lon="-2.36022">
        <ele>-2.75</ele>
        <time>2018-04-03T12:33:07Z</time>
      </trkpt>
      <trkpt lat="46.72905" lon="-2.36035">
        <ele>-3.23</ele>
        <time>2018-04-03T12:33:17Z</time>
      </trkpt>
      <trkpt lat="46.72906" lon="-2.36041">
        <ele>-4.67</ele>
        <time>2018-04-03T12:33:22Z</time>
      </trkpt>
      <trkpt lat="46.72905" lon="-2.36045">
        <ele>-4.67</ele>
        <time>2018-04-03T12:33:27Z</time>
      </trkpt>
      <trkpt lat="46.72906" lon="-2.36053">
        <ele>-5.15</ele>
        <time>2018-04-03T12:33:34Z</time>
      </trkpt>
      <trkpt lat="46.72909" lon="-2.36065">
        <ele>-6.59</ele>
        <time>2018-04-03T12:33:41Z</time>
      </trkpt>
      <trkpt lat="46.72915" lon="-2.36077">
        <ele>-6.11</ele>
        <time>2018-04-03T12:33:48Z</time>
      </trkpt>
      <trkpt lat="46.72929" lon="-2.36095">
        <ele>-0.82</ele>
        <time>2018-04-03T12:33:58Z</time>
      </trkpt>
      <trkpt lat="46.72931" lon="-2.36098">
        <ele>-0.34</ele>
        <time>2018-04-03T12:34:00Z</time>
      </trkpt>
      <trkpt lat="46.72939" lon="-2.36106">
        <ele>1.1</ele>
        <time>2018-04-03T12:34:08Z</time>
      </trkpt>
      <trkpt lat="46.72947" lon="-2.3612">
        <ele>2.06</ele>
        <time>2018-04-03T12:34:19Z</time>
      </trkpt>
      <trkpt lat="46.72949" lon="-2.36122">
        <ele>2.06</ele>
        <time>2018-04-03T12:34:21Z</time>
      </trkpt>
      <trkpt lat="46.7295" lon="-2.36126">
        <ele>1.58</ele>
        <time>2018-04-03T12:34:24Z</time>
      </trkpt>
      <trkpt lat="46.72952" lon="-2.3613">
        <ele>0.62</ele>
        <time>2018-04-03T12:34:27Z</time>
      </trkpt>
      <trkpt lat="46.72954" lon="-2.36137">
        <ele>0.14</ele>
        <time>2018-04-03T12:34:31Z</time>
      </trkpt>
      <trkpt lat="46.72965" lon="-2.36151">
        <ele>-0.34</ele>
        <time>2018-04-03T12:34:44Z</time>
      </trkpt>
      <trkpt lat="46.72972" lon="-2.36155">
        <ele>0.62</ele>
        <time>2018-04-03T12:34:54Z</time>
      </trkpt>
      <trkpt lat="46.72974" lon="-2.36156">
        <ele>0.62</ele>
        <time>2018-04-03T12:34:56Z</time>
      </trkpt>
      <trkpt lat="46.72982" lon="-2.36161">
        <ele>0.62</ele>
        <time>2018-04-03T12:35:04Z</time>
      </trkpt>
      <trkpt lat="46.7299" lon="-2.36166">
        <ele>1.1</ele>
        <time>2018-04-03T12:35:12Z</time>
      </trkpt>
      <trkpt lat="46.72993" lon="-2.36167">
        <ele>1.1</ele>
        <time>2018-04-03T12:35:15Z</time>
      </trkpt>
      <trkpt lat="46.72996" lon="-2.36166">
        <ele>0.14</ele>
        <time>2018-04-03T12:35:18Z</time>
      </trkpt>
      <trkpt lat="46.73" lon="-2.36174">
        <ele>1.1</ele>
        <time>2018-04-03T12:35:28Z</time>
      </trkpt>
      <trkpt lat="46.73003" lon="-2.36179">
        <ele>1.58</ele>
        <time>2018-04-03T12:35:32Z</time>
      </trkpt>
      <trkpt lat="46.73004" lon="-2.36182">
        <ele>1.1</ele>
        <time>2018-04-03T12:35:35Z</time>
      </trkpt>
      <trkpt lat="46.73011" lon="-2.36189">
        <ele>0.62</ele>
        <time>2018-04-03T12:35:42Z</time>
      </trkpt>
      <trkpt lat="46.73013" lon="-2.36193">
        <ele>0.62</ele>
        <time>2018-04-03T12:35:45Z</time>
      </trkpt>
      <trkpt lat="46.7302" lon="-2.36199">
        <ele>-0.34</ele>
        <time>2018-04-03T12:35:53Z</time>
      </trkpt>
      <trkpt lat="46.73024" lon="-2.36202">
        <ele>-0.34</ele>
        <time>2018-04-03T12:35:56Z</time>
      </trkpt>
      <trkpt lat="46.73026" lon="-2.36205">
        <ele>-0.82</ele>
        <time>2018-04-03T12:35:59Z</time>
      </trkpt>
      <trkpt lat="46.73033" lon="-2.3621">
        <ele>0.14</ele>
        <time>2018-04-03T12:36:06Z</time>
      </trkpt>
      <trkpt lat="46.7304" lon="-2.3621">
        <ele>0.14</ele>
        <time>2018-04-03T12:36:11Z</time>
      </trkpt>
      <trkpt lat="46.73046" lon="-2.36207">
        <ele>0.14</ele>
        <time>2018-04-03T12:36:17Z</time>
      </trkpt>
      <trkpt lat="46.73053" lon="-2.36203">
        <ele>0.62</ele>
        <time>2018-04-03T12:36:23Z</time>
      </trkpt>
      <trkpt lat="46.73058" lon="-2.3621">
        <ele>1.1</ele>
        <time>2018-04-03T12:36:30Z</time>
      </trkpt>
      <trkpt lat="46.73059" lon="-2.36213">
        <ele>1.58</ele>
        <time>2018-04-03T12:36:42Z</time>
      </trkpt>
      <trkpt lat="46.73061" lon="-2.36226">
        <ele>0.14</ele>
        <time>2018-04-03T12:36:59Z</time>
      </trkpt>
      <trkpt lat="46.73065" lon="-2.36242">
        <ele>-0.34</ele>
        <time>2018-04-03T12:37:11Z</time>
      </trkpt>
      <trkpt lat="46.73066" lon="-2.36247">
        <ele>-0.34</ele>
        <time>2018-04-03T12:37:15Z</time>
      </trkpt>
      <trkpt lat="46.73066" lon="-2.36255">
        <ele>0.62</ele>
        <time>2018-04-03T12:37:20Z</time>
      </trkpt>
      <trkpt lat="46.73067" lon="-2.36262">
        <ele>0.62</ele>
        <time>2018-04-03T12:37:25Z</time>
      </trkpt>
      <trkpt lat="46.73072" lon="-2.36273">
        <ele>0.14</ele>
        <time>2018-04-03T12:37:34Z</time>
      </trkpt>
      <trkpt lat="46.73077" lon="-2.36282">
        <ele>-1.3</ele>
        <time>2018-04-03T12:37:46Z</time>
      </trkpt>
      <trkpt lat="46.73075" lon="-2.36285">
        <ele>-1.79</ele>
        <time>2018-04-03T12:37:53Z</time>
      </trkpt>
      <trkpt lat="46.73073" lon="-2.36289">
        <ele>-1.79</ele>
        <time>2018-04-03T12:37:57Z</time>
      </trkpt>
      <trkpt lat="46.7307" lon="-2.36296">
        <ele>-1.3</ele>
        <time>2018-04-03T12:38:04Z</time>
      </trkpt>
      <trkpt lat="46.7307" lon="-2.363">
        <ele>-1.79</ele>
        <time>2018-04-03T12:38:07Z</time>
      </trkpt>
      <trkpt lat="46.7307" lon="-2.36314">
        <ele>-0.34</ele>
        <time>2018-04-03T12:38:16Z</time>
      </trkpt>
      <trkpt lat="46.73068" lon="-2.36326">
        <ele>0.62</ele>
        <time>2018-04-03T12:38:25Z</time>
      </trkpt>
      <trkpt lat="46.73065" lon="-2.36338">
        <ele>0.14</ele>
        <time>2018-04-03T12:38:34Z</time>
      </trkpt>
      <trkpt lat="46.7306" lon="-2.36345">
        <ele>1.1</ele>
        <time>2018-04-03T12:38:46Z</time>
      </trkpt>
      <trkpt lat="46.73058" lon="-2.36348">
        <ele>1.58</ele>
        <time>2018-04-03T12:38:49Z</time>
      </trkpt>
      <trkpt lat="46.73052" lon="-2.36351">
        <ele>0.62</ele>
        <time>2018-04-03T12:38:56Z</time>
      </trkpt>
      <trkpt lat="46.73046" lon="-2.3636">
        <ele>3.98</ele>
        <time>2018-04-03T12:39:08Z</time>
      </trkpt>
      <trkpt lat="46.73039" lon="-2.36364">
        <ele>3.02</ele>
        <time>2018-04-03T12:39:16Z</time>
      </trkpt>
      <trkpt lat="46.73037" lon="-2.36372">
        <ele>3.02</ele>
        <time>2018-04-03T12:39:21Z</time>
      </trkpt>
      <trkpt lat="46.73039" lon="-2.36382">
        <ele>1.58</ele>
        <time>2018-04-03T12:39:27Z</time>
      </trkpt>
      <trkpt lat="46.7304" lon="-2.36385">
        <ele>1.58</ele>
        <time>2018-04-03T12:39:29Z</time>
      </trkpt>
      <trkpt lat="46.73041" lon="-2.3639">
        <ele>1.58</ele>
        <time>2018-04-03T12:39:33Z</time>
      </trkpt>
      <trkpt lat="46.73043" lon="-2.36397">
        <ele>0.62</ele>
        <time>2018-04-03T12:39:38Z</time>
      </trkpt>
      <trkpt lat="46.73047" lon="-2.36407">
        <ele>1.58</ele>
        <time>2018-04-03T12:39:45Z</time>
      </trkpt>
      <trkpt lat="46.73056" lon="-2.36425">
        <ele>1.58</ele>
        <time>2018-04-03T12:39:58Z</time>
      </trkpt>
      <trkpt lat="46.73067" lon="-2.36438">
        <ele>0.62</ele>
        <time>2018-04-03T12:40:10Z</time>
      </trkpt>
      <trkpt lat="46.73074" lon="-2.36449">
        <ele>1.58</ele>
        <time>2018-04-03T12:40:19Z</time>
      </trkpt>
      <trkpt lat="46.73085" lon="-2.36462">
        <ele>0.62</ele>
        <time>2018-04-03T12:40:32Z</time>
      </trkpt>
      <trkpt lat="46.73088" lon="-2.36473">
        <ele>1.58</ele>
        <time>2018-04-03T12:40:40Z</time>
      </trkpt>
      <trkpt lat="46.7309" lon="-2.36479">
        <ele>1.58</ele>
        <time>2018-04-03T12:40:45Z</time>
      </trkpt>
      <trkpt lat="46.73096" lon="-2.36481">
        <ele>1.1</ele>
        <time>2018-04-03T12:40:50Z</time>
      </trkpt>
      <trkpt lat="46.73104" lon="-2.3648">
        <ele>0.62</ele>
        <time>2018-04-03T12:41:00Z</time>
      </trkpt>
      <trkpt lat="46.73109" lon="-2.36482">
        <ele>-0.34</ele>
        <time>2018-04-03T12:41:13Z</time>
      </trkpt>
      <trkpt lat="46.7311" lon="-2.36483">
        <ele>-1.3</ele>
        <time>2018-04-03T12:41:16Z</time>
      </trkpt>
      <trkpt lat="46.7311" lon="-2.36486">
        <ele>-1.3</ele>
        <time>2018-04-03T12:41:19Z</time>
      </trkpt>
      <trkpt lat="46.73118" lon="-2.36502">
        <ele>-1.3</ele>
        <time>2018-04-03T12:41:31Z</time>
      </trkpt>
      <trkpt lat="46.73118" lon="-2.36503">
        <ele>-1.3</ele>
        <time>2018-04-03T12:41:33Z</time>
      </trkpt>
      <trkpt lat="46.73122" lon="-2.36518">
        <ele>-1.3</ele>
        <time>2018-04-03T12:41:43Z</time>
      </trkpt>
      <trkpt lat="46.73124" lon="-2.36522">
        <ele>-1.3</ele>
        <time>2018-04-03T12:41:48Z</time>
      </trkpt>
      <trkpt lat="46.73131" lon="-2.36537">
        <ele>-1.3</ele>
        <time>2018-04-03T12:41:57Z</time>
      </trkpt>
      <trkpt lat="46.73135" lon="-2.36548">
        <ele>-1.79</ele>
        <time>2018-04-03T12:42:04Z</time>
      </trkpt>
      <trkpt lat="46.73136" lon="-2.3655">
        <ele>-1.79</ele>
        <time>2018-04-03T12:42:07Z</time>
      </trkpt>
      <trkpt lat="46.73136" lon="-2.36554">
        <ele>-1.79</ele>
        <time>2018-04-03T12:42:10Z</time>
      </trkpt>
      <trkpt lat="46.73135" lon="-2.36566">
        <ele>-1.79</ele>
        <time>2018-04-03T12:42:18Z</time>
      </trkpt>
      <trkpt lat="46.73128" lon="-2.36582">
        <ele>-1.3</ele>
        <time>2018-04-03T12:42:29Z</time>
      </trkpt>
      <trkpt lat="46.73128" lon="-2.36585">
        <ele>-0.34</ele>
        <time>2018-04-03T12:42:32Z</time>
      </trkpt>
      <trkpt lat="46.73128" lon="-2.36589">
        <ele>0.62</ele>
        <time>2018-04-03T12:42:36Z</time>
      </trkpt>
      <trkpt lat="46.73126" lon="-2.36593">
        <ele>0.14</ele>
        <time>2018-04-03T12:42:42Z</time>
      </trkpt>
      <trkpt lat="46.73124" lon="-2.36603">
        <ele>-0.34</ele>
        <time>2018-04-03T12:42:48Z</time>
      </trkpt>
      <trkpt lat="46.73127" lon="-2.36618">
        <ele>2.06</ele>
        <time>2018-04-03T12:42:57Z</time>
      </trkpt>
      <trkpt lat="46.73129" lon="-2.36633">
        <ele>1.1</ele>
        <time>2018-04-03T12:43:07Z</time>
      </trkpt>
      <trkpt lat="46.73129" lon="-2.36647">
        <ele>0.14</ele>
        <time>2018-04-03T12:43:17Z</time>
      </trkpt>
      <trkpt lat="46.73133" lon="-2.36663">
        <ele>1.1</ele>
        <time>2018-04-03T12:43:26Z</time>
      </trkpt>
      <trkpt lat="46.73136" lon="-2.36672">
        <ele>0.62</ele>
        <time>2018-04-03T12:43:34Z</time>
      </trkpt>
      <trkpt lat="46.73141" lon="-2.36684">
        <ele>1.58</ele>
        <time>2018-04-03T12:43:44Z</time>
      </trkpt>
      <trkpt lat="46.73147" lon="-2.36698">
        <ele>2.06</ele>
        <time>2018-04-03T12:43:52Z</time>
      </trkpt>
      <trkpt lat="46.73147" lon="-2.36699">
        <ele>2.06</ele>
        <time>2018-04-03T12:43:54Z</time>
      </trkpt>
      <trkpt lat="46.73151" lon="-2.3671">
        <ele>3.5</ele>
        <time>2018-04-03T12:44:03Z</time>
      </trkpt>
      <trkpt lat="46.73157" lon="-2.36724">
        <ele>3.98</ele>
        <time>2018-04-03T12:44:14Z</time>
      </trkpt>
      <trkpt lat="46.7316" lon="-2.36732">
        <ele>1.58</ele>
        <time>2018-04-03T12:44:22Z</time>
      </trkpt>
      <trkpt lat="46.73163" lon="-2.36745">
        <ele>-0.34</ele>
        <time>2018-04-03T12:44:31Z</time>
      </trkpt>
      <trkpt lat="46.73163" lon="-2.36746">
        <ele>-0.34</ele>
        <time>2018-04-03T12:44:32Z</time>
      </trkpt>
      <trkpt lat="46.73168" lon="-2.36761">
        <ele>0.14</ele>
        <time>2018-04-03T12:44:43Z</time>
      </trkpt>
      <trkpt lat="46.7317" lon="-2.36776">
        <ele>-1.79</ele>
        <time>2018-04-03T12:44:53Z</time>
      </trkpt>
      <trkpt lat="46.73169" lon="-2.36788">
        <ele>-1.79</ele>
        <time>2018-04-03T12:45:01Z</time>
      </trkpt>
      <trkpt lat="46.73172" lon="-2.36802">
        <ele>-1.3</ele>
        <time>2018-04-03T12:45:12Z</time>
      </trkpt>
      <trkpt lat="46.73172" lon="-2.36804">
        <ele>-1.3</ele>
        <time>2018-04-03T12:45:15Z</time>
      </trkpt>
      <trkpt lat="46.7317" lon="-2.3681">
        <ele>-0.82</ele>
        <time>2018-04-03T12:45:19Z</time>
      </trkpt>
      <trkpt lat="46.73173" lon="-2.36819">
        <ele>0.14</ele>
        <time>2018-04-03T12:45:26Z</time>
      </trkpt>
      <trkpt lat="46.73172" lon="-2.3683">
        <ele>0.14</ele>
        <time>2018-04-03T12:45:32Z</time>
      </trkpt>
      <trkpt lat="46.73172" lon="-2.36846">
        <ele>-0.82</ele>
        <time>2018-04-03T12:45:43Z</time>
      </trkpt>
      <trkpt lat="46.73171" lon="-2.36853">
        <ele>-0.34</ele>
        <time>2018-04-03T12:45:48Z</time>
      </trkpt>
      <trkpt lat="46.73168" lon="-2.3686">
        <ele>-0.82</ele>
        <time>2018-04-03T12:45:54Z</time>
      </trkpt>
      <trkpt lat="46.73167" lon="-2.36869">
        <ele>-0.82</ele>
        <time>2018-04-03T12:45:59Z</time>
      </trkpt>
      <trkpt lat="46.73166" lon="-2.36884">
        <ele>0.14</ele>
        <time>2018-04-03T12:46:09Z</time>
      </trkpt>
      <trkpt lat="46.73166" lon="-2.36887">
        <ele>-0.34</ele>
        <time>2018-04-03T12:46:12Z</time>
      </trkpt>
      <trkpt lat="46.73163" lon="-2.36902">
        <ele>-0.82</ele>
        <time>2018-04-03T12:46:23Z</time>
      </trkpt>
      <trkpt lat="46.73161" lon="-2.36916">
        <ele>-1.3</ele>
        <time>2018-04-03T12:46:32Z</time>
      </trkpt>
      <trkpt lat="46.73159" lon="-2.36925">
        <ele>-0.34</ele>
        <time>2018-04-03T12:46:39Z</time>
      </trkpt>
      <trkpt lat="46.73158" lon="-2.36942">
        <ele>-0.82</ele>
        <time>2018-04-03T12:46:49Z</time>
      </trkpt>
      <trkpt lat="46.73161" lon="-2.36955">
        <ele>0.14</ele>
        <time>2018-04-03T12:46:58Z</time>
      </trkpt>
      <trkpt lat="46.73163" lon="-2.36964">
        <ele>0.14</ele>
        <time>2018-04-03T12:47:04Z</time>
      </trkpt>
      <trkpt lat="46.73165" lon="-2.36976">
        <ele>-0.34</ele>
        <time>2018-04-03T12:47:13Z</time>
      </trkpt>
      <trkpt lat="46.73165" lon="-2.36986">
        <ele>-0.34</ele>
        <time>2018-04-03T12:47:20Z</time>
      </trkpt>
      <trkpt lat="46.73165" lon="-2.36997">
        <ele>-0.82</ele>
        <time>2018-04-03T12:47:28Z</time>
      </trkpt>
      <trkpt lat="46.73165" lon="-2.37006">
        <ele>-0.34</ele>
        <time>2018-04-03T12:47:35Z</time>
      </trkpt>
      <trkpt lat="46.73164" lon="-2.37012">
        <ele>-1.3</ele>
        <time>2018-04-03T12:47:38Z</time>
      </trkpt>
      <trkpt lat="46.73164" lon="-2.37022">
        <ele>-0.34</ele>
        <time>2018-04-03T12:47:46Z</time>
      </trkpt>
      <trkpt lat="46.73162" lon="-2.37028">
        <ele>0.14</ele>
        <time>2018-04-03T12:47:50Z</time>
      </trkpt>
      <trkpt lat="46.73164" lon="-2.37033">
        <ele>-0.34</ele>
        <time>2018-04-03T12:47:57Z</time>
      </trkpt>
      <trkpt lat="46.73162" lon="-2.3703">
        <ele>-0.34</ele>
        <time>2018-04-03T12:48:01Z</time>
      </trkpt>
      <trkpt lat="46.73157" lon="-2.37032">
        <ele>0.14</ele>
        <time>2018-04-03T12:48:05Z</time>
      </trkpt>
      <trkpt lat="46.73153" lon="-2.37036">
        <ele>0.62</ele>
        <time>2018-04-03T12:48:10Z</time>
      </trkpt>
      <trkpt lat="46.73157" lon="-2.37054">
        <ele>1.1</ele>
        <time>2018-04-03T12:48:21Z</time>
      </trkpt>
      <trkpt lat="46.73163" lon="-2.37069">
        <ele>1.1</ele>
        <time>2018-04-03T12:48:32Z</time>
      </trkpt>
      <trkpt lat="46.73169" lon="-2.37081">
        <ele>1.58</ele>
        <time>2018-04-03T12:48:48Z</time>
      </trkpt>
      <trkpt lat="46.73169" lon="-2.37082">
        <ele>1.58</ele>
        <time>2018-04-03T12:49:04Z</time>
      </trkpt>
      <trkpt lat="46.73169" lon="-2.37081">
        <ele>1.58</ele>
        <time>2018-04-03T12:49:22Z</time>
      </trkpt>
      <trkpt lat="46.73168" lon="-2.37088">
        <ele>1.58</ele>
        <time>2018-04-03T12:49:29Z</time>
      </trkpt>
      <trkpt lat="46.73165" lon="-2.37094">
        <ele>1.1</ele>
        <time>2018-04-03T12:49:34Z</time>
      </trkpt>
      <trkpt lat="46.73162" lon="-2.37101">
        <ele>1.1</ele>
        <time>2018-04-03T12:49:43Z</time>
      </trkpt>
      <trkpt lat="46.73147" lon="-2.37115">
        <ele>0.14</ele>
        <time>2018-04-03T12:49:59Z</time>
      </trkpt>
      <trkpt lat="46.73138" lon="-2.37127">
        <ele>0.14</ele>
        <time>2018-04-03T12:50:11Z</time>
      </trkpt>
      <trkpt lat="46.73134" lon="-2.37133">
        <ele>0.62</ele>
        <time>2018-04-03T12:50:23Z</time>
      </trkpt>
      <trkpt lat="46.73131" lon="-2.37139">
        <ele>0.62</ele>
        <time>2018-04-03T12:50:31Z</time>
      </trkpt>
      <trkpt lat="46.73129" lon="-2.37143">
        <ele>0.62</ele>
        <time>2018-04-03T12:50:34Z</time>
      </trkpt>
      <trkpt lat="46.73119" lon="-2.3716">
        <ele>3.02</ele>
        <time>2018-04-03T12:50:48Z</time>
      </trkpt>
      <trkpt lat="46.73115" lon="-2.37169">
        <ele>3.5</ele>
        <time>2018-04-03T12:50:54Z</time>
      </trkpt>
      <trkpt lat="46.73113" lon="-2.37172">
        <ele>3.02</ele>
        <time>2018-04-03T12:50:57Z</time>
      </trkpt>
      <trkpt lat="46.73109" lon="-2.37183">
        <ele>2.54</ele>
        <time>2018-04-03T12:51:05Z</time>
      </trkpt>
      <trkpt lat="46.731" lon="-2.372">
        <ele>1.58</ele>
        <time>2018-04-03T12:51:18Z</time>
      </trkpt>
      <trkpt lat="46.73091" lon="-2.37221">
        <ele>0.62</ele>
        <time>2018-04-03T12:51:34Z</time>
      </trkpt>
      <trkpt lat="46.73084" lon="-2.37243">
        <ele>1.58</ele>
        <time>2018-04-03T12:51:47Z</time>
      </trkpt>
      <trkpt lat="46.73082" lon="-2.37245">
        <ele>1.58</ele>
        <time>2018-04-03T12:51:49Z</time>
      </trkpt>
      <trkpt lat="46.73074" lon="-2.37266">
        <ele>1.58</ele>
        <time>2018-04-03T12:52:03Z</time>
      </trkpt>
      <trkpt lat="46.73067" lon="-2.37275">
        <ele>3.02</ele>
        <time>2018-04-03T12:52:13Z</time>
      </trkpt>
      <trkpt lat="46.73052" lon="-2.37284">
        <ele>2.06</ele>
        <time>2018-04-03T12:52:27Z</time>
      </trkpt>
      <trkpt lat="46.73048" lon="-2.37285">
        <ele>2.06</ele>
        <time>2018-04-03T12:52:30Z</time>
      </trkpt>
      <trkpt lat="46.73034" lon="-2.37291">
        <ele>0.62</ele>
        <time>2018-04-03T12:52:43Z</time>
      </trkpt>
      <trkpt lat="46.73026" lon="-2.37294">
        <ele>-0.34</ele>
        <time>2018-04-03T12:52:56Z</time>
      </trkpt>
      <trkpt lat="46.73023" lon="-2.37294">
        <ele>-0.82</ele>
        <time>2018-04-03T12:52:59Z</time>
      </trkpt>
      <trkpt lat="46.73004" lon="-2.37299">
        <ele>0.62</ele>
        <time>2018-04-03T12:53:14Z</time>
      </trkpt>
      <trkpt lat="46.73002" lon="-2.37299">
        <ele>1.1</ele>
        <time>2018-04-03T12:53:16Z</time>
      </trkpt>
      <trkpt lat="46.72988" lon="-2.37305">
        <ele>1.58</ele>
        <time>2018-04-03T12:53:29Z</time>
      </trkpt>
      <trkpt lat="46.72987" lon="-2.3731">
        <ele>1.58</ele>
        <time>2018-04-03T12:53:35Z</time>
      </trkpt>
      <trkpt lat="46.7299" lon="-2.37317">
        <ele>1.58</ele>
        <time>2018-04-03T12:53:40Z</time>
      </trkpt>
      <trkpt lat="46.72992" lon="-2.37326">
        <ele>2.54</ele>
        <time>2018-04-03T12:53:51Z</time>
      </trkpt>
      <trkpt lat="46.72995" lon="-2.37328">
        <ele>2.54</ele>
        <time>2018-04-03T12:53:54Z</time>
      </trkpt>
      <trkpt lat="46.73005" lon="-2.37328">
        <ele>3.5</ele>
        <time>2018-04-03T12:54:08Z</time>
      </trkpt>
      <trkpt lat="46.73006" lon="-2.37328">
        <ele>3.98</ele>
        <time>2018-04-03T12:54:21Z</time>
      </trkpt>
      <trkpt lat="46.73007" lon="-2.37331">
        <ele>3.02</ele>
        <time>2018-04-03T12:54:25Z</time>
      </trkpt>
      <trkpt lat="46.7301" lon="-2.37345">
        <ele>1.58</ele>
        <time>2018-04-03T12:54:35Z</time>
      </trkpt>
      <trkpt lat="46.73013" lon="-2.37357">
        <ele>-1.3</ele>
        <time>2018-04-03T12:54:45Z</time>
      </trkpt>
      <trkpt lat="46.73015" lon="-2.37361">
        <ele>-2.27</ele>
        <time>2018-04-03T12:54:49Z</time>
      </trkpt>
      <trkpt lat="46.7302" lon="-2.37376">
        <ele>-3.71</ele>
        <time>2018-04-03T12:55:01Z</time>
      </trkpt>
      <trkpt lat="46.73024" lon="-2.37401">
        <ele>-2.75</ele>
        <time>2018-04-03T12:55:14Z</time>
      </trkpt>
      <trkpt lat="46.73029" lon="-2.3742">
        <ele>-0.82</ele>
        <time>2018-04-03T12:55:26Z</time>
      </trkpt>
      <trkpt lat="46.7303" lon="-2.37423">
        <ele>0.62</ele>
        <time>2018-04-03T12:55:28Z</time>
      </trkpt>
      <trkpt lat="46.73031" lon="-2.37434">
        <ele>2.06</ele>
        <time>2018-04-03T12:55:36Z</time>
      </trkpt>
      <trkpt lat="46.73033" lon="-2.37442">
        <ele>3.5</ele>
        <time>2018-04-03T12:55:40Z</time>
      </trkpt>
      <trkpt lat="46.73035" lon="-2.37454">
        <ele>2.54</ele>
        <time>2018-04-03T12:55:48Z</time>
      </trkpt>
      <trkpt lat="46.73037" lon="-2.37475">
        <ele>3.02</ele>
        <time>2018-04-03T12:56:01Z</time>
      </trkpt>
      <trkpt lat="46.73042" lon="-2.37494">
        <ele>3.02</ele>
        <time>2018-04-03T12:56:14Z</time>
      </trkpt>
      <trkpt lat="46.73047" lon="-2.37511">
        <ele>3.5</ele>
        <time>2018-04-03T12:56:26Z</time>
      </trkpt>
      <trkpt lat="46.73047" lon="-2.37514">
        <ele>3.5</ele>
        <time>2018-04-03T12:56:28Z</time>
      </trkpt>
      <trkpt lat="46.7306" lon="-2.37527">
        <ele>3.5</ele>
        <time>2018-04-03T12:56:44Z</time>
      </trkpt>
      <trkpt lat="46.7306" lon="-2.37527">
        <ele>3.98</ele>
        <time>2018-04-03T12:56:53Z</time>
      </trkpt>
      <trkpt lat="46.73073" lon="-2.37533">
        <ele>3.02</ele>
        <time>2018-04-03T12:57:07Z</time>
      </trkpt>
      <trkpt lat="46.7309" lon="-2.37538">
        <ele>3.02</ele>
        <time>2018-04-03T12:57:21Z</time>
      </trkpt>
      <trkpt lat="46.73093" lon="-2.37538">
        <ele>3.02</ele>
        <time>2018-04-03T12:57:32Z</time>
      </trkpt>
      <trkpt lat="46.73101" lon="-2.3754">
        <ele>1.58</ele>
        <time>2018-04-03T12:57:44Z</time>
      </trkpt>
      <trkpt lat="46.73111" lon="-2.37543">
        <ele>1.1</ele>
        <time>2018-04-03T12:57:53Z</time>
      </trkpt>
      <trkpt lat="46.73119" lon="-2.37545">
        <ele>1.58</ele>
        <time>2018-04-03T12:58:00Z</time>
      </trkpt>
      <trkpt lat="46.73131" lon="-2.37548">
        <ele>1.58</ele>
        <time>2018-04-03T12:58:12Z</time>
      </trkpt>
      <trkpt lat="46.73135" lon="-2.37549">
        <ele>1.1</ele>
        <time>2018-04-03T12:58:16Z</time>
      </trkpt>
      <trkpt lat="46.73142" lon="-2.37551">
        <ele>1.58</ele>
        <time>2018-04-03T12:58:23Z</time>
      </trkpt>
      <trkpt lat="46.73151" lon="-2.37553">
        <ele>1.58</ele>
        <time>2018-04-03T12:58:31Z</time>
      </trkpt>
      <trkpt lat="46.73157" lon="-2.37554">
        <ele>1.1</ele>
        <time>2018-04-03T12:58:37Z</time>
      </trkpt>
      <trkpt lat="46.73164" lon="-2.37555">
        <ele>0.62</ele>
        <time>2018-04-03T12:58:43Z</time>
      </trkpt>
      <trkpt lat="46.73179" lon="-2.37556">
        <ele>-0.34</ele>
        <time>2018-04-03T12:58:57Z</time>
      </trkpt>
      <trkpt lat="46.73195" lon="-2.37558">
        <ele>1.1</ele>
        <time>2018-04-03T12:59:10Z</time>
      </trkpt>
      <trkpt lat="46.73197" lon="-2.37559">
        <ele>1.1</ele>
        <time>2018-04-03T12:59:12Z</time>
      </trkpt>
      <trkpt lat="46.73201" lon="-2.37559">
        <ele>1.1</ele>
        <time>2018-04-03T12:59:15Z</time>
      </trkpt>
      <trkpt lat="46.73203" lon="-2.37559">
        <ele>1.58</ele>
        <time>2018-04-03T12:59:17Z</time>
      </trkpt>
      <trkpt lat="46.73214" lon="-2.37556">
        <ele>3.5</ele>
        <time>2018-04-03T12:59:26Z</time>
      </trkpt>
      <trkpt lat="46.73216" lon="-2.37557">
        <ele>3.5</ele>
        <time>2018-04-03T12:59:28Z</time>
      </trkpt>
      <trkpt lat="46.7323" lon="-2.37557">
        <ele>3.5</ele>
        <time>2018-04-03T12:59:41Z</time>
      </trkpt>
      <trkpt lat="46.73232" lon="-2.37557">
        <ele>3.5</ele>
        <time>2018-04-03T12:59:43Z</time>
      </trkpt>
      <trkpt lat="46.73245" lon="-2.37556">
        <ele>3.5</ele>
        <time>2018-04-03T12:59:55Z</time>
      </trkpt>
      <trkpt lat="46.73249" lon="-2.37558">
        <ele>3.5</ele>
        <time>2018-04-03T12:59:59Z</time>
      </trkpt>
      <trkpt lat="46.73264" lon="-2.37561">
        <ele>2.06</ele>
        <time>2018-04-03T13:00:13Z</time>
      </trkpt>
      <trkpt lat="46.73267" lon="-2.37562">
        <ele>2.06</ele>
        <time>2018-04-03T13:00:16Z</time>
      </trkpt>
      <trkpt lat="46.73272" lon="-2.37569">
        <ele>1.1</ele>
        <time>2018-04-03T13:00:24Z</time>
      </trkpt>
      <trkpt lat="46.73271" lon="-2.37573">
        <ele>1.58</ele>
        <time>2018-04-03T13:00:27Z</time>
      </trkpt>
      <trkpt lat="46.73265" lon="-2.37588">
        <ele>1.1</ele>
        <time>2018-04-03T13:00:39Z</time>
      </trkpt>
      <trkpt lat="46.73264" lon="-2.37588">
        <ele>1.58</ele>
        <time>2018-04-03T13:00:49Z</time>
      </trkpt>
      <trkpt lat="46.73264" lon="-2.37589">
        <ele>2.06</ele>
        <time>2018-04-03T13:01:12Z</time>
      </trkpt>
      <trkpt lat="46.73263" lon="-2.37591">
        <ele>2.06</ele>
        <time>2018-04-03T13:01:27Z</time>
      </trkpt>
      <trkpt lat="46.73255" lon="-2.37603">
        <ele>0.62</ele>
        <time>2018-04-03T13:01:39Z</time>
      </trkpt>
      <trkpt lat="46.73254" lon="-2.37606">
        <ele>0.62</ele>
        <time>2018-04-03T13:01:41Z</time>
      </trkpt>
      <trkpt lat="46.73247" lon="-2.37618">
        <ele>1.1</ele>
        <time>2018-04-03T13:01:50Z</time>
      </trkpt>
      <trkpt lat="46.73245" lon="-2.37627">
        <ele>0.14</ele>
        <time>2018-04-03T13:01:56Z</time>
      </trkpt>
      <trkpt lat="46.73244" lon="-2.37637">
        <ele>-0.82</ele>
        <time>2018-04-03T13:02:03Z</time>
      </trkpt>
      <trkpt lat="46.73243" lon="-2.37641">
        <ele>-1.3</ele>
        <time>2018-04-03T13:02:06Z</time>
      </trkpt>
      <trkpt lat="46.73241" lon="-2.37653">
        <ele>-0.34</ele>
        <time>2018-04-03T13:02:13Z</time>
      </trkpt>
      <trkpt lat="46.7324" lon="-2.37656">
        <ele>-0.34</ele>
        <time>2018-04-03T13:02:15Z</time>
      </trkpt>
      <trkpt lat="46.7324" lon="-2.37659">
        <ele>-0.34</ele>
        <time>2018-04-03T13:02:17Z</time>
      </trkpt>
      <trkpt lat="46.73239" lon="-2.37677">
        <ele>1.1</ele>
        <time>2018-04-03T13:02:28Z</time>
      </trkpt>
      <trkpt lat="46.73238" lon="-2.3769">
        <ele>-1.3</ele>
        <time>2018-04-03T13:02:38Z</time>
      </trkpt>
      <trkpt lat="46.73237" lon="-2.37695">
        <ele>-2.75</ele>
        <time>2018-04-03T13:02:42Z</time>
      </trkpt>
      <trkpt lat="46.73235" lon="-2.37705">
        <ele>-1.79</ele>
        <time>2018-04-03T13:02:49Z</time>
      </trkpt>
      <trkpt lat="46.73234" lon="-2.37719">
        <ele>-1.3</ele>
        <time>2018-04-03T13:02:59Z</time>
      </trkpt>
      <trkpt lat="46.73236" lon="-2.37731">
        <ele>-3.23</ele>
        <time>2018-04-03T13:03:13Z</time>
      </trkpt>
      <trkpt lat="46.73237" lon="-2.37738">
        <ele>-2.27</ele>
        <time>2018-04-03T13:03:26Z</time>
      </trkpt>
      <trkpt lat="46.73238" lon="-2.37745">
        <ele>-1.3</ele>
        <time>2018-04-03T13:03:32Z</time>
      </trkpt>
      <trkpt lat="46.73238" lon="-2.37759">
        <ele>-0.82</ele>
        <time>2018-04-03T13:03:45Z</time>
      </trkpt>
      <trkpt lat="46.73235" lon="-2.3777">
        <ele>-0.82</ele>
        <time>2018-04-03T13:03:57Z</time>
      </trkpt>
      <trkpt lat="46.73233" lon="-2.37776">
        <ele>-0.82</ele>
        <time>2018-04-03T13:04:03Z</time>
      </trkpt>
      <trkpt lat="46.73228" lon="-2.37783">
        <ele>0.14</ele>
        <time>2018-04-03T13:04:16Z</time>
      </trkpt>
      <trkpt lat="46.73227" lon="-2.37787">
        <ele>-0.34</ele>
        <time>2018-04-03T13:04:20Z</time>
      </trkpt>
      <trkpt lat="46.73227" lon="-2.37792">
        <ele>0.62</ele>
        <time>2018-04-03T13:04:24Z</time>
      </trkpt>
      <trkpt lat="46.73227" lon="-2.37795">
        <ele>0.62</ele>
        <time>2018-04-03T13:04:26Z</time>
      </trkpt>
      <trkpt lat="46.73228" lon="-2.37804">
        <ele>0.62</ele>
        <time>2018-04-03T13:04:33Z</time>
      </trkpt>
      <trkpt lat="46.73228" lon="-2.37807">
        <ele>1.1</ele>
        <time>2018-04-03T13:04:35Z</time>
      </trkpt>
      <trkpt lat="46.7323" lon="-2.37813">
        <ele>1.58</ele>
        <time>2018-04-03T13:04:40Z</time>
      </trkpt>
      <trkpt lat="46.73234" lon="-2.37834">
        <ele>2.06</ele>
        <time>2018-04-03T13:04:54Z</time>
      </trkpt>
      <trkpt lat="46.73234" lon="-2.37837">
        <ele>2.06</ele>
        <time>2018-04-03T13:04:56Z</time>
      </trkpt>
      <trkpt lat="46.73236" lon="-2.37843">
        <ele>3.02</ele>
        <time>2018-04-03T13:05:01Z</time>
      </trkpt>
      <trkpt lat="46.73236" lon="-2.37847">
        <ele>3.02</ele>
        <time>2018-04-03T13:05:03Z</time>
      </trkpt>
      <trkpt lat="46.7324" lon="-2.37866">
        <ele>1.58</ele>
        <time>2018-04-03T13:05:16Z</time>
      </trkpt>
      <trkpt lat="46.73242" lon="-2.37882">
        <ele>1.58</ele>
        <time>2018-04-03T13:05:27Z</time>
      </trkpt>
      <trkpt lat="46.73243" lon="-2.37889">
        <ele>1.1</ele>
        <time>2018-04-03T13:05:31Z</time>
      </trkpt>
      <trkpt lat="46.73243" lon="-2.3789">
        <ele>1.1</ele>
        <time>2018-04-03T13:05:33Z</time>
      </trkpt>
      <trkpt lat="46.73241" lon="-2.37895">
        <ele>0.62</ele>
        <time>2018-04-03T13:05:36Z</time>
      </trkpt>
      <trkpt lat="46.73242" lon="-2.37898">
        <ele>0.14</ele>
        <time>2018-04-03T13:05:38Z</time>
      </trkpt>
      <trkpt lat="46.73241" lon="-2.37904">
        <ele>-0.34</ele>
        <time>2018-04-03T13:05:42Z</time>
      </trkpt>
      <trkpt lat="46.7324" lon="-2.37907">
        <ele>-0.34</ele>
        <time>2018-04-03T13:05:44Z</time>
      </trkpt>
      <trkpt lat="46.73241" lon="-2.37914">
        <ele>-0.34</ele>
        <time>2018-04-03T13:05:49Z</time>
      </trkpt>
      <trkpt lat="46.73241" lon="-2.37919">
        <ele>-0.34</ele>
        <time>2018-04-03T13:05:53Z</time>
      </trkpt>
      <trkpt lat="46.73242" lon="-2.37927">
        <ele>1.58</ele>
        <time>2018-04-03T13:06:02Z</time>
      </trkpt>
      <trkpt lat="46.73243" lon="-2.37932">
        <ele>1.58</ele>
        <time>2018-04-03T13:06:07Z</time>
      </trkpt>
      <trkpt lat="46.73244" lon="-2.37937">
        <ele>1.1</ele>
        <time>2018-04-03T13:06:11Z</time>
      </trkpt>
      <trkpt lat="46.7325" lon="-2.37945">
        <ele>0.14</ele>
        <time>2018-04-03T13:06:21Z</time>
      </trkpt>
      <trkpt lat="46.73251" lon="-2.37944">
        <ele>0.14</ele>
        <time>2018-04-03T13:06:33Z</time>
      </trkpt>
      <trkpt lat="46.73249" lon="-2.37943">
        <ele>0.62</ele>
        <time>2018-04-03T13:06:44Z</time>
      </trkpt>
      <trkpt lat="46.73248" lon="-2.37946">
        <ele>0.62</ele>
        <time>2018-04-03T13:06:46Z</time>
      </trkpt>
      <trkpt lat="46.73246" lon="-2.37956">
        <ele>1.58</ele>
        <time>2018-04-03T13:06:53Z</time>
      </trkpt>
      <trkpt lat="46.73246" lon="-2.37965">
        <ele>0.62</ele>
        <time>2018-04-03T13:07:00Z</time>
      </trkpt>
      <trkpt lat="46.73248" lon="-2.37973">
        <ele>1.1</ele>
        <time>2018-04-03T13:07:07Z</time>
      </trkpt>
      <trkpt lat="46.73248" lon="-2.37976">
        <ele>1.1</ele>
        <time>2018-04-03T13:07:09Z</time>
      </trkpt>
      <trkpt lat="46.73248" lon="-2.37979">
        <ele>1.1</ele>
        <time>2018-04-03T13:07:12Z</time>
      </trkpt>
      <trkpt lat="46.7325" lon="-2.37991">
        <ele>0.14</ele>
        <time>2018-04-03T13:07:22Z</time>
      </trkpt>
      <trkpt lat="46.73252" lon="-2.37999">
        <ele>2.54</ele>
        <time>2018-04-03T13:07:28Z</time>
      </trkpt>
      <trkpt lat="46.73259" lon="-2.38017">
        <ele>2.06</ele>
        <time>2018-04-03T13:07:40Z</time>
      </trkpt>
      <trkpt lat="46.7326" lon="-2.38018">
        <ele>2.06</ele>
        <time>2018-04-03T13:07:41Z</time>
      </trkpt>
      <trkpt lat="46.73258" lon="-2.38019">
        <ele>2.06</ele>
        <time>2018-04-03T13:07:49Z</time>
      </trkpt>
      <trkpt lat="46.73263" lon="-2.38028">
        <ele>2.54</ele>
        <time>2018-04-03T13:07:58Z</time>
      </trkpt>
      <trkpt lat="46.73268" lon="-2.38042">
        <ele>2.06</ele>
        <time>2018-04-03T13:08:08Z</time>
      </trkpt>
      <trkpt lat="46.73273" lon="-2.38047">
        <ele>2.54</ele>
        <time>2018-04-03T13:08:13Z</time>
      </trkpt>
      <trkpt lat="46.73274" lon="-2.38051">
        <ele>2.06</ele>
        <time>2018-04-03T13:08:16Z</time>
      </trkpt>
      <trkpt lat="46.73281" lon="-2.3807">
        <ele>-0.34</ele>
        <time>2018-04-03T13:08:30Z</time>
      </trkpt>
      <trkpt lat="46.73283" lon="-2.38082">
        <ele>-0.34</ele>
        <time>2018-04-03T13:08:38Z</time>
      </trkpt>
      <trkpt lat="46.73284" lon="-2.38091">
        <ele>-1.3</ele>
        <time>2018-04-03T13:08:43Z</time>
      </trkpt>
      <trkpt lat="46.73284" lon="-2.38096">
        <ele>-1.3</ele>
        <time>2018-04-03T13:08:46Z</time>
      </trkpt>
      <trkpt lat="46.73278" lon="-2.38114">
        <ele>-0.82</ele>
        <time>2018-04-03T13:08:59Z</time>
      </trkpt>
      <trkpt lat="46.73272" lon="-2.38126">
        <ele>0.14</ele>
        <time>2018-04-03T13:09:09Z</time>
      </trkpt>
      <trkpt lat="46.73272" lon="-2.38145">
        <ele>-0.34</ele>
        <time>2018-04-03T13:09:21Z</time>
      </trkpt>
      <trkpt lat="46.73271" lon="-2.38158">
        <ele>-0.82</ele>
        <time>2018-04-03T13:09:30Z</time>
      </trkpt>
      <trkpt lat="46.7327" lon="-2.38169">
        <ele>-0.82</ele>
        <time>2018-04-03T13:09:37Z</time>
      </trkpt>
      <trkpt lat="46.7327" lon="-2.38174">
        <ele>-1.79</ele>
        <time>2018-04-03T13:09:41Z</time>
      </trkpt>
      <trkpt lat="46.73279" lon="-2.3819">
        <ele>-1.3</ele>
        <time>2018-04-03T13:09:55Z</time>
      </trkpt>
      <trkpt lat="46.73281" lon="-2.38196">
        <ele>-0.34</ele>
        <time>2018-04-03T13:09:59Z</time>
      </trkpt>
      <trkpt lat="46.73283" lon="-2.38198">
        <ele>-0.34</ele>
        <time>2018-04-03T13:10:01Z</time>
      </trkpt>
      <trkpt lat="46.73286" lon="-2.38205">
        <ele>0.14</ele>
        <time>2018-04-03T13:10:06Z</time>
      </trkpt>
      <trkpt lat="46.73285" lon="-2.38226">
        <ele>-0.34</ele>
        <time>2018-04-03T13:10:20Z</time>
      </trkpt>
      <trkpt lat="46.73283" lon="-2.38241">
        <ele>-0.34</ele>
        <time>2018-04-03T13:10:30Z</time>
      </trkpt>
      <trkpt lat="46.73277" lon="-2.38249">
        <ele>-0.34</ele>
        <time>2018-04-03T13:10:39Z</time>
      </trkpt>
      <trkpt lat="46.73275" lon="-2.38251">
        <ele>0.14</ele>
        <time>2018-04-03T13:10:42Z</time>
      </trkpt>
      <trkpt lat="46.73272" lon="-2.38253">
        <ele>0.14</ele>
        <time>2018-04-03T13:10:45Z</time>
      </trkpt>
      <trkpt lat="46.7327" lon="-2.38256">
        <ele>-0.34</ele>
        <time>2018-04-03T13:10:49Z</time>
      </trkpt>
      <trkpt lat="46.7326" lon="-2.38266">
        <ele>-0.34</ele>
        <time>2018-04-03T13:11:03Z</time>
      </trkpt>
      <trkpt lat="46.7326" lon="-2.38267">
        <ele>0.14</ele>
        <time>2018-04-03T13:11:08Z</time>
      </trkpt>
      <trkpt lat="46.73259" lon="-2.38264">
        <ele>0.62</ele>
        <time>2018-04-03T13:11:12Z</time>
      </trkpt>
      <trkpt lat="46.73258" lon="-2.38262">
        <ele>0.62</ele>
        <time>2018-04-03T13:11:14Z</time>
      </trkpt>
      <trkpt lat="46.73249" lon="-2.38265">
        <ele>0.14</ele>
        <time>2018-04-03T13:11:24Z</time>
      </trkpt>
      <trkpt lat="46.73237" lon="-2.38272">
        <ele>-2.75</ele>
        <time>2018-04-03T13:11:39Z</time>
      </trkpt>
      <trkpt lat="46.73235" lon="-2.38273">
        <ele>-2.27</ele>
        <time>2018-04-03T13:11:41Z</time>
      </trkpt>
      <trkpt lat="46.73231" lon="-2.38276">
        <ele>-2.27</ele>
        <time>2018-04-03T13:11:45Z</time>
      </trkpt>
      <trkpt lat="46.73224" lon="-2.3828">
        <ele>-1.79</ele>
        <time>2018-04-03T13:11:52Z</time>
      </trkpt>
      <trkpt lat="46.73218" lon="-2.38283">
        <ele>-0.82</ele>
        <time>2018-04-03T13:11:59Z</time>
      </trkpt>
      <trkpt lat="46.73216" lon="-2.38285">
        <ele>-0.82</ele>
        <time>2018-04-03T13:12:01Z</time>
      </trkpt>
      <trkpt lat="46.73207" lon="-2.38287">
        <ele>-0.34</ele>
        <time>2018-04-03T13:12:10Z</time>
      </trkpt>
      <trkpt lat="46.73194" lon="-2.38299">
        <ele>0.14</ele>
        <time>2018-04-03T13:12:24Z</time>
      </trkpt>
      <trkpt lat="46.73186" lon="-2.38305">
        <ele>-0.34</ele>
        <time>2018-04-03T13:12:33Z</time>
      </trkpt>
      <trkpt lat="46.73185" lon="-2.38307">
        <ele>-0.82</ele>
        <time>2018-04-03T13:12:35Z</time>
      </trkpt>
      <trkpt lat="46.73183" lon="-2.38309">
        <ele>-0.82</ele>
        <time>2018-04-03T13:12:37Z</time>
      </trkpt>
      <trkpt lat="46.7318" lon="-2.38312">
        <ele>-0.82</ele>
        <time>2018-04-03T13:12:41Z</time>
      </trkpt>
      <trkpt lat="46.73178" lon="-2.38314">
        <ele>-0.82</ele>
        <time>2018-04-03T13:12:43Z</time>
      </trkpt>
      <trkpt lat="46.73169" lon="-2.38322">
        <ele>0.14</ele>
        <time>2018-04-03T13:12:52Z</time>
      </trkpt>
      <trkpt lat="46.73166" lon="-2.38326">
        <ele>-0.82</ele>
        <time>2018-04-03T13:12:57Z</time>
      </trkpt>
      <trkpt lat="46.73163" lon="-2.38334">
        <ele>-0.82</ele>
        <time>2018-04-03T13:13:09Z</time>
      </trkpt>
      <trkpt lat="46.73155" lon="-2.38338">
        <ele>-0.34</ele>
        <time>2018-04-03T13:13:17Z</time>
      </trkpt>
      <trkpt lat="46.73152" lon="-2.38339">
        <ele>-0.82</ele>
        <time>2018-04-03T13:13:20Z</time>
      </trkpt>
      <trkpt lat="46.73143" lon="-2.38348">
        <ele>-0.82</ele>
        <time>2018-04-03T13:13:29Z</time>
      </trkpt>
      <trkpt lat="46.73141" lon="-2.3835">
        <ele>0.14</ele>
        <time>2018-04-03T13:13:31Z</time>
      </trkpt>
      <trkpt lat="46.73131" lon="-2.38356">
        <ele>0.62</ele>
        <time>2018-04-03T13:13:41Z</time>
      </trkpt>
      <trkpt lat="46.73124" lon="-2.38359">
        <ele>0.14</ele>
        <time>2018-04-03T13:13:47Z</time>
      </trkpt>
      <trkpt lat="46.73122" lon="-2.3836">
        <ele>0.14</ele>
        <time>2018-04-03T13:13:49Z</time>
      </trkpt>
      <trkpt lat="46.73112" lon="-2.38361">
        <ele>-0.82</ele>
        <time>2018-04-03T13:13:58Z</time>
      </trkpt>
      <trkpt lat="46.73108" lon="-2.38367">
        <ele>-0.34</ele>
        <time>2018-04-03T13:14:04Z</time>
      </trkpt>
      <trkpt lat="46.73089" lon="-2.38382">
        <ele>-0.34</ele>
        <time>2018-04-03T13:14:24Z</time>
      </trkpt>
      <trkpt lat="46.73072" lon="-2.38374">
        <ele>-0.34</ele>
        <time>2018-04-03T13:14:43Z</time>
      </trkpt>
      <trkpt lat="46.73066" lon="-2.38375">
        <ele>0.14</ele>
        <time>2018-04-03T13:14:59Z</time>
      </trkpt>
      <trkpt lat="46.73058" lon="-2.38378">
        <ele>-0.82</ele>
        <time>2018-04-03T13:15:15Z</time>
      </trkpt>
      <trkpt lat="46.73054" lon="-2.38383">
        <ele>-0.34</ele>
        <time>2018-04-03T13:15:31Z</time>
      </trkpt>
      <trkpt lat="46.73053" lon="-2.38384">
        <ele>-0.82</ele>
        <time>2018-04-03T13:15:37Z</time>
      </trkpt>
      <trkpt lat="46.73052" lon="-2.38387">
        <ele>-0.82</ele>
        <time>2018-04-03T13:15:52Z</time>
      </trkpt>
      <trkpt lat="46.73049" lon="-2.38399">
        <ele>-2.27</ele>
        <time>2018-04-03T13:16:06Z</time>
      </trkpt>
      <trkpt lat="46.73044" lon="-2.38402">
        <ele>-2.27</ele>
        <time>2018-04-03T13:16:13Z</time>
      </trkpt>
      <trkpt lat="46.73041" lon="-2.38404">
        <ele>-1.79</ele>
        <time>2018-04-03T13:16:16Z</time>
      </trkpt>
      <trkpt lat="46.73041" lon="-2.38415">
        <ele>-1.3</ele>
        <time>2018-04-03T13:16:24Z</time>
      </trkpt>
      <trkpt lat="46.73041" lon="-2.3844">
        <ele>-0.34</ele>
        <time>2018-04-03T13:16:40Z</time>
      </trkpt>
      <trkpt lat="46.73039" lon="-2.38451">
        <ele>-0.82</ele>
        <time>2018-04-03T13:16:47Z</time>
      </trkpt>
      <trkpt lat="46.73036" lon="-2.38456">
        <ele>-1.3</ele>
        <time>2018-04-03T13:16:52Z</time>
      </trkpt>
      <trkpt lat="46.73032" lon="-2.38467">
        <ele>-1.79</ele>
        <time>2018-04-03T13:17:02Z</time>
      </trkpt>
      <trkpt lat="46.73029" lon="-2.38483">
        <ele>-4.67</ele>
        <time>2018-04-03T13:17:14Z</time>
      </trkpt>
      <trkpt lat="46.73029" lon="-2.38486">
        <ele>-4.67</ele>
        <time>2018-04-03T13:17:16Z</time>
      </trkpt>
      <trkpt lat="46.73025" lon="-2.38495">
        <ele>-4.67</ele>
        <time>2018-04-03T13:17:24Z</time>
      </trkpt>
      <trkpt lat="46.73023" lon="-2.38498">
        <ele>-4.67</ele>
        <time>2018-04-03T13:17:27Z</time>
      </trkpt>
      <trkpt lat="46.73026" lon="-2.38504">
        <ele>-4.67</ele>
        <time>2018-04-03T13:17:32Z</time>
      </trkpt>
      <trkpt lat="46.73027" lon="-2.38513">
        <ele>-4.19</ele>
        <time>2018-04-03T13:17:40Z</time>
      </trkpt>
      <trkpt lat="46.73023" lon="-2.38526">
        <ele>-2.75</ele>
        <time>2018-04-03T13:17:52Z</time>
      </trkpt>
      <trkpt lat="46.73021" lon="-2.38532">
        <ele>-2.75</ele>
        <time>2018-04-03T13:17:57Z</time>
      </trkpt>
      <trkpt lat="46.73021" lon="-2.38535">
        <ele>-2.27</ele>
        <time>2018-04-03T13:17:59Z</time>
      </trkpt>
      <trkpt lat="46.73021" lon="-2.38546">
        <ele>-1.79</ele>
        <time>2018-04-03T13:18:06Z</time>
      </trkpt>
      <trkpt lat="46.73019" lon="-2.38558">
        <ele>-0.82</ele>
        <time>2018-04-03T13:18:14Z</time>
      </trkpt>
      <trkpt lat="46.73016" lon="-2.38566">
        <ele>-1.3</ele>
        <time>2018-04-03T13:18:21Z</time>
      </trkpt>
      <trkpt lat="46.73014" lon="-2.38574">
        <ele>-1.3</ele>
        <time>2018-04-03T13:18:37Z</time>
      </trkpt>
      <trkpt lat="46.73014" lon="-2.38574">
        <ele>-1.3</ele>
        <time>2018-04-03T13:18:38Z</time>
      </trkpt>
      <trkpt lat="46.73007" lon="-2.38578">
        <ele>-2.27</ele>
        <time>2018-04-03T13:18:46Z</time>
      </trkpt>
      <trkpt lat="46.73005" lon="-2.3858">
        <ele>-2.27</ele>
        <time>2018-04-03T13:18:48Z</time>
      </trkpt>
      <trkpt lat="46.73003" lon="-2.38581">
        <ele>-2.27</ele>
        <time>2018-04-03T13:18:50Z</time>
      </trkpt>
      <trkpt lat="46.72998" lon="-2.38585">
        <ele>-1.79</ele>
        <time>2018-04-03T13:18:55Z</time>
      </trkpt>
      <trkpt lat="46.72997" lon="-2.38587">
        <ele>-1.79</ele>
        <time>2018-04-03T13:18:57Z</time>
      </trkpt>
      <trkpt lat="46.72995" lon="-2.38589">
        <ele>-1.79</ele>
        <time>2018-04-03T13:18:59Z</time>
      </trkpt>
      <trkpt lat="46.72994" lon="-2.38592">
        <ele>-1.79</ele>
        <time>2018-04-03T13:19:01Z</time>
      </trkpt>
      <trkpt lat="46.72986" lon="-2.38608">
        <ele>0.14</ele>
        <time>2018-04-03T13:19:15Z</time>
      </trkpt>
      <trkpt lat="46.72984" lon="-2.38612">
        <ele>0.62</ele>
        <time>2018-04-03T13:19:24Z</time>
      </trkpt>
      <trkpt lat="46.72983" lon="-2.38615">
        <ele>0.62</ele>
        <time>2018-04-03T13:19:26Z</time>
      </trkpt>
      <trkpt lat="46.7298" lon="-2.38624">
        <ele>1.1</ele>
        <time>2018-04-03T13:19:32Z</time>
      </trkpt>
      <trkpt lat="46.72979" lon="-2.3863">
        <ele>0.62</ele>
        <time>2018-04-03T13:19:36Z</time>
      </trkpt>
      <trkpt lat="46.72976" lon="-2.38644">
        <ele>0.14</ele>
        <time>2018-04-03T13:19:45Z</time>
      </trkpt>
      <trkpt lat="46.72973" lon="-2.38653">
        <ele>-0.34</ele>
        <time>2018-04-03T13:19:52Z</time>
      </trkpt>
      <trkpt lat="46.7297" lon="-2.3866">
        <ele>0.14</ele>
        <time>2018-04-03T13:19:57Z</time>
      </trkpt>
      <trkpt lat="46.7296" lon="-2.38674">
        <ele>-0.82</ele>
        <time>2018-04-03T13:20:11Z</time>
      </trkpt>
      <trkpt lat="46.72947" lon="-2.38682">
        <ele>-2.75</ele>
        <time>2018-04-03T13:20:26Z</time>
      </trkpt>
      <trkpt lat="46.72945" lon="-2.38684">
        <ele>-2.75</ele>
        <time>2018-04-03T13:20:28Z</time>
      </trkpt>
      <trkpt lat="46.72933" lon="-2.38691">
        <ele>-3.23</ele>
        <time>2018-04-03T13:20:40Z</time>
      </trkpt>
      <trkpt lat="46.72922" lon="-2.38697">
        <ele>-1.79</ele>
        <time>2018-04-03T13:20:52Z</time>
      </trkpt>
      <trkpt lat="46.72913" lon="-2.38698">
        <ele>-1.3</ele>
        <time>2018-04-03T13:21:02Z</time>
      </trkpt>
      <trkpt lat="46.7291" lon="-2.38699">
        <ele>-1.79</ele>
        <time>2018-04-03T13:21:05Z</time>
      </trkpt>
      <trkpt lat="46.72905" lon="-2.387">
        <ele>-2.27</ele>
        <time>2018-04-03T13:21:10Z</time>
      </trkpt>
      <trkpt lat="46.72899" lon="-2.38701">
        <ele>-1.79</ele>
        <time>2018-04-03T13:21:22Z</time>
      </trkpt>
      <trkpt lat="46.72898" lon="-2.38701">
        <ele>-1.3</ele>
        <time>2018-04-03T13:21:27Z</time>
      </trkpt>
      <trkpt lat="46.72895" lon="-2.38701">
        <ele>-1.3</ele>
        <time>2018-04-03T13:21:30Z</time>
      </trkpt>
      <trkpt lat="46.72885" lon="-2.38697">
        <ele>-1.3</ele>
        <time>2018-04-03T13:21:39Z</time>
      </trkpt>
      <trkpt lat="46.72875" lon="-2.38691">
        <ele>-0.82</ele>
        <time>2018-04-03T13:21:53Z</time>
      </trkpt>
      <trkpt lat="46.72874" lon="-2.3869">
        <ele>-0.34</ele>
        <time>2018-04-03T13:22:10Z</time>
      </trkpt>
      <trkpt lat="46.72871" lon="-2.38688">
        <ele>0.14</ele>
        <time>2018-04-03T13:22:13Z</time>
      </trkpt>
      <trkpt lat="46.72856" lon="-2.38676">
        <ele>-0.34</ele>
        <time>2018-04-03T13:22:27Z</time>
      </trkpt>
      <trkpt lat="46.72852" lon="-2.38672">
        <ele>0.14</ele>
        <time>2018-04-03T13:22:31Z</time>
      </trkpt>
      <trkpt lat="46.72836" lon="-2.38667">
        <ele>-0.34</ele>
        <time>2018-04-03T13:22:45Z</time>
      </trkpt>
      <trkpt lat="46.72829" lon="-2.38665">
        <ele>0.14</ele>
        <time>2018-04-03T13:22:51Z</time>
      </trkpt>
      <trkpt lat="46.72815" lon="-2.3866">
        <ele>-0.34</ele>
        <time>2018-04-03T13:23:05Z</time>
      </trkpt>
      <trkpt lat="46.72814" lon="-2.3866">
        <ele>-0.34</ele>
        <time>2018-04-03T13:23:06Z</time>
      </trkpt>
      <trkpt lat="46.72807" lon="-2.38654">
        <ele>-0.34</ele>
        <time>2018-04-03T13:23:13Z</time>
      </trkpt>
      <trkpt lat="46.72793" lon="-2.3866">
        <ele>-2.75</ele>
        <time>2018-04-03T13:23:28Z</time>
      </trkpt>
      <trkpt lat="46.72784" lon="-2.38666">
        <ele>-3.23</ele>
        <time>2018-04-03T13:23:39Z</time>
      </trkpt>
      <trkpt lat="46.72781" lon="-2.38668">
        <ele>-4.67</ele>
        <time>2018-04-03T13:23:55Z</time>
      </trkpt>
      <trkpt lat="46.72779" lon="-2.38672">
        <ele>-4.19</ele>
        <time>2018-04-03T13:24:05Z</time>
      </trkpt>
      <trkpt lat="46.72777" lon="-2.38673">
        <ele>-3.71</ele>
        <time>2018-04-03T13:24:23Z</time>
      </trkpt>
      <trkpt lat="46.72775" lon="-2.38678">
        <ele>-3.23</ele>
        <time>2018-04-03T13:24:34Z</time>
      </trkpt>
      <trkpt lat="46.72777" lon="-2.38681">
        <ele>-3.71</ele>
        <time>2018-04-03T13:24:50Z</time>
      </trkpt>
      <trkpt lat="46.72779" lon="-2.38682">
        <ele>-3.71</ele>
        <time>2018-04-03T13:25:10Z</time>
      </trkpt>
      <trkpt lat="46.7278" lon="-2.38683">
        <ele>-4.19</ele>
        <time>2018-04-03T13:25:34Z</time>
      </trkpt>
      <trkpt lat="46.72781" lon="-2.38683">
        <ele>-3.71</ele>
        <time>2018-04-03T13:25:54Z</time>
      </trkpt>
      <trkpt lat="46.72782" lon="-2.38683">
        <ele>-3.71</ele>
        <time>2018-04-03T13:26:18Z</time>
      </trkpt>
      <trkpt lat="46.7278" lon="-2.38685">
        <ele>-4.67</ele>
        <time>2018-04-03T13:26:31Z</time>
      </trkpt>
      <trkpt lat="46.72782" lon="-2.38686">
        <ele>-4.67</ele>
        <time>2018-04-03T13:26:55Z</time>
      </trkpt>
      <trkpt lat="46.72781" lon="-2.38686">
        <ele>-3.71</ele>
        <time>2018-04-03T13:27:11Z</time>
      </trkpt>
      <trkpt lat="46.72781" lon="-2.38685">
        <ele>-3.23</ele>
        <time>2018-04-03T13:27:25Z</time>
      </trkpt>
      <trkpt lat="46.72781" lon="-2.38686">
        <ele>-3.71</ele>
        <time>2018-04-03T13:27:41Z</time>
      </trkpt>
      <trkpt lat="46.72781" lon="-2.38686">
        <ele>-3.23</ele>
        <time>2018-04-03T13:28:00Z</time>
      </trkpt>
      <trkpt lat="46.72783" lon="-2.38689">
        <ele>-3.71</ele>
        <time>2018-04-03T13:28:15Z</time>
      </trkpt>
      <trkpt lat="46.72783" lon="-2.38688">
        <ele>-4.19</ele>
        <time>2018-04-03T13:28:32Z</time>
      </trkpt>
      <trkpt lat="46.72782" lon="-2.38689">
        <ele>-3.71</ele>
        <time>2018-04-03T13:28:56Z</time>
      </trkpt>
      <trkpt lat="46.72781" lon="-2.38689">
        <ele>-4.19</ele>
        <time>2018-04-03T13:29:15Z</time>
      </trkpt>
      <trkpt lat="46.72782" lon="-2.38688">
        <ele>-4.67</ele>
        <time>2018-04-03T13:29:27Z</time>
      </trkpt>
      <trkpt lat="46.72782" lon="-2.38689">
        <ele>-4.67</ele>
        <time>2018-04-03T13:29:41Z</time>
      </trkpt>
      <trkpt lat="46.72782" lon="-2.38688">
        <ele>-3.71</ele>
        <time>2018-04-03T13:29:51Z</time>
      </trkpt>
      <trkpt lat="46.72782" lon="-2.38688">
        <ele>-3.23</ele>
        <time>2018-04-03T13:30:14Z</time>
      </trkpt>
      <trkpt lat="46.7278" lon="-2.38688">
        <ele>-3.23</ele>
        <time>2018-04-03T13:30:33Z</time>
      </trkpt>
      <trkpt lat="46.72771" lon="-2.38689">
        <ele>-3.71</ele>
        <time>2018-04-03T13:30:45Z</time>
      </trkpt>
      <trkpt lat="46.72769" lon="-2.38688">
        <ele>-4.19</ele>
        <time>2018-04-03T13:30:58Z</time>
      </trkpt>
      <trkpt lat="46.72768" lon="-2.38689">
        <ele>-4.19</ele>
        <time>2018-04-03T13:30:59Z</time>
      </trkpt>
      <trkpt lat="46.72764" lon="-2.38694">
        <ele>-4.67</ele>
        <time>2018-04-03T13:31:13Z</time>
      </trkpt>
      <trkpt lat="46.72761" lon="-2.38695">
        <ele>-4.19</ele>
        <time>2018-04-03T13:31:18Z</time>
      </trkpt>
      <trkpt lat="46.72755" lon="-2.38705">
        <ele>-2.75</ele>
        <time>2018-04-03T13:31:26Z</time>
      </trkpt>
      <trkpt lat="46.72754" lon="-2.38705">
        <ele>-2.75</ele>
        <time>2018-04-03T13:31:31Z</time>
      </trkpt>
      <trkpt lat="46.72753" lon="-2.38706">
        <ele>-2.75</ele>
        <time>2018-04-03T13:31:33Z</time>
      </trkpt>
      <trkpt lat="46.72744" lon="-2.38715">
        <ele>-2.75</ele>
        <time>2018-04-03T13:31:45Z</time>
      </trkpt>
      <trkpt lat="46.72743" lon="-2.38715">
        <ele>-3.23</ele>
        <time>2018-04-03T13:31:47Z</time>
      </trkpt>
      <trkpt lat="46.72742" lon="-2.38721">
        <ele>-3.71</ele>
        <time>2018-04-03T13:31:54Z</time>
      </trkpt>
      <trkpt lat="46.72737" lon="-2.38731">
        <ele>-3.71</ele>
        <time>2018-04-03T13:32:02Z</time>
      </trkpt>
      <trkpt lat="46.72734" lon="-2.38736">
        <ele>-3.23</ele>
        <time>2018-04-03T13:32:15Z</time>
      </trkpt>
      <trkpt lat="46.72733" lon="-2.38737">
        <ele>-3.23</ele>
        <time>2018-04-03T13:32:16Z</time>
      </trkpt>
      <trkpt lat="46.72725" lon="-2.38751">
        <ele>-3.23</ele>
        <time>2018-04-03T13:32:29Z</time>
      </trkpt>
      <trkpt lat="46.72721" lon="-2.38761">
        <ele>-3.23</ele>
        <time>2018-04-03T13:32:36Z</time>
      </trkpt>
      <trkpt lat="46.72719" lon="-2.38763">
        <ele>-3.23</ele>
        <time>2018-04-03T13:32:38Z</time>
      </trkpt>
      <trkpt lat="46.72716" lon="-2.38767">
        <ele>-3.23</ele>
        <time>2018-04-03T13:32:42Z</time>
      </trkpt>
      <trkpt lat="46.72716" lon="-2.3877">
        <ele>-3.71</ele>
        <time>2018-04-03T13:32:44Z</time>
      </trkpt>
      <trkpt lat="46.72713" lon="-2.3878">
        <ele>-5.63</ele>
        <time>2018-04-03T13:32:58Z</time>
      </trkpt>
      <trkpt lat="46.72709" lon="-2.38783">
        <ele>-4.19</ele>
        <time>2018-04-03T13:33:08Z</time>
      </trkpt>
      <trkpt lat="46.72709" lon="-2.38783">
        <ele>-4.19</ele>
        <time>2018-04-03T13:33:10Z</time>
      </trkpt>
      <trkpt lat="46.72701" lon="-2.38783">
        <ele>-2.75</ele>
        <time>2018-04-03T13:33:21Z</time>
      </trkpt>
      <trkpt lat="46.72699" lon="-2.3879">
        <ele>-2.75</ele>
        <time>2018-04-03T13:33:31Z</time>
      </trkpt>
      <trkpt lat="46.72696" lon="-2.38798">
        <ele>-0.34</ele>
        <time>2018-04-03T13:33:42Z</time>
      </trkpt>
      <trkpt lat="46.72695" lon="-2.38799">
        <ele>0.14</ele>
        <time>2018-04-03T13:33:44Z</time>
      </trkpt>
      <trkpt lat="46.72694" lon="-2.38804">
        <ele>0.62</ele>
        <time>2018-04-03T13:33:47Z</time>
      </trkpt>
      <trkpt lat="46.72693" lon="-2.38812">
        <ele>1.58</ele>
        <time>2018-04-03T13:33:52Z</time>
      </trkpt>
      <trkpt lat="46.72691" lon="-2.38824">
        <ele>0.14</ele>
        <time>2018-04-03T13:34:03Z</time>
      </trkpt>
      <trkpt lat="46.72688" lon="-2.38832">
        <ele>0.14</ele>
        <time>2018-04-03T13:34:14Z</time>
      </trkpt>
      <trkpt lat="46.72688" lon="-2.38833">
        <ele>0.14</ele>
        <time>2018-04-03T13:34:16Z</time>
      </trkpt>
      <trkpt lat="46.72693" lon="-2.38841">
        <ele>0.62</ele>
        <time>2018-04-03T13:34:23Z</time>
      </trkpt>
      <trkpt lat="46.72702" lon="-2.38858">
        <ele>1.1</ele>
        <time>2018-04-03T13:34:36Z</time>
      </trkpt>
      <trkpt lat="46.72711" lon="-2.38872">
        <ele>2.54</ele>
        <time>2018-04-03T13:34:48Z</time>
      </trkpt>
      <trkpt lat="46.72717" lon="-2.38883">
        <ele>2.54</ele>
        <time>2018-04-03T13:35:00Z</time>
      </trkpt>
      <trkpt lat="46.72719" lon="-2.38886">
        <ele>3.5</ele>
        <time>2018-04-03T13:35:13Z</time>
      </trkpt>
      <trkpt lat="46.72719" lon="-2.38886">
        <ele>3.5</ele>
        <time>2018-04-03T13:35:16Z</time>
      </trkpt>
      <trkpt lat="46.72719" lon="-2.38894">
        <ele>3.02</ele>
        <time>2018-04-03T13:35:21Z</time>
      </trkpt>
      <trkpt lat="46.72718" lon="-2.38897">
        <ele>2.54</ele>
        <time>2018-04-03T13:35:23Z</time>
      </trkpt>
      <trkpt lat="46.72716" lon="-2.38898">
        <ele>3.02</ele>
        <time>2018-04-03T13:35:25Z</time>
      </trkpt>
      <trkpt lat="46.72712" lon="-2.38904">
        <ele>3.5</ele>
        <time>2018-04-03T13:35:29Z</time>
      </trkpt>
      <trkpt lat="46.72711" lon="-2.38918">
        <ele>2.54</ele>
        <time>2018-04-03T13:35:40Z</time>
      </trkpt>
      <trkpt lat="46.72714" lon="-2.38928">
        <ele>3.02</ele>
        <time>2018-04-03T13:35:50Z</time>
      </trkpt>
      <trkpt lat="46.72717" lon="-2.38936">
        <ele>4.46</ele>
        <time>2018-04-03T13:35:59Z</time>
      </trkpt>
      <trkpt lat="46.72718" lon="-2.3895">
        <ele>3.98</ele>
        <time>2018-04-03T13:36:16Z</time>
      </trkpt>
      <trkpt lat="46.72718" lon="-2.38975">
        <ele>1.58</ele>
        <time>2018-04-03T13:36:33Z</time>
      </trkpt>
      <trkpt lat="46.72716" lon="-2.38992">
        <ele>0.62</ele>
        <time>2018-04-03T13:36:42Z</time>
      </trkpt>
      <trkpt lat="46.72714" lon="-2.38998">
        <ele>0.62</ele>
        <time>2018-04-03T13:36:46Z</time>
      </trkpt>
      <trkpt lat="46.72709" lon="-2.39016">
        <ele>0.14</ele>
        <time>2018-04-03T13:36:57Z</time>
      </trkpt>
      <trkpt lat="46.72706" lon="-2.39024">
        <ele>0.62</ele>
        <time>2018-04-03T13:37:08Z</time>
      </trkpt>
      <trkpt lat="46.72706" lon="-2.39024">
        <ele>1.1</ele>
        <time>2018-04-03T13:37:14Z</time>
      </trkpt>
      <trkpt lat="46.72703" lon="-2.39037">
        <ele>2.06</ele>
        <time>2018-04-03T13:37:27Z</time>
      </trkpt>
      <trkpt lat="46.72703" lon="-2.39037">
        <ele>2.06</ele>
        <time>2018-04-03T13:37:28Z</time>
      </trkpt>
      <trkpt lat="46.727" lon="-2.39053">
        <ele>2.54</ele>
        <time>2018-04-03T13:37:38Z</time>
      </trkpt>
      <trkpt lat="46.72698" lon="-2.39066">
        <ele>1.58</ele>
        <time>2018-04-03T13:37:46Z</time>
      </trkpt>
      <trkpt lat="46.72698" lon="-2.39071">
        <ele>0.62</ele>
        <time>2018-04-03T13:37:49Z</time>
      </trkpt>
      <trkpt lat="46.72696" lon="-2.39086">
        <ele>2.54</ele>
        <time>2018-04-03T13:38:03Z</time>
      </trkpt>
      <trkpt lat="46.72696" lon="-2.39086">
        <ele>2.06</ele>
        <time>2018-04-03T13:38:21Z</time>
      </trkpt>
      <trkpt lat="46.72696" lon="-2.39086">
        <ele>2.06</ele>
        <time>2018-04-03T13:38:24Z</time>
      </trkpt>
      <trkpt lat="46.72696" lon="-2.39089">
        <ele>2.06</ele>
        <time>2018-04-03T13:38:26Z</time>
      </trkpt>
      <trkpt lat="46.72691" lon="-2.39108">
        <ele>2.54</ele>
        <time>2018-04-03T13:38:39Z</time>
      </trkpt>
      <trkpt lat="46.72687" lon="-2.39114">
        <ele>3.02</ele>
        <time>2018-04-03T13:38:45Z</time>
      </trkpt>
      <trkpt lat="46.72685" lon="-2.39131">
        <ele>3.02</ele>
        <time>2018-04-03T13:38:55Z</time>
      </trkpt>
      <trkpt lat="46.72683" lon="-2.39154">
        <ele>2.54</ele>
        <time>2018-04-03T13:39:10Z</time>
      </trkpt>
      <trkpt lat="46.72684" lon="-2.39155">
        <ele>1.58</ele>
        <time>2018-04-03T13:39:23Z</time>
      </trkpt>
      <trkpt lat="46.72684" lon="-2.39162">
        <ele>1.58</ele>
        <time>2018-04-03T13:39:27Z</time>
      </trkpt>
      <trkpt lat="46.72684" lon="-2.39186">
        <ele>1.1</ele>
        <time>2018-04-03T13:39:41Z</time>
      </trkpt>
      <trkpt lat="46.72683" lon="-2.39194">
        <ele>0.62</ele>
        <time>2018-04-03T13:39:46Z</time>
      </trkpt>
      <trkpt lat="46.72683" lon="-2.392">
        <ele>0.62</ele>
        <time>2018-04-03T13:39:49Z</time>
      </trkpt>
      <trkpt lat="46.72682" lon="-2.39221">
        <ele>1.58</ele>
        <time>2018-04-03T13:40:02Z</time>
      </trkpt>
      <trkpt lat="46.72682" lon="-2.39229">
        <ele>1.58</ele>
        <time>2018-04-03T13:40:13Z</time>
      </trkpt>
      <trkpt lat="46.72682" lon="-2.39235">
        <ele>1.58</ele>
        <time>2018-04-03T13:40:19Z</time>
      </trkpt>
      <trkpt lat="46.72678" lon="-2.39249">
        <ele>3.02</ele>
        <time>2018-04-03T13:40:28Z</time>
      </trkpt>
      <trkpt lat="46.72673" lon="-2.39257">
        <ele>3.02</ele>
        <time>2018-04-03T13:40:37Z</time>
      </trkpt>
      <trkpt lat="46.7267" lon="-2.39263">
        <ele>3.02</ele>
        <time>2018-04-03T13:40:43Z</time>
      </trkpt>
      <trkpt lat="46.72658" lon="-2.39281">
        <ele>5.42</ele>
        <time>2018-04-03T13:40:57Z</time>
      </trkpt>
      <trkpt lat="46.72654" lon="-2.39288">
        <ele>5.42</ele>
        <time>2018-04-03T13:41:05Z</time>
      </trkpt>
      <trkpt lat="46.72654" lon="-2.39291">
        <ele>4.94</ele>
        <time>2018-04-03T13:41:07Z</time>
      </trkpt>
      <trkpt lat="46.72647" lon="-2.39308">
        <ele>5.91</ele>
        <time>2018-04-03T13:41:20Z</time>
      </trkpt>
      <trkpt lat="46.72641" lon="-2.39323">
        <ele>6.39</ele>
        <time>2018-04-03T13:41:33Z</time>
      </trkpt>
      <trkpt lat="46.72634" lon="-2.39341">
        <ele>4.94</ele>
        <time>2018-04-03T13:41:45Z</time>
      </trkpt>
      <trkpt lat="46.72629" lon="-2.39361">
        <ele>3.98</ele>
        <time>2018-04-03T13:42:00Z</time>
      </trkpt>
      <trkpt lat="46.72626" lon="-2.39381">
        <ele>3.5</ele>
        <time>2018-04-03T13:42:14Z</time>
      </trkpt>
      <trkpt lat="46.72626" lon="-2.39383">
        <ele>3.02</ele>
        <time>2018-04-03T13:42:34Z</time>
      </trkpt>
      <trkpt lat="46.72626" lon="-2.39383">
        <ele>2.06</ele>
        <time>2018-04-03T13:42:57Z</time>
      </trkpt>
      <trkpt lat="46.72627" lon="-2.39383">
        <ele>3.02</ele>
        <time>2018-04-03T13:43:21Z</time>
      </trkpt>
      <trkpt lat="46.72626" lon="-2.39383">
        <ele>3.02</ele>
        <time>2018-04-03T13:43:33Z</time>
      </trkpt>
      <trkpt lat="46.72617" lon="-2.39396">
        <ele>3.02</ele>
        <time>2018-04-03T13:43:47Z</time>
      </trkpt>
      <trkpt lat="46.72617" lon="-2.39397">
        <ele>2.54</ele>
        <time>2018-04-03T13:43:48Z</time>
      </trkpt>
      <trkpt lat="46.72616" lon="-2.39411">
        <ele>2.54</ele>
        <time>2018-04-03T13:44:02Z</time>
      </trkpt>
      <trkpt lat="46.72615" lon="-2.39416">
        <ele>2.54</ele>
        <time>2018-04-03T13:44:10Z</time>
      </trkpt>
      <trkpt lat="46.72614" lon="-2.39426">
        <ele>2.06</ele>
        <time>2018-04-03T13:44:17Z</time>
      </trkpt>
      <trkpt lat="46.72613" lon="-2.39442">
        <ele>2.54</ele>
        <time>2018-04-03T13:44:25Z</time>
      </trkpt>
      <trkpt lat="46.72607" lon="-2.39467">
        <ele>1.58</ele>
        <time>2018-04-03T13:44:39Z</time>
      </trkpt>
      <trkpt lat="46.72605" lon="-2.39476">
        <ele>1.1</ele>
        <time>2018-04-03T13:44:45Z</time>
      </trkpt>
      <trkpt lat="46.72602" lon="-2.3948">
        <ele>1.1</ele>
        <time>2018-04-03T13:44:48Z</time>
      </trkpt>
      <trkpt lat="46.72601" lon="-2.39487">
        <ele>1.58</ele>
        <time>2018-04-03T13:44:52Z</time>
      </trkpt>
      <trkpt lat="46.72599" lon="-2.39494">
        <ele>1.1</ele>
        <time>2018-04-03T13:44:57Z</time>
      </trkpt>
      <trkpt lat="46.72595" lon="-2.395">
        <ele>1.1</ele>
        <time>2018-04-03T13:45:02Z</time>
      </trkpt>
      <trkpt lat="46.72595" lon="-2.39505">
        <ele>1.58</ele>
        <time>2018-04-03T13:45:06Z</time>
      </trkpt>
      <trkpt lat="46.72587" lon="-2.39521">
        <ele>0.62</ele>
        <time>2018-04-03T13:45:19Z</time>
      </trkpt>
      <trkpt lat="46.72583" lon="-2.39527">
        <ele>1.1</ele>
        <time>2018-04-03T13:45:24Z</time>
      </trkpt>
      <trkpt lat="46.72581" lon="-2.39532">
        <ele>0.62</ele>
        <time>2018-04-03T13:45:27Z</time>
      </trkpt>
      <trkpt lat="46.72579" lon="-2.39533">
        <ele>0.14</ele>
        <time>2018-04-03T13:45:29Z</time>
      </trkpt>
      <trkpt lat="46.72573" lon="-2.3955">
        <ele>1.1</ele>
        <time>2018-04-03T13:45:41Z</time>
      </trkpt>
      <trkpt lat="46.72568" lon="-2.39558">
        <ele>1.58</ele>
        <time>2018-04-03T13:45:48Z</time>
      </trkpt>
      <trkpt lat="46.72566" lon="-2.39564">
        <ele>1.58</ele>
        <time>2018-04-03T13:45:52Z</time>
      </trkpt>
      <trkpt lat="46.72566" lon="-2.39569">
        <ele>0.62</ele>
        <time>2018-04-03T13:45:56Z</time>
      </trkpt>
      <trkpt lat="46.72567" lon="-2.39571">
        <ele>0.62</ele>
        <time>2018-04-03T13:45:58Z</time>
      </trkpt>
      <trkpt lat="46.72568" lon="-2.39589">
        <ele>-0.34</ele>
        <time>2018-04-03T13:46:10Z</time>
      </trkpt>
      <trkpt lat="46.7256" lon="-2.39605">
        <ele>0.62</ele>
        <time>2018-04-03T13:46:24Z</time>
      </trkpt>
      <trkpt lat="46.72557" lon="-2.39608">
        <ele>0.62</ele>
        <time>2018-04-03T13:46:27Z</time>
      </trkpt>
      <trkpt lat="46.72549" lon="-2.39622">
        <ele>-2.27</ele>
        <time>2018-04-03T13:46:41Z</time>
      </trkpt>
      <trkpt lat="46.72548" lon="-2.39627">
        <ele>-2.27</ele>
        <time>2018-04-03T13:46:45Z</time>
      </trkpt>
      <trkpt lat="46.72547" lon="-2.39634">
        <ele>-0.82</ele>
        <time>2018-04-03T13:46:57Z</time>
      </trkpt>
      <trkpt lat="46.72543" lon="-2.39635">
        <ele>-1.3</ele>
        <time>2018-04-03T13:47:00Z</time>
      </trkpt>
      <trkpt lat="46.72539" lon="-2.39638">
        <ele>-0.82</ele>
        <time>2018-04-03T13:47:03Z</time>
      </trkpt>
      <trkpt lat="46.72536" lon="-2.3964">
        <ele>-0.82</ele>
        <time>2018-04-03T13:47:06Z</time>
      </trkpt>
      <trkpt lat="46.72533" lon="-2.39658">
        <ele>1.1</ele>
        <time>2018-04-03T13:47:19Z</time>
      </trkpt>
      <trkpt lat="46.72534" lon="-2.39667">
        <ele>2.06</ele>
        <time>2018-04-03T13:47:26Z</time>
      </trkpt>
      <trkpt lat="46.72537" lon="-2.39689">
        <ele>3.5</ele>
        <time>2018-04-03T13:47:43Z</time>
      </trkpt>
      <trkpt lat="46.72536" lon="-2.3969">
        <ele>3.02</ele>
        <time>2018-04-03T13:48:08Z</time>
      </trkpt>
      <trkpt lat="46.72536" lon="-2.3969">
        <ele>3.02</ele>
        <time>2018-04-03T13:48:26Z</time>
      </trkpt>
      <trkpt lat="46.72536" lon="-2.39691">
        <ele>2.54</ele>
        <time>2018-04-03T13:48:51Z</time>
      </trkpt>
      <trkpt lat="46.72536" lon="-2.39691">
        <ele>2.54</ele>
        <time>2018-04-03T13:49:09Z</time>
      </trkpt>
      <trkpt lat="46.72536" lon="-2.39691">
        <ele>2.06</ele>
        <time>2018-04-03T13:49:33Z</time>
      </trkpt>
      <trkpt lat="46.72536" lon="-2.39691">
        <ele>2.06</ele>
        <time>2018-04-03T13:50:00Z</time>
      </trkpt>
      <trkpt lat="46.7254" lon="-2.39707">
        <ele>1.1</ele>
        <time>2018-04-03T13:50:15Z</time>
      </trkpt>
      <trkpt lat="46.72543" lon="-2.39712">
        <ele>1.1</ele>
        <time>2018-04-03T13:50:21Z</time>
      </trkpt>
      <trkpt lat="46.72545" lon="-2.39717">
        <ele>1.1</ele>
        <time>2018-04-03T13:50:25Z</time>
      </trkpt>
      <trkpt lat="46.72548" lon="-2.39725">
        <ele>1.1</ele>
        <time>2018-04-03T13:50:31Z</time>
      </trkpt>
      <trkpt lat="46.7255" lon="-2.39739">
        <ele>1.1</ele>
        <time>2018-04-03T13:50:44Z</time>
      </trkpt>
      <trkpt lat="46.72552" lon="-2.39747">
        <ele>0.62</ele>
        <time>2018-04-03T13:50:51Z</time>
      </trkpt>
      <trkpt lat="46.72559" lon="-2.39766">
        <ele>0.62</ele>
        <time>2018-04-03T13:51:06Z</time>
      </trkpt>
      <trkpt lat="46.72561" lon="-2.39775">
        <ele>0.62</ele>
        <time>2018-04-03T13:51:14Z</time>
      </trkpt>
      <trkpt lat="46.72564" lon="-2.39781">
        <ele>1.58</ele>
        <time>2018-04-03T13:51:18Z</time>
      </trkpt>
      <trkpt lat="46.72566" lon="-2.39787">
        <ele>2.06</ele>
        <time>2018-04-03T13:51:22Z</time>
      </trkpt>
      <trkpt lat="46.72575" lon="-2.39792">
        <ele>2.54</ele>
        <time>2018-04-03T13:51:37Z</time>
      </trkpt>
      <trkpt lat="46.72575" lon="-2.39792">
        <ele>2.06</ele>
        <time>2018-04-03T13:51:47Z</time>
      </trkpt>
      <trkpt lat="46.72569" lon="-2.39805">
        <ele>0.62</ele>
        <time>2018-04-03T13:51:56Z</time>
      </trkpt>
      <trkpt lat="46.7257" lon="-2.39821">
        <ele>1.1</ele>
        <time>2018-04-03T13:52:09Z</time>
      </trkpt>
      <trkpt lat="46.72569" lon="-2.3983">
        <ele>0.62</ele>
        <time>2018-04-03T13:52:15Z</time>
      </trkpt>
      <trkpt lat="46.72571" lon="-2.39836">
        <ele>0.62</ele>
        <time>2018-04-03T13:52:19Z</time>
      </trkpt>
      <trkpt lat="46.72573" lon="-2.39839">
        <ele>0.14</ele>
        <time>2018-04-03T13:52:22Z</time>
      </trkpt>
      <trkpt lat="46.72575" lon="-2.39845">
        <ele>-0.82</ele>
        <time>2018-04-03T13:52:33Z</time>
      </trkpt>
      <trkpt lat="46.72575" lon="-2.39846">
        <ele>-0.34</ele>
        <time>2018-04-03T13:52:37Z</time>
      </trkpt>
      <trkpt lat="46.72576" lon="-2.39849">
        <ele>-0.34</ele>
        <time>2018-04-03T13:52:39Z</time>
      </trkpt>
      <trkpt lat="46.72576" lon="-2.39854">
        <ele>0.14</ele>
        <time>2018-04-03T13:52:42Z</time>
      </trkpt>
      <trkpt lat="46.72578" lon="-2.39856">
        <ele>-0.34</ele>
        <time>2018-04-03T13:52:44Z</time>
      </trkpt>
      <trkpt lat="46.72577" lon="-2.39863">
        <ele>1.1</ele>
        <time>2018-04-03T13:52:48Z</time>
      </trkpt>
      <trkpt lat="46.72578" lon="-2.39869">
        <ele>0.62</ele>
        <time>2018-04-03T13:52:53Z</time>
      </trkpt>
      <trkpt lat="46.72582" lon="-2.39878">
        <ele>1.58</ele>
        <time>2018-04-03T13:53:00Z</time>
      </trkpt>
      <trkpt lat="46.72582" lon="-2.39882">
        <ele>1.58</ele>
        <time>2018-04-03T13:53:02Z</time>
      </trkpt>
      <trkpt lat="46.72582" lon="-2.39886">
        <ele>1.1</ele>
        <time>2018-04-03T13:53:05Z</time>
      </trkpt>
      <trkpt lat="46.72581" lon="-2.39896">
        <ele>1.58</ele>
        <time>2018-04-03T13:53:12Z</time>
      </trkpt>
      <trkpt lat="46.72583" lon="-2.39905">
        <ele>0.14</ele>
        <time>2018-04-03T13:53:17Z</time>
      </trkpt>
      <trkpt lat="46.72587" lon="-2.39924">
        <ele>2.54</ele>
        <time>2018-04-03T13:53:29Z</time>
      </trkpt>
      <trkpt lat="46.72589" lon="-2.39932">
        <ele>2.06</ele>
        <time>2018-04-03T13:53:35Z</time>
      </trkpt>
      <trkpt lat="46.7259" lon="-2.39939">
        <ele>1.58</ele>
        <time>2018-04-03T13:53:40Z</time>
      </trkpt>
      <trkpt lat="46.72591" lon="-2.39942">
        <ele>1.58</ele>
        <time>2018-04-03T13:53:42Z</time>
      </trkpt>
      <trkpt lat="46.72599" lon="-2.39955">
        <ele>2.06</ele>
        <time>2018-04-03T13:53:54Z</time>
      </trkpt>
      <trkpt lat="46.72599" lon="-2.39958">
        <ele>2.54</ele>
        <time>2018-04-03T13:54:06Z</time>
      </trkpt>
      <trkpt lat="46.72599" lon="-2.39958">
        <ele>2.06</ele>
        <time>2018-04-03T13:54:10Z</time>
      </trkpt>
      <trkpt lat="46.72601" lon="-2.39967">
        <ele>2.54</ele>
        <time>2018-04-03T13:54:22Z</time>
      </trkpt>
      <trkpt lat="46.72601" lon="-2.39976">
        <ele>2.06</ele>
        <time>2018-04-03T13:54:35Z</time>
      </trkpt>
      <trkpt lat="46.72601" lon="-2.39977">
        <ele>1.58</ele>
        <time>2018-04-03T13:54:44Z</time>
      </trkpt>
      <trkpt lat="46.72601" lon="-2.39973">
        <ele>1.58</ele>
        <time>2018-04-03T13:54:48Z</time>
      </trkpt>
      <trkpt lat="46.72596" lon="-2.39972">
        <ele>2.06</ele>
        <time>2018-04-03T13:55:00Z</time>
      </trkpt>
      <trkpt lat="46.72596" lon="-2.3997">
        <ele>3.02</ele>
        <time>2018-04-03T13:55:20Z</time>
      </trkpt>
      <trkpt lat="46.72596" lon="-2.3997">
        <ele>3.02</ele>
        <time>2018-04-03T13:55:37Z</time>
      </trkpt>
      <trkpt lat="46.72601" lon="-2.39966">
        <ele>3.02</ele>
        <time>2018-04-03T13:55:51Z</time>
      </trkpt>
      <trkpt lat="46.72606" lon="-2.39958">
        <ele>2.54</ele>
        <time>2018-04-03T13:56:04Z</time>
      </trkpt>
      <trkpt lat="46.72606" lon="-2.39958">
        <ele>2.54</ele>
        <time>2018-04-03T13:56:20Z</time>
      </trkpt>
      <trkpt lat="46.72606" lon="-2.39959">
        <ele>2.54</ele>
        <time>2018-04-03T13:56:21Z</time>
      </trkpt>
      <trkpt lat="46.72605" lon="-2.39962">
        <ele>2.06</ele>
        <time>2018-04-03T13:56:32Z</time>
      </trkpt>
      <trkpt lat="46.72602" lon="-2.39963">
        <ele>2.54</ele>
        <time>2018-04-03T13:56:44Z</time>
      </trkpt>
      <trkpt lat="46.72602" lon="-2.39963">
        <ele>2.54</ele>
        <time>2018-04-03T13:56:57Z</time>
      </trkpt>
      <trkpt lat="46.72605" lon="-2.39961">
        <ele>3.02</ele>
        <time>2018-04-03T13:57:08Z</time>
      </trkpt>
      <trkpt lat="46.72605" lon="-2.39961">
        <ele>3.02</ele>
        <time>2018-04-03T13:57:31Z</time>
      </trkpt>
      <trkpt lat="46.72604" lon="-2.39962">
        <ele>3.5</ele>
        <time>2018-04-03T13:57:59Z</time>
      </trkpt>
      <trkpt lat="46.72604" lon="-2.39963">
        <ele>3.02</ele>
        <time>2018-04-03T13:58:17Z</time>
      </trkpt>
      <trkpt lat="46.72604" lon="-2.39963">
        <ele>3.5</ele>
        <time>2018-04-03T13:58:33Z</time>
      </trkpt>
      <trkpt lat="46.72602" lon="-2.39956">
        <ele>3.5</ele>
        <time>2018-04-03T13:58:39Z</time>
      </trkpt>
      <trkpt lat="46.72586" lon="-2.39952">
        <ele>3.98</ele>
        <time>2018-04-03T13:58:50Z</time>
      </trkpt>
      <trkpt lat="46.7258" lon="-2.39954">
        <ele>4.46</ele>
        <time>2018-04-03T13:59:05Z</time>
      </trkpt>
      <trkpt lat="46.7257" lon="-2.39954">
        <ele>3.5</ele>
        <time>2018-04-03T13:59:16Z</time>
      </trkpt>
      <trkpt lat="46.72563" lon="-2.39955">
        <ele>3.98</ele>
        <time>2018-04-03T13:59:28Z</time>
      </trkpt>
      <trkpt lat="46.72554" lon="-2.39952">
        <ele>5.42</ele>
        <time>2018-04-03T13:59:40Z</time>
      </trkpt>
      <trkpt lat="46.72546" lon="-2.39949">
        <ele>5.42</ele>
        <time>2018-04-03T13:59:48Z</time>
      </trkpt>
      <trkpt lat="46.72534" lon="-2.39937">
        <ele>5.42</ele>
        <time>2018-04-03T14:00:02Z</time>
      </trkpt>
      <trkpt lat="46.72527" lon="-2.39924">
        <ele>4.46</ele>
        <time>2018-04-03T14:00:12Z</time>
      </trkpt>
      <trkpt lat="46.72521" lon="-2.39917">
        <ele>3.5</ele>
        <time>2018-04-03T14:00:25Z</time>
      </trkpt>
      <trkpt lat="46.72519" lon="-2.39916">
        <ele>3.02</ele>
        <time>2018-04-03T14:00:27Z</time>
      </trkpt>
      <trkpt lat="46.72509" lon="-2.39911">
        <ele>3.5</ele>
        <time>2018-04-03T14:00:37Z</time>
      </trkpt>
      <trkpt lat="46.72504" lon="-2.39922">
        <ele>3.5</ele>
        <time>2018-04-03T14:00:45Z</time>
      </trkpt>
      <trkpt lat="46.72499" lon="-2.39928">
        <ele>3.5</ele>
        <time>2018-04-03T14:00:51Z</time>
      </trkpt>
      <trkpt lat="46.7249" lon="-2.39934">
        <ele>3.02</ele>
        <time>2018-04-03T14:01:04Z</time>
      </trkpt>
      <trkpt lat="46.7249" lon="-2.39933">
        <ele>2.54</ele>
        <time>2018-04-03T14:01:09Z</time>
      </trkpt>
      <trkpt lat="46.72486" lon="-2.39916">
        <ele>2.06</ele>
        <time>2018-04-03T14:01:20Z</time>
      </trkpt>
      <trkpt lat="46.72483" lon="-2.39908">
        <ele>2.54</ele>
        <time>2018-04-03T14:01:25Z</time>
      </trkpt>
      <trkpt lat="46.72471" lon="-2.39879">
        <ele>3.98</ele>
        <time>2018-04-03T14:01:43Z</time>
      </trkpt>
      <trkpt lat="46.72457" lon="-2.39865">
        <ele>5.42</ele>
        <time>2018-04-03T14:01:56Z</time>
      </trkpt>
      <trkpt lat="46.72453" lon="-2.39863">
        <ele>5.91</ele>
        <time>2018-04-03T14:02:00Z</time>
      </trkpt>
      <trkpt lat="46.72445" lon="-2.39858">
        <ele>3.02</ele>
        <time>2018-04-03T14:02:07Z</time>
      </trkpt>
      <trkpt lat="46.72429" lon="-2.39854">
        <ele>1.58</ele>
        <time>2018-04-03T14:02:20Z</time>
      </trkpt>
      <trkpt lat="46.72419" lon="-2.39855">
        <ele>0.62</ele>
        <time>2018-04-03T14:02:29Z</time>
      </trkpt>
      <trkpt lat="46.72413" lon="-2.39854">
        <ele>-0.34</ele>
        <time>2018-04-03T14:02:34Z</time>
      </trkpt>
      <trkpt lat="46.72409" lon="-2.39852">
        <ele>-0.34</ele>
        <time>2018-04-03T14:02:37Z</time>
      </trkpt>
      <trkpt lat="46.72402" lon="-2.39848">
        <ele>-1.79</ele>
        <time>2018-04-03T14:02:44Z</time>
      </trkpt>
      <trkpt lat="46.72399" lon="-2.39847">
        <ele>-2.27</ele>
        <time>2018-04-03T14:02:46Z</time>
      </trkpt>
      <trkpt lat="46.72394" lon="-2.39844">
        <ele>-2.75</ele>
        <time>2018-04-03T14:02:51Z</time>
      </trkpt>
      <trkpt lat="46.7238" lon="-2.39837">
        <ele>-1.79</ele>
        <time>2018-04-03T14:03:04Z</time>
      </trkpt>
      <trkpt lat="46.72376" lon="-2.39833">
        <ele>-1.3</ele>
        <time>2018-04-03T14:03:08Z</time>
      </trkpt>
      <trkpt lat="46.72365" lon="-2.39825">
        <ele>-0.82</ele>
        <time>2018-04-03T14:03:18Z</time>
      </trkpt>
      <trkpt lat="46.72361" lon="-2.39822">
        <ele>-0.82</ele>
        <time>2018-04-03T14:03:23Z</time>
      </trkpt>
      <trkpt lat="46.72356" lon="-2.39824">
        <ele>0.14</ele>
        <time>2018-04-03T14:03:27Z</time>
      </trkpt>
      <trkpt lat="46.72352" lon="-2.39825">
        <ele>0.62</ele>
        <time>2018-04-03T14:03:30Z</time>
      </trkpt>
      <trkpt lat="46.72342" lon="-2.39826">
        <ele>2.06</ele>
        <time>2018-04-03T14:03:39Z</time>
      </trkpt>
      <trkpt lat="46.72339" lon="-2.39825">
        <ele>2.54</ele>
        <time>2018-04-03T14:03:42Z</time>
      </trkpt>
      <trkpt lat="46.72337" lon="-2.3982">
        <ele>3.02</ele>
        <time>2018-04-03T14:03:46Z</time>
      </trkpt>
      <trkpt lat="46.72331" lon="-2.39807">
        <ele>2.54</ele>
        <time>2018-04-03T14:03:58Z</time>
      </trkpt>
      <trkpt lat="46.72329" lon="-2.39806">
        <ele>2.54</ele>
        <time>2018-04-03T14:04:00Z</time>
      </trkpt>
      <trkpt lat="46.72327" lon="-2.39803">
        <ele>2.54</ele>
        <time>2018-04-03T14:04:03Z</time>
      </trkpt>
      <trkpt lat="46.72325" lon="-2.39801">
        <ele>2.06</ele>
        <time>2018-04-03T14:04:05Z</time>
      </trkpt>
      <trkpt lat="46.72324" lon="-2.39799">
        <ele>2.54</ele>
        <time>2018-04-03T14:04:07Z</time>
      </trkpt>
      <trkpt lat="46.72318" lon="-2.39795">
        <ele>3.5</ele>
        <time>2018-04-03T14:04:14Z</time>
      </trkpt>
      <trkpt lat="46.72314" lon="-2.3979">
        <ele>4.94</ele>
        <time>2018-04-03T14:04:19Z</time>
      </trkpt>
      <trkpt lat="46.7231" lon="-2.3979">
        <ele>5.91</ele>
        <time>2018-04-03T14:04:23Z</time>
      </trkpt>
      <trkpt lat="46.72303" lon="-2.39788">
        <ele>6.87</ele>
        <time>2018-04-03T14:04:30Z</time>
      </trkpt>
      <trkpt lat="46.72295" lon="-2.39782">
        <ele>8.31</ele>
        <time>2018-04-03T14:04:41Z</time>
      </trkpt>
      <trkpt lat="46.72288" lon="-2.39776">
        <ele>6.87</ele>
        <time>2018-04-03T14:04:49Z</time>
      </trkpt>
      <trkpt lat="46.72277" lon="-2.39778">
        <ele>7.35</ele>
        <time>2018-04-03T14:05:00Z</time>
      </trkpt>
      <trkpt lat="46.72271" lon="-2.39782">
        <ele>7.35</ele>
        <time>2018-04-03T14:05:06Z</time>
      </trkpt>
      <trkpt lat="46.72269" lon="-2.39783">
        <ele>6.39</ele>
        <time>2018-04-03T14:05:20Z</time>
      </trkpt>
      <trkpt lat="46.72268" lon="-2.39783">
        <ele>6.87</ele>
        <time>2018-04-03T14:05:21Z</time>
      </trkpt>
      <trkpt lat="46.72263" lon="-2.39788">
        <ele>7.35</ele>
        <time>2018-04-03T14:05:27Z</time>
      </trkpt>
      <trkpt lat="46.72263" lon="-2.39791">
        <ele>7.35</ele>
        <time>2018-04-03T14:05:29Z</time>
      </trkpt>
      <trkpt lat="46.72265" lon="-2.39796">
        <ele>6.87</ele>
        <time>2018-04-03T14:05:34Z</time>
      </trkpt>
      <trkpt lat="46.72264" lon="-2.39812">
        <ele>6.87</ele>
        <time>2018-04-03T14:05:46Z</time>
      </trkpt>
      <trkpt lat="46.72254" lon="-2.39833">
        <ele>6.39</ele>
        <time>2018-04-03T14:06:01Z</time>
      </trkpt>
      <trkpt lat="46.72244" lon="-2.39843">
        <ele>6.39</ele>
        <time>2018-04-03T14:06:13Z</time>
      </trkpt>
      <trkpt lat="46.72238" lon="-2.39847">
        <ele>4.94</ele>
        <time>2018-04-03T14:06:20Z</time>
      </trkpt>
      <trkpt lat="46.72233" lon="-2.39854">
        <ele>4.94</ele>
        <time>2018-04-03T14:06:27Z</time>
      </trkpt>
      <trkpt lat="46.7223" lon="-2.39859">
        <ele>4.94</ele>
        <time>2018-04-03T14:06:31Z</time>
      </trkpt>
      <trkpt lat="46.72227" lon="-2.39861">
        <ele>4.94</ele>
        <time>2018-04-03T14:06:34Z</time>
      </trkpt>
      <trkpt lat="46.72222" lon="-2.39864">
        <ele>5.42</ele>
        <time>2018-04-03T14:06:39Z</time>
      </trkpt>
      <trkpt lat="46.72209" lon="-2.39869">
        <ele>5.91</ele>
        <time>2018-04-03T14:06:51Z</time>
      </trkpt>
      <trkpt lat="46.72199" lon="-2.39876">
        <ele>6.87</ele>
        <time>2018-04-03T14:07:02Z</time>
      </trkpt>
      <trkpt lat="46.72197" lon="-2.39878">
        <ele>6.87</ele>
        <time>2018-04-03T14:07:05Z</time>
      </trkpt>
      <trkpt lat="46.72193" lon="-2.39884">
        <ele>5.91</ele>
        <time>2018-04-03T14:07:17Z</time>
      </trkpt>
      <trkpt lat="46.72192" lon="-2.39884">
        <ele>4.46</ele>
        <time>2018-04-03T14:07:35Z</time>
      </trkpt>
      <trkpt lat="46.72193" lon="-2.39885">
        <ele>3.5</ele>
        <time>2018-04-03T14:07:48Z</time>
      </trkpt>
      <trkpt lat="46.72193" lon="-2.39883">
        <ele>3.5</ele>
        <time>2018-04-03T14:07:50Z</time>
      </trkpt>
      <trkpt lat="46.72192" lon="-2.39879">
        <ele>3.5</ele>
        <time>2018-04-03T14:07:54Z</time>
      </trkpt>
      <trkpt lat="46.72182" lon="-2.39874">
        <ele>3.5</ele>
        <time>2018-04-03T14:08:04Z</time>
      </trkpt>
      <trkpt lat="46.72174" lon="-2.39866">
        <ele>4.46</ele>
        <time>2018-04-03T14:08:12Z</time>
      </trkpt>
      <trkpt lat="46.72172" lon="-2.39865">
        <ele>4.46</ele>
        <time>2018-04-03T14:08:15Z</time>
      </trkpt>
      <trkpt lat="46.7217" lon="-2.39863">
        <ele>4.46</ele>
        <time>2018-04-03T14:08:17Z</time>
      </trkpt>
      <trkpt lat="46.72168" lon="-2.39865">
        <ele>4.46</ele>
        <time>2018-04-03T14:08:19Z</time>
      </trkpt>
      <trkpt lat="46.72165" lon="-2.39867">
        <ele>4.46</ele>
        <time>2018-04-03T14:08:23Z</time>
      </trkpt>
      <trkpt lat="46.72154" lon="-2.3986">
        <ele>4.94</ele>
        <time>2018-04-03T14:08:35Z</time>
      </trkpt>
      <trkpt lat="46.72145" lon="-2.39848">
        <ele>4.94</ele>
        <time>2018-04-03T14:08:47Z</time>
      </trkpt>
      <trkpt lat="46.72141" lon="-2.39839">
        <ele>4.94</ele>
        <time>2018-04-03T14:08:54Z</time>
      </trkpt>
      <trkpt lat="46.72135" lon="-2.39829">
        <ele>6.39</ele>
        <time>2018-04-03T14:09:04Z</time>
      </trkpt>
      <trkpt lat="46.72132" lon="-2.39826">
        <ele>6.39</ele>
        <time>2018-04-03T14:09:07Z</time>
      </trkpt>
      <trkpt lat="46.7213" lon="-2.39823">
        <ele>6.39</ele>
        <time>2018-04-03T14:09:10Z</time>
      </trkpt>
      <trkpt lat="46.72129" lon="-2.39817">
        <ele>5.91</ele>
        <time>2018-04-03T14:09:14Z</time>
      </trkpt>
      <trkpt lat="46.72124" lon="-2.3981">
        <ele>4.94</ele>
        <time>2018-04-03T14:09:26Z</time>
      </trkpt>
      <trkpt lat="46.72125" lon="-2.3981">
        <ele>5.42</ele>
        <time>2018-04-03T14:09:28Z</time>
      </trkpt>
      <trkpt lat="46.72127" lon="-2.3981">
        <ele>5.91</ele>
        <time>2018-04-03T14:09:43Z</time>
      </trkpt>
      <trkpt lat="46.72127" lon="-2.39814">
        <ele>6.87</ele>
        <time>2018-04-03T14:09:57Z</time>
      </trkpt>
      <trkpt lat="46.72127" lon="-2.39814">
        <ele>6.87</ele>
        <time>2018-04-03T14:10:09Z</time>
      </trkpt>
      <trkpt lat="46.72124" lon="-2.39811">
        <ele>6.39</ele>
        <time>2018-04-03T14:10:12Z</time>
      </trkpt>
      <trkpt lat="46.7212" lon="-2.39807">
        <ele>5.91</ele>
        <time>2018-04-03T14:10:16Z</time>
      </trkpt>
      <trkpt lat="46.72117" lon="-2.39802">
        <ele>6.39</ele>
        <time>2018-04-03T14:10:20Z</time>
      </trkpt>
      <trkpt lat="46.72106" lon="-2.39785">
        <ele>7.35</ele>
        <time>2018-04-03T14:10:35Z</time>
      </trkpt>
      <trkpt lat="46.72098" lon="-2.39776">
        <ele>7.83</ele>
        <time>2018-04-03T14:10:45Z</time>
      </trkpt>
      <trkpt lat="46.72084" lon="-2.3977">
        <ele>8.79</ele>
        <time>2018-04-03T14:10:59Z</time>
      </trkpt>
      <trkpt lat="46.72079" lon="-2.39768">
        <ele>7.83</ele>
        <time>2018-04-03T14:11:07Z</time>
      </trkpt>
      <trkpt lat="46.72065" lon="-2.39762">
        <ele>7.83</ele>
        <time>2018-04-03T14:11:19Z</time>
      </trkpt>
      <trkpt lat="46.72055" lon="-2.39756">
        <ele>7.83</ele>
        <time>2018-04-03T14:11:28Z</time>
      </trkpt>
      <trkpt lat="46.72052" lon="-2.39753">
        <ele>8.31</ele>
        <time>2018-04-03T14:11:32Z</time>
      </trkpt>
      <trkpt lat="46.72044" lon="-2.39744">
        <ele>8.31</ele>
        <time>2018-04-03T14:11:40Z</time>
      </trkpt>
      <trkpt lat="46.72032" lon="-2.39728">
        <ele>11.67</ele>
        <time>2018-04-03T14:11:53Z</time>
      </trkpt>
      <trkpt lat="46.72023" lon="-2.39721">
        <ele>12.63</ele>
        <time>2018-04-03T14:12:02Z</time>
      </trkpt>
      <trkpt lat="46.72017" lon="-2.39719">
        <ele>13.6</ele>
        <time>2018-04-03T14:12:08Z</time>
      </trkpt>
      <trkpt lat="46.72002" lon="-2.39719">
        <ele>11.19</ele>
        <time>2018-04-03T14:12:21Z</time>
      </trkpt>
      <trkpt lat="46.72001" lon="-2.39719">
        <ele>10.71</ele>
        <time>2018-04-03T14:12:22Z</time>
      </trkpt>
      <trkpt lat="46.71991" lon="-2.39724">
        <ele>9.75</ele>
        <time>2018-04-03T14:12:31Z</time>
      </trkpt>
      <trkpt lat="46.71985" lon="-2.39725">
        <ele>9.27</ele>
        <time>2018-04-03T14:12:37Z</time>
      </trkpt>
      <trkpt lat="46.71972" lon="-2.39725">
        <ele>8.79</ele>
        <time>2018-04-03T14:12:48Z</time>
      </trkpt>
      <trkpt lat="46.71963" lon="-2.39722">
        <ele>8.31</ele>
        <time>2018-04-03T14:12:56Z</time>
      </trkpt>
      <trkpt lat="46.71952" lon="-2.39718">
        <ele>9.27</ele>
        <time>2018-04-03T14:13:06Z</time>
      </trkpt>
      <trkpt lat="46.71948" lon="-2.39717">
        <ele>9.27</ele>
        <time>2018-04-03T14:13:10Z</time>
      </trkpt>
      <trkpt lat="46.71946" lon="-2.39717">
        <ele>9.27</ele>
        <time>2018-04-03T14:13:12Z</time>
      </trkpt>
      <trkpt lat="46.71942" lon="-2.39716">
        <ele>9.27</ele>
        <time>2018-04-03T14:13:16Z</time>
      </trkpt>
      <trkpt lat="46.71939" lon="-2.39715">
        <ele>9.75</ele>
        <time>2018-04-03T14:13:19Z</time>
      </trkpt>
      <trkpt lat="46.71933" lon="-2.39714">
        <ele>9.75</ele>
        <time>2018-04-03T14:13:25Z</time>
      </trkpt>
      <trkpt lat="46.71927" lon="-2.39715">
        <ele>9.27</ele>
        <time>2018-04-03T14:13:30Z</time>
      </trkpt>
      <trkpt lat="46.71916" lon="-2.39714">
        <ele>9.27</ele>
        <time>2018-04-03T14:13:39Z</time>
      </trkpt>
      <trkpt lat="46.71913" lon="-2.39713">
        <ele>8.79</ele>
        <time>2018-04-03T14:13:42Z</time>
      </trkpt>
      <trkpt lat="46.71909" lon="-2.39714">
        <ele>8.79</ele>
        <time>2018-04-03T14:13:45Z</time>
      </trkpt>
      <trkpt lat="46.71908" lon="-2.39712">
        <ele>8.79</ele>
        <time>2018-04-03T14:13:47Z</time>
      </trkpt>
      <trkpt lat="46.71905" lon="-2.39711">
        <ele>8.79</ele>
        <time>2018-04-03T14:13:50Z</time>
      </trkpt>
      <trkpt lat="46.719" lon="-2.39708">
        <ele>8.79</ele>
        <time>2018-04-03T14:13:55Z</time>
      </trkpt>
      <trkpt lat="46.71889" lon="-2.39701">
        <ele>10.23</ele>
        <time>2018-04-03T14:14:06Z</time>
      </trkpt>
      <trkpt lat="46.7188" lon="-2.39702">
        <ele>10.71</ele>
        <time>2018-04-03T14:14:14Z</time>
      </trkpt>
      <trkpt lat="46.71875" lon="-2.39705">
        <ele>9.75</ele>
        <time>2018-04-03T14:14:19Z</time>
      </trkpt>
      <trkpt lat="46.71873" lon="-2.39707">
        <ele>9.75</ele>
        <time>2018-04-03T14:14:21Z</time>
      </trkpt>
      <trkpt lat="46.71867" lon="-2.3971">
        <ele>9.27</ele>
        <time>2018-04-03T14:14:27Z</time>
      </trkpt>
      <trkpt lat="46.71858" lon="-2.39716">
        <ele>8.31</ele>
        <time>2018-04-03T14:14:35Z</time>
      </trkpt>
      <trkpt lat="46.71842" lon="-2.39723">
        <ele>7.83</ele>
        <time>2018-04-03T14:14:49Z</time>
      </trkpt>
      <trkpt lat="46.71828" lon="-2.3972">
        <ele>7.83</ele>
        <time>2018-04-03T14:15:04Z</time>
      </trkpt>
      <trkpt lat="46.7182" lon="-2.39715">
        <ele>7.83</ele>
        <time>2018-04-03T14:15:15Z</time>
      </trkpt>
      <trkpt lat="46.7182" lon="-2.39715">
        <ele>8.31</ele>
        <time>2018-04-03T14:15:25Z</time>
      </trkpt>
      <trkpt lat="46.71819" lon="-2.39714">
        <ele>8.31</ele>
        <time>2018-04-03T14:15:27Z</time>
      </trkpt>
      <trkpt lat="46.71814" lon="-2.3971">
        <ele>9.27</ele>
        <time>2018-04-03T14:15:32Z</time>
      </trkpt>
      <trkpt lat="46.71802" lon="-2.39707">
        <ele>10.23</ele>
        <time>2018-04-03T14:15:45Z</time>
      </trkpt>
      <trkpt lat="46.71796" lon="-2.39709">
        <ele>10.23</ele>
        <time>2018-04-03T14:15:54Z</time>
      </trkpt>
      <trkpt lat="46.7179" lon="-2.39708">
        <ele>10.23</ele>
        <time>2018-04-03T14:15:59Z</time>
      </trkpt>
      <trkpt lat="46.71782" lon="-2.39706">
        <ele>10.23</ele>
        <time>2018-04-03T14:16:06Z</time>
      </trkpt>
      <trkpt lat="46.71776" lon="-2.39702">
        <ele>10.71</ele>
        <time>2018-04-03T14:16:12Z</time>
      </trkpt>
      <trkpt lat="46.71772" lon="-2.39699">
        <ele>11.19</ele>
        <time>2018-04-03T14:16:16Z</time>
      </trkpt>
      <trkpt lat="46.71764" lon="-2.39697">
        <ele>11.67</ele>
        <time>2018-04-03T14:16:23Z</time>
      </trkpt>
      <trkpt lat="46.71748" lon="-2.39693">
        <ele>12.63</ele>
        <time>2018-04-03T14:16:37Z</time>
      </trkpt>
      <trkpt lat="46.71734" lon="-2.39689">
        <ele>14.08</ele>
        <time>2018-04-03T14:16:51Z</time>
      </trkpt>
      <trkpt lat="46.71717" lon="-2.39677">
        <ele>11.67</ele>
        <time>2018-04-03T14:17:07Z</time>
      </trkpt>
      <trkpt lat="46.71715" lon="-2.39676">
        <ele>11.19</ele>
        <time>2018-04-03T14:17:09Z</time>
      </trkpt>
      <trkpt lat="46.71698" lon="-2.39671">
        <ele>11.67</ele>
        <time>2018-04-03T14:17:24Z</time>
      </trkpt>
      <trkpt lat="46.71683" lon="-2.3966">
        <ele>11.19</ele>
        <time>2018-04-03T14:17:39Z</time>
      </trkpt>
      <trkpt lat="46.71682" lon="-2.39659">
        <ele>11.19</ele>
        <time>2018-04-03T14:17:40Z</time>
      </trkpt>
      <trkpt lat="46.71677" lon="-2.39644">
        <ele>9.75</ele>
        <time>2018-04-03T14:17:52Z</time>
      </trkpt>
      <trkpt lat="46.71676" lon="-2.39633">
        <ele>10.71</ele>
        <time>2018-04-03T14:18:05Z</time>
      </trkpt>
      <trkpt lat="46.71675" lon="-2.39629">
        <ele>11.19</ele>
        <time>2018-04-03T14:18:09Z</time>
      </trkpt>
      <trkpt lat="46.71674" lon="-2.39622">
        <ele>11.67</ele>
        <time>2018-04-03T14:18:13Z</time>
      </trkpt>
      <trkpt lat="46.7167" lon="-2.3961">
        <ele>11.19</ele>
        <time>2018-04-03T14:18:24Z</time>
      </trkpt>
      <trkpt lat="46.71661" lon="-2.39598">
        <ele>10.71</ele>
        <time>2018-04-03T14:18:35Z</time>
      </trkpt>
      <trkpt lat="46.7165" lon="-2.39586">
        <ele>8.31</ele>
        <time>2018-04-03T14:18:48Z</time>
      </trkpt>
      <trkpt lat="46.71642" lon="-2.39581">
        <ele>8.31</ele>
        <time>2018-04-03T14:18:56Z</time>
      </trkpt>
      <trkpt lat="46.71631" lon="-2.39575">
        <ele>8.31</ele>
        <time>2018-04-03T14:19:07Z</time>
      </trkpt>
      <trkpt lat="46.71616" lon="-2.3957">
        <ele>7.83</ele>
        <time>2018-04-03T14:19:21Z</time>
      </trkpt>
      <trkpt lat="46.71612" lon="-2.39571">
        <ele>7.83</ele>
        <time>2018-04-03T14:19:26Z</time>
      </trkpt>
      <trkpt lat="46.71597" lon="-2.39572">
        <ele>7.83</ele>
        <time>2018-04-03T14:19:41Z</time>
      </trkpt>
      <trkpt lat="46.71584" lon="-2.39576">
        <ele>6.39</ele>
        <time>2018-04-03T14:19:54Z</time>
      </trkpt>
      <trkpt lat="46.71576" lon="-2.39576">
        <ele>5.42</ele>
        <time>2018-04-03T14:20:01Z</time>
      </trkpt>
      <trkpt lat="46.71566" lon="-2.39575">
        <ele>3.98</ele>
        <time>2018-04-03T14:20:10Z</time>
      </trkpt>
      <trkpt lat="46.71558" lon="-2.39573">
        <ele>2.54</ele>
        <time>2018-04-03T14:20:18Z</time>
      </trkpt>
      <trkpt lat="46.71543" lon="-2.39569">
        <ele>4.46</ele>
        <time>2018-04-03T14:20:31Z</time>
      </trkpt>
      <trkpt lat="46.71542" lon="-2.39569">
        <ele>4.46</ele>
        <time>2018-04-03T14:20:32Z</time>
      </trkpt>
      <trkpt lat="46.71537" lon="-2.39567">
        <ele>4.94</ele>
        <time>2018-04-03T14:20:36Z</time>
      </trkpt>
      <trkpt lat="46.71534" lon="-2.39567">
        <ele>5.91</ele>
        <time>2018-04-03T14:20:39Z</time>
      </trkpt>
      <trkpt lat="46.71524" lon="-2.3956">
        <ele>7.35</ele>
        <time>2018-04-03T14:20:48Z</time>
      </trkpt>
      <trkpt lat="46.71516" lon="-2.39554">
        <ele>9.75</ele>
        <time>2018-04-03T14:20:56Z</time>
      </trkpt>
      <trkpt lat="46.71509" lon="-2.39543">
        <ele>10.71</ele>
        <time>2018-04-03T14:21:04Z</time>
      </trkpt>
      <trkpt lat="46.71507" lon="-2.39542">
        <ele>10.71</ele>
        <time>2018-04-03T14:21:06Z</time>
      </trkpt>
      <trkpt lat="46.71503" lon="-2.39534">
        <ele>11.19</ele>
        <time>2018-04-03T14:21:12Z</time>
      </trkpt>
      <trkpt lat="46.71496" lon="-2.3952">
        <ele>10.23</ele>
        <time>2018-04-03T14:21:23Z</time>
      </trkpt>
      <trkpt lat="46.71495" lon="-2.39519">
        <ele>9.75</ele>
        <time>2018-04-03T14:21:24Z</time>
      </trkpt>
      <trkpt lat="46.71486" lon="-2.39501">
        <ele>13.12</ele>
        <time>2018-04-03T14:21:37Z</time>
      </trkpt>
      <trkpt lat="46.71473" lon="-2.39486">
        <ele>10.71</ele>
        <time>2018-04-03T14:21:51Z</time>
      </trkpt>
      <trkpt lat="46.71469" lon="-2.39483">
        <ele>9.75</ele>
        <time>2018-04-03T14:21:56Z</time>
      </trkpt>
      <trkpt lat="46.71464" lon="-2.39481">
        <ele>9.27</ele>
        <time>2018-04-03T14:22:00Z</time>
      </trkpt>
      <trkpt lat="46.71458" lon="-2.39475">
        <ele>8.79</ele>
        <time>2018-04-03T14:22:07Z</time>
      </trkpt>
      <trkpt lat="46.71451" lon="-2.39459">
        <ele>8.31</ele>
        <time>2018-04-03T14:22:19Z</time>
      </trkpt>
      <trkpt lat="46.7144" lon="-2.39447">
        <ele>10.71</ele>
        <time>2018-04-03T14:22:31Z</time>
      </trkpt>
      <trkpt lat="46.71429" lon="-2.39445">
        <ele>12.63</ele>
        <time>2018-04-03T14:22:41Z</time>
      </trkpt>
      <trkpt lat="46.71412" lon="-2.39436">
        <ele>11.19</ele>
        <time>2018-04-03T14:22:57Z</time>
      </trkpt>
      <trkpt lat="46.714" lon="-2.39426">
        <ele>7.35</ele>
        <time>2018-04-03T14:23:12Z</time>
      </trkpt>
      <trkpt lat="46.71389" lon="-2.39415">
        <ele>7.35</ele>
        <time>2018-04-03T14:23:24Z</time>
      </trkpt>
      <trkpt lat="46.71382" lon="-2.39407">
        <ele>6.39</ele>
        <time>2018-04-03T14:23:32Z</time>
      </trkpt>
      <trkpt lat="46.71371" lon="-2.39395">
        <ele>4.94</ele>
        <time>2018-04-03T14:23:44Z</time>
      </trkpt>
      <trkpt lat="46.71357" lon="-2.3938">
        <ele>4.46</ele>
        <time>2018-04-03T14:23:59Z</time>
      </trkpt>
      <trkpt lat="46.71347" lon="-2.39367">
        <ele>4.46</ele>
        <time>2018-04-03T14:24:11Z</time>
      </trkpt>
      <trkpt lat="46.71338" lon="-2.39351">
        <ele>6.39</ele>
        <time>2018-04-03T14:24:23Z</time>
      </trkpt>
      <trkpt lat="46.71332" lon="-2.39337">
        <ele>5.42</ele>
        <time>2018-04-03T14:24:32Z</time>
      </trkpt>
      <trkpt lat="46.71329" lon="-2.3933">
        <ele>4.94</ele>
        <time>2018-04-03T14:24:38Z</time>
      </trkpt>
      <trkpt lat="46.71324" lon="-2.39325">
        <ele>5.42</ele>
        <time>2018-04-03T14:24:43Z</time>
      </trkpt>
      <trkpt lat="46.7132" lon="-2.39319">
        <ele>4.46</ele>
        <time>2018-04-03T14:24:49Z</time>
      </trkpt>
      <trkpt lat="46.71312" lon="-2.39312">
        <ele>4.94</ele>
        <time>2018-04-03T14:24:57Z</time>
      </trkpt>
      <trkpt lat="46.71301" lon="-2.39307">
        <ele>2.54</ele>
        <time>2018-04-03T14:25:08Z</time>
      </trkpt>
      <trkpt lat="46.71294" lon="-2.39305">
        <ele>2.06</ele>
        <time>2018-04-03T14:25:14Z</time>
      </trkpt>
      <trkpt lat="46.71279" lon="-2.39298">
        <ele>2.54</ele>
        <time>2018-04-03T14:25:28Z</time>
      </trkpt>
      <trkpt lat="46.71274" lon="-2.39297">
        <ele>3.02</ele>
        <time>2018-04-03T14:25:32Z</time>
      </trkpt>
      <trkpt lat="46.71259" lon="-2.39287">
        <ele>3.02</ele>
        <time>2018-04-03T14:25:47Z</time>
      </trkpt>
      <trkpt lat="46.71251" lon="-2.3928">
        <ele>3.02</ele>
        <time>2018-04-03T14:25:55Z</time>
      </trkpt>
      <trkpt lat="46.7124" lon="-2.39272">
        <ele>4.46</ele>
        <time>2018-04-03T14:26:06Z</time>
      </trkpt>
      <trkpt lat="46.71237" lon="-2.39269">
        <ele>3.5</ele>
        <time>2018-04-03T14:26:10Z</time>
      </trkpt>
      <trkpt lat="46.71222" lon="-2.39256">
        <ele>5.42</ele>
        <time>2018-04-03T14:26:24Z</time>
      </trkpt>
      <trkpt lat="46.71213" lon="-2.39249">
        <ele>6.87</ele>
        <time>2018-04-03T14:26:33Z</time>
      </trkpt>
      <trkpt lat="46.712" lon="-2.39244">
        <ele>6.39</ele>
        <time>2018-04-03T14:26:46Z</time>
      </trkpt>
      <trkpt lat="46.71194" lon="-2.39244">
        <ele>6.39</ele>
        <time>2018-04-03T14:27:01Z</time>
      </trkpt>
      <trkpt lat="46.71192" lon="-2.39243">
        <ele>6.39</ele>
        <time>2018-04-03T14:27:03Z</time>
      </trkpt>
      <trkpt lat="46.71186" lon="-2.39242">
        <ele>5.91</ele>
        <time>2018-04-03T14:27:08Z</time>
      </trkpt>
      <trkpt lat="46.71175" lon="-2.39243">
        <ele>4.94</ele>
        <time>2018-04-03T14:27:17Z</time>
      </trkpt>
      <trkpt lat="46.71161" lon="-2.39248">
        <ele>7.83</ele>
        <time>2018-04-03T14:27:31Z</time>
      </trkpt>
      <trkpt lat="46.71157" lon="-2.39248">
        <ele>8.79</ele>
        <time>2018-04-03T14:27:35Z</time>
      </trkpt>
      <trkpt lat="46.71155" lon="-2.39249">
        <ele>8.79</ele>
        <time>2018-04-03T14:27:37Z</time>
      </trkpt>
      <trkpt lat="46.71149" lon="-2.39247">
        <ele>7.83</ele>
        <time>2018-04-03T14:27:44Z</time>
      </trkpt>
      <trkpt lat="46.71143" lon="-2.39243">
        <ele>7.35</ele>
        <time>2018-04-03T14:27:50Z</time>
      </trkpt>
      <trkpt lat="46.71141" lon="-2.39243">
        <ele>7.35</ele>
        <time>2018-04-03T14:27:52Z</time>
      </trkpt>
      <trkpt lat="46.71135" lon="-2.39242">
        <ele>7.35</ele>
        <time>2018-04-03T14:27:59Z</time>
      </trkpt>
      <trkpt lat="46.71133" lon="-2.39243">
        <ele>7.35</ele>
        <time>2018-04-03T14:28:01Z</time>
      </trkpt>
      <trkpt lat="46.7113" lon="-2.39241">
        <ele>7.35</ele>
        <time>2018-04-03T14:28:04Z</time>
      </trkpt>
      <trkpt lat="46.71127" lon="-2.39242">
        <ele>7.35</ele>
        <time>2018-04-03T14:28:07Z</time>
      </trkpt>
      <trkpt lat="46.71114" lon="-2.39248">
        <ele>8.31</ele>
        <time>2018-04-03T14:28:20Z</time>
      </trkpt>
      <trkpt lat="46.71113" lon="-2.39251">
        <ele>7.83</ele>
        <time>2018-04-03T14:28:31Z</time>
      </trkpt>
      <trkpt lat="46.71115" lon="-2.39254">
        <ele>8.31</ele>
        <time>2018-04-03T14:28:48Z</time>
      </trkpt>
      <trkpt lat="46.71114" lon="-2.39254">
        <ele>7.83</ele>
        <time>2018-04-03T14:29:04Z</time>
      </trkpt>
      <trkpt lat="46.71115" lon="-2.39254">
        <ele>8.31</ele>
        <time>2018-04-03T14:29:25Z</time>
      </trkpt>
      <trkpt lat="46.71115" lon="-2.39258">
        <ele>9.27</ele>
        <time>2018-04-03T14:29:39Z</time>
      </trkpt>
      <trkpt lat="46.71115" lon="-2.39257">
        <ele>8.79</ele>
        <time>2018-04-03T14:29:50Z</time>
      </trkpt>
      <trkpt lat="46.71115" lon="-2.39257">
        <ele>9.27</ele>
        <time>2018-04-03T14:29:51Z</time>
      </trkpt>
      <trkpt lat="46.71107" lon="-2.39254">
        <ele>9.27</ele>
        <time>2018-04-03T14:30:00Z</time>
      </trkpt>
      <trkpt lat="46.71104" lon="-2.39253">
        <ele>8.79</ele>
        <time>2018-04-03T14:30:04Z</time>
      </trkpt>
      <trkpt lat="46.71098" lon="-2.39253">
        <ele>9.27</ele>
        <time>2018-04-03T14:30:10Z</time>
      </trkpt>
      <trkpt lat="46.71096" lon="-2.39251">
        <ele>9.27</ele>
        <time>2018-04-03T14:30:12Z</time>
      </trkpt>
      <trkpt lat="46.71087" lon="-2.39247">
        <ele>10.71</ele>
        <time>2018-04-03T14:30:25Z</time>
      </trkpt>
      <trkpt lat="46.71076" lon="-2.39246">
        <ele>11.19</ele>
        <time>2018-04-03T14:30:35Z</time>
      </trkpt>
      <trkpt lat="46.71073" lon="-2.39248">
        <ele>10.71</ele>
        <time>2018-04-03T14:30:39Z</time>
      </trkpt>
      <trkpt lat="46.71062" lon="-2.39252">
        <ele>9.75</ele>
        <time>2018-04-03T14:30:51Z</time>
      </trkpt>
      <trkpt lat="46.7106" lon="-2.39253">
        <ele>9.27</ele>
        <time>2018-04-03T14:30:53Z</time>
      </trkpt>
      <trkpt lat="46.71052" lon="-2.39254">
        <ele>8.31</ele>
        <time>2018-04-03T14:31:00Z</time>
      </trkpt>
      <trkpt lat="46.71043" lon="-2.39255">
        <ele>8.31</ele>
        <time>2018-04-03T14:31:09Z</time>
      </trkpt>
      <trkpt lat="46.71035" lon="-2.39255">
        <ele>8.79</ele>
        <time>2018-04-03T14:31:17Z</time>
      </trkpt>
      <trkpt lat="46.71033" lon="-2.39255">
        <ele>8.79</ele>
        <time>2018-04-03T14:31:19Z</time>
      </trkpt>
      <trkpt lat="46.71031" lon="-2.39255">
        <ele>8.79</ele>
        <time>2018-04-03T14:31:21Z</time>
      </trkpt>
      <trkpt lat="46.71028" lon="-2.39254">
        <ele>9.27</ele>
        <time>2018-04-03T14:31:24Z</time>
      </trkpt>
      <trkpt lat="46.71026" lon="-2.39252">
        <ele>9.75</ele>
        <time>2018-04-03T14:31:27Z</time>
      </trkpt>
      <trkpt lat="46.71017" lon="-2.39249">
        <ele>10.23</ele>
        <time>2018-04-03T14:31:37Z</time>
      </trkpt>
      <trkpt lat="46.71011" lon="-2.3924">
        <ele>8.31</ele>
        <time>2018-04-03T14:31:47Z</time>
      </trkpt>
      <trkpt lat="46.71008" lon="-2.39227">
        <ele>8.31</ele>
        <time>2018-04-03T14:31:58Z</time>
      </trkpt>
      <trkpt lat="46.71008" lon="-2.39222">
        <ele>7.83</ele>
        <time>2018-04-03T14:32:02Z</time>
      </trkpt>
      <trkpt lat="46.71008" lon="-2.39218">
        <ele>8.31</ele>
        <time>2018-04-03T14:32:05Z</time>
      </trkpt>
      <trkpt lat="46.71008" lon="-2.39215">
        <ele>8.79</ele>
        <time>2018-04-03T14:32:07Z</time>
      </trkpt>
      <trkpt lat="46.71008" lon="-2.39212">
        <ele>8.79</ele>
        <time>2018-04-03T14:32:09Z</time>
      </trkpt>
      <trkpt lat="46.71011" lon="-2.39202">
        <ele>9.27</ele>
        <time>2018-04-03T14:32:18Z</time>
      </trkpt>
      <trkpt lat="46.71011" lon="-2.39196">
        <ele>8.79</ele>
        <time>2018-04-03T14:32:22Z</time>
      </trkpt>
      <trkpt lat="46.71015" lon="-2.39183">
        <ele>7.83</ele>
        <time>2018-04-03T14:32:31Z</time>
      </trkpt>
      <trkpt lat="46.71021" lon="-2.39167">
        <ele>6.39</ele>
        <time>2018-04-03T14:32:43Z</time>
      </trkpt>
      <trkpt lat="46.71023" lon="-2.39161">
        <ele>5.91</ele>
        <time>2018-04-03T14:32:47Z</time>
      </trkpt>
      <trkpt lat="46.71024" lon="-2.39145">
        <ele>3.98</ele>
        <time>2018-04-03T14:32:59Z</time>
      </trkpt>
      <trkpt lat="46.71024" lon="-2.39145">
        <ele>4.46</ele>
        <time>2018-04-03T14:33:00Z</time>
      </trkpt>
      <trkpt lat="46.71025" lon="-2.39128">
        <ele>2.06</ele>
        <time>2018-04-03T14:33:12Z</time>
      </trkpt>
      <trkpt lat="46.71025" lon="-2.39115">
        <ele>1.1</ele>
        <time>2018-04-03T14:33:22Z</time>
      </trkpt>
      <trkpt lat="46.71026" lon="-2.391">
        <ele>2.54</ele>
        <time>2018-04-03T14:33:30Z</time>
      </trkpt>
      <trkpt lat="46.71029" lon="-2.39094">
        <ele>3.02</ele>
        <time>2018-04-03T14:33:35Z</time>
      </trkpt>
      <trkpt lat="46.71029" lon="-2.39091">
        <ele>3.5</ele>
        <time>2018-04-03T14:33:37Z</time>
      </trkpt>
      <trkpt lat="46.71032" lon="-2.39082">
        <ele>4.94</ele>
        <time>2018-04-03T14:33:45Z</time>
      </trkpt>
      <trkpt lat="46.71033" lon="-2.39077">
        <ele>4.94</ele>
        <time>2018-04-03T14:33:48Z</time>
      </trkpt>
      <trkpt lat="46.71034" lon="-2.39069">
        <ele>6.87</ele>
        <time>2018-04-03T14:34:00Z</time>
      </trkpt>
      <trkpt lat="46.71033" lon="-2.39067">
        <ele>7.35</ele>
        <time>2018-04-03T14:34:02Z</time>
      </trkpt>
      <trkpt lat="46.71031" lon="-2.39057">
        <ele>8.31</ele>
        <time>2018-04-03T14:34:14Z</time>
      </trkpt>
      <trkpt lat="46.71029" lon="-2.39053">
        <ele>8.31</ele>
        <time>2018-04-03T14:34:27Z</time>
      </trkpt>
      <trkpt lat="46.71029" lon="-2.39042">
        <ele>7.83</ele>
        <time>2018-04-03T14:34:35Z</time>
      </trkpt>
      <trkpt lat="46.7103" lon="-2.39035">
        <ele>7.35</ele>
        <time>2018-04-03T14:34:40Z</time>
      </trkpt>
      <trkpt lat="46.7103" lon="-2.39031">
        <ele>7.83</ele>
        <time>2018-04-03T14:34:43Z</time>
      </trkpt>
      <trkpt lat="46.7103" lon="-2.39023">
        <ele>7.35</ele>
        <time>2018-04-03T14:34:49Z</time>
      </trkpt>
      <trkpt lat="46.71029" lon="-2.39018">
        <ele>8.31</ele>
        <time>2018-04-03T14:34:53Z</time>
      </trkpt>
      <trkpt lat="46.71025" lon="-2.39011">
        <ele>8.31</ele>
        <time>2018-04-03T14:34:58Z</time>
      </trkpt>
      <trkpt lat="46.71016" lon="-2.38998">
        <ele>8.79</ele>
        <time>2018-04-03T14:35:09Z</time>
      </trkpt>
      <trkpt lat="46.7101" lon="-2.38987">
        <ele>9.75</ele>
        <time>2018-04-03T14:35:19Z</time>
      </trkpt>
      <trkpt lat="46.71003" lon="-2.38972">
        <ele>11.67</ele>
        <time>2018-04-03T14:35:33Z</time>
      </trkpt>
      <trkpt lat="46.70997" lon="-2.38958">
        <ele>11.19</ele>
        <time>2018-04-03T14:35:45Z</time>
      </trkpt>
      <trkpt lat="46.70993" lon="-2.38952">
        <ele>11.19</ele>
        <time>2018-04-03T14:35:50Z</time>
      </trkpt>
      <trkpt lat="46.70991" lon="-2.3893">
        <ele>10.71</ele>
        <time>2018-04-03T14:36:04Z</time>
      </trkpt>
      <trkpt lat="46.7099" lon="-2.38918">
        <ele>9.75</ele>
        <time>2018-04-03T14:36:12Z</time>
      </trkpt>
      <trkpt lat="46.70987" lon="-2.3891">
        <ele>9.75</ele>
        <time>2018-04-03T14:36:18Z</time>
      </trkpt>
      <trkpt lat="46.70984" lon="-2.38908">
        <ele>9.27</ele>
        <time>2018-04-03T14:36:21Z</time>
      </trkpt>
      <trkpt lat="46.70982" lon="-2.38905">
        <ele>9.27</ele>
        <time>2018-04-03T14:36:23Z</time>
      </trkpt>
      <trkpt lat="46.70973" lon="-2.38903">
        <ele>7.83</ele>
        <time>2018-04-03T14:36:33Z</time>
      </trkpt>
      <trkpt lat="46.70968" lon="-2.389">
        <ele>6.87</ele>
        <time>2018-04-03T14:36:45Z</time>
      </trkpt>
      <trkpt lat="46.70966" lon="-2.38896">
        <ele>8.31</ele>
        <time>2018-04-03T14:36:54Z</time>
      </trkpt>
      <trkpt lat="46.70961" lon="-2.3889">
        <ele>8.31</ele>
        <time>2018-04-03T14:36:59Z</time>
      </trkpt>
      <trkpt lat="46.70959" lon="-2.38886">
        <ele>7.83</ele>
        <time>2018-04-03T14:37:02Z</time>
      </trkpt>
      <trkpt lat="46.70956" lon="-2.38876">
        <ele>6.39</ele>
        <time>2018-04-03T14:37:10Z</time>
      </trkpt>
      <trkpt lat="46.70954" lon="-2.38862">
        <ele>9.27</ele>
        <time>2018-04-03T14:37:21Z</time>
      </trkpt>
      <trkpt lat="46.70952" lon="-2.38847">
        <ele>10.23</ele>
        <time>2018-04-03T14:37:34Z</time>
      </trkpt>
      <trkpt lat="46.70946" lon="-2.38831">
        <ele>11.67</ele>
        <time>2018-04-03T14:37:47Z</time>
      </trkpt>
      <trkpt lat="46.70941" lon="-2.38821">
        <ele>11.19</ele>
        <time>2018-04-03T14:38:00Z</time>
      </trkpt>
      <trkpt lat="46.70936" lon="-2.38812">
        <ele>10.71</ele>
        <time>2018-04-03T14:38:16Z</time>
      </trkpt>
      <trkpt lat="46.70934" lon="-2.38807">
        <ele>9.75</ele>
        <time>2018-04-03T14:38:20Z</time>
      </trkpt>
      <trkpt lat="46.70933" lon="-2.38802">
        <ele>9.75</ele>
        <time>2018-04-03T14:38:36Z</time>
      </trkpt>
      <trkpt lat="46.70932" lon="-2.38795">
        <ele>9.75</ele>
        <time>2018-04-03T14:38:53Z</time>
      </trkpt>
      <trkpt lat="46.70929" lon="-2.38785">
        <ele>10.23</ele>
        <time>2018-04-03T14:39:09Z</time>
      </trkpt>
      <trkpt lat="46.70928" lon="-2.38775">
        <ele>10.23</ele>
        <time>2018-04-03T14:39:22Z</time>
      </trkpt>
      <trkpt lat="46.70925" lon="-2.38761">
        <ele>9.27</ele>
        <time>2018-04-03T14:39:35Z</time>
      </trkpt>
      <trkpt lat="46.70923" lon="-2.38757">
        <ele>8.79</ele>
        <time>2018-04-03T14:39:38Z</time>
      </trkpt>
      <trkpt lat="46.70921" lon="-2.3875">
        <ele>8.31</ele>
        <time>2018-04-03T14:39:43Z</time>
      </trkpt>
      <trkpt lat="46.70919" lon="-2.38745">
        <ele>7.83</ele>
        <time>2018-04-03T14:39:46Z</time>
      </trkpt>
      <trkpt lat="46.70915" lon="-2.38732">
        <ele>8.79</ele>
        <time>2018-04-03T14:40:00Z</time>
      </trkpt>
      <trkpt lat="46.70911" lon="-2.38725">
        <ele>9.27</ele>
        <time>2018-04-03T14:40:18Z</time>
      </trkpt>
      <trkpt lat="46.70904" lon="-2.38717">
        <ele>9.75</ele>
        <time>2018-04-03T14:40:30Z</time>
      </trkpt>
      <trkpt lat="46.70904" lon="-2.38717">
        <ele>9.75</ele>
        <time>2018-04-03T14:40:49Z</time>
      </trkpt>
      <trkpt lat="46.70904" lon="-2.38717">
        <ele>10.23</ele>
        <time>2018-04-03T14:40:53Z</time>
      </trkpt>
      <trkpt lat="46.70892" lon="-2.387">
        <ele>11.19</ele>
        <time>2018-04-03T14:41:09Z</time>
      </trkpt>
      <trkpt lat="46.70889" lon="-2.38693">
        <ele>11.19</ele>
        <time>2018-04-03T14:41:14Z</time>
      </trkpt>
      <trkpt lat="46.7088" lon="-2.38678">
        <ele>9.75</ele>
        <time>2018-04-03T14:41:27Z</time>
      </trkpt>
      <trkpt lat="46.70871" lon="-2.38659">
        <ele>9.27</ele>
        <time>2018-04-03T14:41:41Z</time>
      </trkpt>
      <trkpt lat="46.7087" lon="-2.38656">
        <ele>9.27</ele>
        <time>2018-04-03T14:41:43Z</time>
      </trkpt>
      <trkpt lat="46.70864" lon="-2.38634">
        <ele>10.23</ele>
        <time>2018-04-03T14:41:58Z</time>
      </trkpt>
      <trkpt lat="46.70853" lon="-2.38622">
        <ele>9.75</ele>
        <time>2018-04-03T14:42:11Z</time>
      </trkpt>
      <trkpt lat="46.70851" lon="-2.3862">
        <ele>10.23</ele>
        <time>2018-04-03T14:42:13Z</time>
      </trkpt>
      <trkpt lat="46.70847" lon="-2.38616">
        <ele>10.71</ele>
        <time>2018-04-03T14:42:18Z</time>
      </trkpt>
      <trkpt lat="46.70841" lon="-2.38609">
        <ele>10.71</ele>
        <time>2018-04-03T14:42:25Z</time>
      </trkpt>
      <trkpt lat="46.70835" lon="-2.38602">
        <ele>10.71</ele>
        <time>2018-04-03T14:42:31Z</time>
      </trkpt>
      <trkpt lat="46.70828" lon="-2.38582">
        <ele>10.23</ele>
        <time>2018-04-03T14:42:46Z</time>
      </trkpt>
      <trkpt lat="46.70823" lon="-2.38571">
        <ele>10.71</ele>
        <time>2018-04-03T14:42:54Z</time>
      </trkpt>
      <trkpt lat="46.70822" lon="-2.38551">
        <ele>11.67</ele>
        <time>2018-04-03T14:43:09Z</time>
      </trkpt>
      <trkpt lat="46.70822" lon="-2.38551">
        <ele>12.15</ele>
        <time>2018-04-03T14:43:15Z</time>
      </trkpt>
      <trkpt lat="46.70823" lon="-2.38542">
        <ele>11.19</ele>
        <time>2018-04-03T14:43:22Z</time>
      </trkpt>
      <trkpt lat="46.70822" lon="-2.38522">
        <ele>12.63</ele>
        <time>2018-04-03T14:43:35Z</time>
      </trkpt>
      <trkpt lat="46.70821" lon="-2.38509">
        <ele>13.6</ele>
        <time>2018-04-03T14:43:44Z</time>
      </trkpt>
      <trkpt lat="46.70817" lon="-2.38501">
        <ele>12.15</ele>
        <time>2018-04-03T14:43:51Z</time>
      </trkpt>
      <trkpt lat="46.70817" lon="-2.38497">
        <ele>12.15</ele>
        <time>2018-04-03T14:43:54Z</time>
      </trkpt>
      <trkpt lat="46.70814" lon="-2.38482">
        <ele>11.19</ele>
        <time>2018-04-03T14:44:07Z</time>
      </trkpt>
      <trkpt lat="46.70813" lon="-2.38482">
        <ele>11.67</ele>
        <time>2018-04-03T14:44:28Z</time>
      </trkpt>
      <trkpt lat="46.70813" lon="-2.38481">
        <ele>11.67</ele>
        <time>2018-04-03T14:44:29Z</time>
      </trkpt>
      <trkpt lat="46.70817" lon="-2.38473">
        <ele>11.67</ele>
        <time>2018-04-03T14:44:35Z</time>
      </trkpt>
      <trkpt lat="46.70822" lon="-2.38451">
        <ele>9.27</ele>
        <time>2018-04-03T14:44:53Z</time>
      </trkpt>
      <trkpt lat="46.70825" lon="-2.38438">
        <ele>6.87</ele>
        <time>2018-04-03T14:45:09Z</time>
      </trkpt>
      <trkpt lat="46.70825" lon="-2.38422">
        <ele>6.39</ele>
        <time>2018-04-03T14:45:23Z</time>
      </trkpt>
      <trkpt lat="46.70823" lon="-2.38417">
        <ele>2.06</ele>
        <time>2018-04-03T14:45:36Z</time>
      </trkpt>
      <trkpt lat="46.70823" lon="-2.38417">
        <ele>1.58</ele>
        <time>2018-04-03T14:46:00Z</time>
      </trkpt>
      <trkpt lat="46.70821" lon="-2.38414">
        <ele>3.02</ele>
        <time>2018-04-03T14:46:27Z</time>
      </trkpt>
      <trkpt lat="46.70818" lon="-2.38408">
        <ele>1.1</ele>
        <time>2018-04-03T14:46:38Z</time>
      </trkpt>
      <trkpt lat="46.70817" lon="-2.38406">
        <ele>-0.34</ele>
        <time>2018-04-03T14:46:49Z</time>
      </trkpt>
      <trkpt lat="46.70816" lon="-2.38403">
        <ele>-1.3</ele>
        <time>2018-04-03T14:47:03Z</time>
      </trkpt>
      <trkpt lat="46.70813" lon="-2.38396">
        <ele>-0.34</ele>
        <time>2018-04-03T14:47:10Z</time>
      </trkpt>
      <trkpt lat="46.70811" lon="-2.38391">
        <ele>0.14</ele>
        <time>2018-04-03T14:47:14Z</time>
      </trkpt>
      <trkpt lat="46.70808" lon="-2.38385">
        <ele>1.58</ele>
        <time>2018-04-03T14:47:20Z</time>
      </trkpt>
      <trkpt lat="46.70807" lon="-2.3838">
        <ele>1.1</ele>
        <time>2018-04-03T14:47:24Z</time>
      </trkpt>
      <trkpt lat="46.70804" lon="-2.38373">
        <ele>2.06</ele>
        <time>2018-04-03T14:47:35Z</time>
      </trkpt>
      <trkpt lat="46.70802" lon="-2.38371">
        <ele>2.06</ele>
        <time>2018-04-03T14:47:41Z</time>
      </trkpt>
      <trkpt lat="46.70795" lon="-2.38361">
        <ele>4.94</ele>
        <time>2018-04-03T14:47:54Z</time>
      </trkpt>
      <trkpt lat="46.70795" lon="-2.38359">
        <ele>5.42</ele>
        <time>2018-04-03T14:47:56Z</time>
      </trkpt>
      <trkpt lat="46.70791" lon="-2.38341">
        <ele>8.79</ele>
        <time>2018-04-03T14:48:09Z</time>
      </trkpt>
      <trkpt lat="46.7079" lon="-2.38341">
        <ele>10.71</ele>
        <time>2018-04-03T14:48:20Z</time>
      </trkpt>
      <trkpt lat="46.7079" lon="-2.38341">
        <ele>10.23</ele>
        <time>2018-04-03T14:48:38Z</time>
      </trkpt>
      <trkpt lat="46.7079" lon="-2.3834">
        <ele>10.23</ele>
        <time>2018-04-03T14:48:49Z</time>
      </trkpt>
      <trkpt lat="46.70784" lon="-2.38335">
        <ele>10.23</ele>
        <time>2018-04-03T14:49:02Z</time>
      </trkpt>
      <trkpt lat="46.70779" lon="-2.38331">
        <ele>9.75</ele>
        <time>2018-04-03T14:49:14Z</time>
      </trkpt>
      <trkpt lat="46.70772" lon="-2.38321">
        <ele>7.35</ele>
        <time>2018-04-03T14:49:26Z</time>
      </trkpt>
      <trkpt lat="46.7077" lon="-2.38318">
        <ele>6.87</ele>
        <time>2018-04-03T14:49:29Z</time>
      </trkpt>
      <trkpt lat="46.70766" lon="-2.38313">
        <ele>6.39</ele>
        <time>2018-04-03T14:49:34Z</time>
      </trkpt>
      <trkpt lat="46.70762" lon="-2.38308">
        <ele>5.42</ele>
        <time>2018-04-03T14:49:39Z</time>
      </trkpt>
      <trkpt lat="46.7076" lon="-2.38304">
        <ele>5.42</ele>
        <time>2018-04-03T14:49:42Z</time>
      </trkpt>
      <trkpt lat="46.70748" lon="-2.38292">
        <ele>6.87</ele>
        <time>2018-04-03T14:49:54Z</time>
      </trkpt>
      <trkpt lat="46.70746" lon="-2.38289">
        <ele>8.31</ele>
        <time>2018-04-03T14:49:57Z</time>
      </trkpt>
      <trkpt lat="46.70738" lon="-2.3828">
        <ele>10.23</ele>
        <time>2018-04-03T14:50:06Z</time>
      </trkpt>
      <trkpt lat="46.70728" lon="-2.38271">
        <ele>9.75</ele>
        <time>2018-04-03T14:50:18Z</time>
      </trkpt>
      <trkpt lat="46.70722" lon="-2.38267">
        <ele>10.23</ele>
        <time>2018-04-03T14:50:25Z</time>
      </trkpt>
      <trkpt lat="46.7072" lon="-2.38261">
        <ele>10.71</ele>
        <time>2018-04-03T14:50:29Z</time>
      </trkpt>
      <trkpt lat="46.70717" lon="-2.38253">
        <ele>10.23</ele>
        <time>2018-04-03T14:50:35Z</time>
      </trkpt>
      <trkpt lat="46.70715" lon="-2.38234">
        <ele>11.19</ele>
        <time>2018-04-03T14:50:50Z</time>
      </trkpt>
      <trkpt lat="46.70714" lon="-2.38234">
        <ele>11.67</ele>
        <time>2018-04-03T14:51:06Z</time>
      </trkpt>
      <trkpt lat="46.70714" lon="-2.38234">
        <ele>10.71</ele>
        <time>2018-04-03T14:51:16Z</time>
      </trkpt>
      <trkpt lat="46.70715" lon="-2.38224">
        <ele>11.19</ele>
        <time>2018-04-03T14:51:36Z</time>
      </trkpt>
      <trkpt lat="46.7072" lon="-2.38214">
        <ele>11.67</ele>
        <time>2018-04-03T14:51:48Z</time>
      </trkpt>
      <trkpt lat="46.7072" lon="-2.38212">
        <ele>11.67</ele>
        <time>2018-04-03T14:51:57Z</time>
      </trkpt>
      <trkpt lat="46.70723" lon="-2.38195">
        <ele>12.15</ele>
        <time>2018-04-03T14:52:09Z</time>
      </trkpt>
      <trkpt lat="46.70724" lon="-2.38189">
        <ele>13.6</ele>
        <time>2018-04-03T14:52:14Z</time>
      </trkpt>
      <trkpt lat="46.70727" lon="-2.3818">
        <ele>12.63</ele>
        <time>2018-04-03T14:52:20Z</time>
      </trkpt>
      <trkpt lat="46.70727" lon="-2.38161">
        <ele>13.12</ele>
        <time>2018-04-03T14:52:33Z</time>
      </trkpt>
      <trkpt lat="46.70729" lon="-2.38158">
        <ele>13.6</ele>
        <time>2018-04-03T14:52:37Z</time>
      </trkpt>
      <trkpt lat="46.70734" lon="-2.38155">
        <ele>14.56</ele>
        <time>2018-04-03T14:52:50Z</time>
      </trkpt>
      <trkpt lat="46.70736" lon="-2.38153">
        <ele>14.08</ele>
        <time>2018-04-03T14:52:58Z</time>
      </trkpt>
      <trkpt lat="46.70739" lon="-2.38151">
        <ele>13.6</ele>
        <time>2018-04-03T14:53:09Z</time>
      </trkpt>
      <trkpt lat="46.70739" lon="-2.3815">
        <ele>13.6</ele>
        <time>2018-04-03T14:53:26Z</time>
      </trkpt>
      <trkpt lat="46.7074" lon="-2.3815">
        <ele>13.12</ele>
        <time>2018-04-03T14:53:45Z</time>
      </trkpt>
      <trkpt lat="46.70741" lon="-2.3815">
        <ele>12.15</ele>
        <time>2018-04-03T14:53:58Z</time>
      </trkpt>
      <trkpt lat="46.7074" lon="-2.38151">
        <ele>12.15</ele>
        <time>2018-04-03T14:54:12Z</time>
      </trkpt>
      <trkpt lat="46.7074" lon="-2.38152">
        <ele>11.67</ele>
        <time>2018-04-03T14:54:21Z</time>
      </trkpt>
      <trkpt lat="46.70739" lon="-2.38152">
        <ele>12.63</ele>
        <time>2018-04-03T14:54:37Z</time>
      </trkpt>
      <trkpt lat="46.70744" lon="-2.38152">
        <ele>13.12</ele>
        <time>2018-04-03T14:54:49Z</time>
      </trkpt>
      <trkpt lat="46.70748" lon="-2.38151">
        <ele>13.12</ele>
        <time>2018-04-03T14:54:54Z</time>
      </trkpt>
      <trkpt lat="46.70759" lon="-2.38147">
        <ele>13.12</ele>
        <time>2018-04-03T14:55:08Z</time>
      </trkpt>
      <trkpt lat="46.7077" lon="-2.38139">
        <ele>12.15</ele>
        <time>2018-04-03T14:55:21Z</time>
      </trkpt>
      <trkpt lat="46.70772" lon="-2.38138">
        <ele>11.67</ele>
        <time>2018-04-03T14:55:23Z</time>
      </trkpt>
      <trkpt lat="46.70782" lon="-2.38134">
        <ele>11.67</ele>
        <time>2018-04-03T14:55:32Z</time>
      </trkpt>
      <trkpt lat="46.70786" lon="-2.38131">
        <ele>11.19</ele>
        <time>2018-04-03T14:55:37Z</time>
      </trkpt>
      <trkpt lat="46.70794" lon="-2.38122">
        <ele>10.71</ele>
        <time>2018-04-03T14:55:47Z</time>
      </trkpt>
      <trkpt lat="46.70802" lon="-2.38117">
        <ele>12.15</ele>
        <time>2018-04-03T14:55:55Z</time>
      </trkpt>
      <trkpt lat="46.70803" lon="-2.38115">
        <ele>12.15</ele>
        <time>2018-04-03T14:55:57Z</time>
      </trkpt>
      <trkpt lat="46.7081" lon="-2.38109">
        <ele>12.15</ele>
        <time>2018-04-03T14:56:06Z</time>
      </trkpt>
      <trkpt lat="46.70815" lon="-2.38102">
        <ele>14.08</ele>
        <time>2018-04-03T14:56:13Z</time>
      </trkpt>
      <trkpt lat="46.70818" lon="-2.381">
        <ele>14.56</ele>
        <time>2018-04-03T14:56:16Z</time>
      </trkpt>
      <trkpt lat="46.70828" lon="-2.38096">
        <ele>14.08</ele>
        <time>2018-04-03T14:56:25Z</time>
      </trkpt>
      <trkpt lat="46.7084" lon="-2.38084">
        <ele>13.6</ele>
        <time>2018-04-03T14:56:38Z</time>
      </trkpt>
      <trkpt lat="46.70845" lon="-2.38071">
        <ele>13.12</ele>
        <time>2018-04-03T14:56:49Z</time>
      </trkpt>
      <trkpt lat="46.70845" lon="-2.38068">
        <ele>13.12</ele>
        <time>2018-04-03T14:56:52Z</time>
      </trkpt>
      <trkpt lat="46.70853" lon="-2.38058">
        <ele>13.6</ele>
        <time>2018-04-03T14:57:02Z</time>
      </trkpt>
      <trkpt lat="46.70863" lon="-2.38048">
        <ele>13.6</ele>
        <time>2018-04-03T14:57:12Z</time>
      </trkpt>
      <trkpt lat="46.70864" lon="-2.38046">
        <ele>13.6</ele>
        <time>2018-04-03T14:57:15Z</time>
      </trkpt>
      <trkpt lat="46.70871" lon="-2.38039">
        <ele>13.12</ele>
        <time>2018-04-03T14:57:23Z</time>
      </trkpt>
      <trkpt lat="46.70875" lon="-2.38036">
        <ele>11.19</ele>
        <time>2018-04-03T14:57:29Z</time>
      </trkpt>
      <trkpt lat="46.70879" lon="-2.38045">
        <ele>12.15</ele>
        <time>2018-04-03T14:57:35Z</time>
      </trkpt>
      <trkpt lat="46.70885" lon="-2.38048">
        <ele>13.6</ele>
        <time>2018-04-03T14:57:43Z</time>
      </trkpt>
      <trkpt lat="46.70891" lon="-2.38055">
        <ele>14.08</ele>
        <time>2018-04-03T14:57:51Z</time>
      </trkpt>
      <trkpt lat="46.70891" lon="-2.38055">
        <ele>14.56</ele>
        <time>2018-04-03T14:58:00Z</time>
      </trkpt>
      <trkpt lat="46.70887" lon="-2.38049">
        <ele>15.04</ele>
        <time>2018-04-03T14:58:08Z</time>
      </trkpt>
      <trkpt lat="46.70881" lon="-2.38046">
        <ele>15.52</ele>
        <time>2018-04-03T14:58:14Z</time>
      </trkpt>
      <trkpt lat="46.70878" lon="-2.38039">
        <ele>16</ele>
        <time>2018-04-03T14:58:20Z</time>
      </trkpt>
      <trkpt lat="46.70877" lon="-2.38036">
        <ele>16</ele>
        <time>2018-04-03T14:58:24Z</time>
      </trkpt>
      <trkpt lat="46.70884" lon="-2.38025">
        <ele>16.48</ele>
        <time>2018-04-03T14:58:34Z</time>
      </trkpt>
      <trkpt lat="46.70889" lon="-2.38017">
        <ele>16.96</ele>
        <time>2018-04-03T14:58:43Z</time>
      </trkpt>
      <trkpt lat="46.70896" lon="-2.38007">
        <ele>17.92</ele>
        <time>2018-04-03T14:58:52Z</time>
      </trkpt>
      <trkpt lat="46.70903" lon="-2.37996">
        <ele>17.92</ele>
        <time>2018-04-03T14:59:02Z</time>
      </trkpt>
      <trkpt lat="46.70904" lon="-2.37994">
        <ele>17.92</ele>
        <time>2018-04-03T14:59:03Z</time>
      </trkpt>
      <trkpt lat="46.70915" lon="-2.3797">
        <ele>17.44</ele>
        <time>2018-04-03T14:59:21Z</time>
      </trkpt>
      <trkpt lat="46.70921" lon="-2.37954">
        <ele>17.92</ele>
        <time>2018-04-03T14:59:32Z</time>
      </trkpt>
      <trkpt lat="46.70931" lon="-2.3794">
        <ele>16</ele>
        <time>2018-04-03T14:59:47Z</time>
      </trkpt>
      <trkpt lat="46.70931" lon="-2.37938">
        <ele>16</ele>
        <time>2018-04-03T14:59:48Z</time>
      </trkpt>
      <trkpt lat="46.70931" lon="-2.37933">
        <ele>15.04</ele>
        <time>2018-04-03T14:59:58Z</time>
      </trkpt>
      <trkpt lat="46.70931" lon="-2.37932">
        <ele>15.04</ele>
        <time>2018-04-03T15:00:05Z</time>
      </trkpt>
      <trkpt lat="46.70928" lon="-2.37923">
        <ele>14.08</ele>
        <time>2018-04-03T15:00:15Z</time>
      </trkpt>
      <trkpt lat="46.70928" lon="-2.37906">
        <ele>12.63</ele>
        <time>2018-04-03T15:00:24Z</time>
      </trkpt>
      <trkpt lat="46.70927" lon="-2.37905">
        <ele>13.12</ele>
        <time>2018-04-03T15:00:26Z</time>
      </trkpt>
      <trkpt lat="46.70926" lon="-2.37897">
        <ele>13.6</ele>
        <time>2018-04-03T15:00:32Z</time>
      </trkpt>
      <trkpt lat="46.70927" lon="-2.37888">
        <ele>13.6</ele>
        <time>2018-04-03T15:00:37Z</time>
      </trkpt>
      <trkpt lat="46.70925" lon="-2.37873">
        <ele>10.71</ele>
        <time>2018-04-03T15:00:46Z</time>
      </trkpt>
      <trkpt lat="46.70921" lon="-2.37861">
        <ele>10.23</ele>
        <time>2018-04-03T15:00:54Z</time>
      </trkpt>
      <trkpt lat="46.70922" lon="-2.37855">
        <ele>11.19</ele>
        <time>2018-04-03T15:00:58Z</time>
      </trkpt>
      <trkpt lat="46.70921" lon="-2.37844">
        <ele>13.6</ele>
        <time>2018-04-03T15:01:11Z</time>
      </trkpt>
      <trkpt lat="46.70924" lon="-2.37842">
        <ele>16</ele>
        <time>2018-04-03T15:01:20Z</time>
      </trkpt>
      <trkpt lat="46.70925" lon="-2.37839">
        <ele>16.48</ele>
        <time>2018-04-03T15:01:23Z</time>
      </trkpt>
      <trkpt lat="46.70931" lon="-2.37836">
        <ele>16.48</ele>
        <time>2018-04-03T15:01:28Z</time>
      </trkpt>
      <trkpt lat="46.70938" lon="-2.37827">
        <ele>15.04</ele>
        <time>2018-04-03T15:01:40Z</time>
      </trkpt>
      <trkpt lat="46.70942" lon="-2.37824">
        <ele>14.56</ele>
        <time>2018-04-03T15:01:44Z</time>
      </trkpt>
      <trkpt lat="46.70943" lon="-2.3782">
        <ele>14.56</ele>
        <time>2018-04-03T15:01:47Z</time>
      </trkpt>
      <trkpt lat="46.7095" lon="-2.37806">
        <ele>15.52</ele>
        <time>2018-04-03T15:01:58Z</time>
      </trkpt>
      <trkpt lat="46.70955" lon="-2.37799">
        <ele>16</ele>
        <time>2018-04-03T15:02:05Z</time>
      </trkpt>
      <trkpt lat="46.70958" lon="-2.37794">
        <ele>15.52</ele>
        <time>2018-04-03T15:02:10Z</time>
      </trkpt>
      <trkpt lat="46.70966" lon="-2.37781">
        <ele>15.52</ele>
        <time>2018-04-03T15:02:21Z</time>
      </trkpt>
      <trkpt lat="46.70975" lon="-2.37767">
        <ele>16</ele>
        <time>2018-04-03T15:02:32Z</time>
      </trkpt>
      <trkpt lat="46.70978" lon="-2.37761">
        <ele>16</ele>
        <time>2018-04-03T15:02:37Z</time>
      </trkpt>
      <trkpt lat="46.70986" lon="-2.37749">
        <ele>16.48</ele>
        <time>2018-04-03T15:02:46Z</time>
      </trkpt>
      <trkpt lat="46.70988" lon="-2.37746">
        <ele>16.48</ele>
        <time>2018-04-03T15:02:50Z</time>
      </trkpt>
      <trkpt lat="46.70994" lon="-2.37741">
        <ele>16</ele>
        <time>2018-04-03T15:02:56Z</time>
      </trkpt>
      <trkpt lat="46.70996" lon="-2.37739">
        <ele>16</ele>
        <time>2018-04-03T15:02:59Z</time>
      </trkpt>
      <trkpt lat="46.71002" lon="-2.37731">
        <ele>16.96</ele>
        <time>2018-04-03T15:03:06Z</time>
      </trkpt>
      <trkpt lat="46.71011" lon="-2.3772">
        <ele>16.48</ele>
        <time>2018-04-03T15:03:17Z</time>
      </trkpt>
      <trkpt lat="46.71012" lon="-2.37718">
        <ele>16.48</ele>
        <time>2018-04-03T15:03:18Z</time>
      </trkpt>
      <trkpt lat="46.71014" lon="-2.37716">
        <ele>16.48</ele>
        <time>2018-04-03T15:03:21Z</time>
      </trkpt>
      <trkpt lat="46.71022" lon="-2.37701">
        <ele>16.96</ele>
        <time>2018-04-03T15:03:33Z</time>
      </trkpt>
      <trkpt lat="46.71028" lon="-2.37693">
        <ele>17.92</ele>
        <time>2018-04-03T15:03:39Z</time>
      </trkpt>
      <trkpt lat="46.71033" lon="-2.3769">
        <ele>18.4</ele>
        <time>2018-04-03T15:03:44Z</time>
      </trkpt>
      <trkpt lat="46.71036" lon="-2.37685">
        <ele>18.4</ele>
        <time>2018-04-03T15:03:54Z</time>
      </trkpt>
      <trkpt lat="46.71043" lon="-2.37671">
        <ele>17.92</ele>
        <time>2018-04-03T15:04:05Z</time>
      </trkpt>
      <trkpt lat="46.7105" lon="-2.37657">
        <ele>18.4</ele>
        <time>2018-04-03T15:04:16Z</time>
      </trkpt>
      <trkpt lat="46.7105" lon="-2.37657">
        <ele>18.4</ele>
        <time>2018-04-03T15:04:17Z</time>
      </trkpt>
      <trkpt lat="46.71056" lon="-2.37643">
        <ele>18.4</ele>
        <time>2018-04-03T15:04:26Z</time>
      </trkpt>
      <trkpt lat="46.7106" lon="-2.37631">
        <ele>18.88</ele>
        <time>2018-04-03T15:04:34Z</time>
      </trkpt>
      <trkpt lat="46.71063" lon="-2.37619">
        <ele>18.4</ele>
        <time>2018-04-03T15:04:43Z</time>
      </trkpt>
      <trkpt lat="46.71065" lon="-2.37604">
        <ele>18.4</ele>
        <time>2018-04-03T15:04:51Z</time>
      </trkpt>
      <trkpt lat="46.71065" lon="-2.37602">
        <ele>18.4</ele>
        <time>2018-04-03T15:04:53Z</time>
      </trkpt>
      <trkpt lat="46.71067" lon="-2.37594">
        <ele>16.96</ele>
        <time>2018-04-03T15:04:58Z</time>
      </trkpt>
      <trkpt lat="46.71072" lon="-2.37576">
        <ele>18.4</ele>
        <time>2018-04-03T15:05:10Z</time>
      </trkpt>
      <trkpt lat="46.71077" lon="-2.37564">
        <ele>18.4</ele>
        <time>2018-04-03T15:05:19Z</time>
      </trkpt>
      <trkpt lat="46.71085" lon="-2.37547">
        <ele>20.81</ele>
        <time>2018-04-03T15:05:32Z</time>
      </trkpt>
      <trkpt lat="46.71086" lon="-2.37544">
        <ele>20.81</ele>
        <time>2018-04-03T15:05:34Z</time>
      </trkpt>
      <trkpt lat="46.71089" lon="-2.37537">
        <ele>20.81</ele>
        <time>2018-04-03T15:05:39Z</time>
      </trkpt>
      <trkpt lat="46.71093" lon="-2.37525">
        <ele>20.81</ele>
        <time>2018-04-03T15:05:47Z</time>
      </trkpt>
      <trkpt lat="46.71099" lon="-2.37506">
        <ele>20.32</ele>
        <time>2018-04-03T15:06:01Z</time>
      </trkpt>
      <trkpt lat="46.71104" lon="-2.37485">
        <ele>21.77</ele>
        <time>2018-04-03T15:06:16Z</time>
      </trkpt>
      <trkpt lat="46.71104" lon="-2.37484">
        <ele>21.29</ele>
        <time>2018-04-03T15:06:17Z</time>
      </trkpt>
      <trkpt lat="46.7111" lon="-2.37476">
        <ele>22.25</ele>
        <time>2018-04-03T15:06:29Z</time>
      </trkpt>
      <trkpt lat="46.7111" lon="-2.37475">
        <ele>22.73</ele>
        <time>2018-04-03T15:06:36Z</time>
      </trkpt>
      <trkpt lat="46.71114" lon="-2.37472">
        <ele>22.25</ele>
        <time>2018-04-03T15:06:40Z</time>
      </trkpt>
      <trkpt lat="46.71127" lon="-2.3745">
        <ele>21.29</ele>
        <time>2018-04-03T15:06:58Z</time>
      </trkpt>
      <trkpt lat="46.71131" lon="-2.37445">
        <ele>20.81</ele>
        <time>2018-04-03T15:07:03Z</time>
      </trkpt>
      <trkpt lat="46.71134" lon="-2.37438">
        <ele>20.81</ele>
        <time>2018-04-03T15:07:09Z</time>
      </trkpt>
      <trkpt lat="46.71135" lon="-2.37432">
        <ele>21.29</ele>
        <time>2018-04-03T15:07:22Z</time>
      </trkpt>
      <trkpt lat="46.71142" lon="-2.37426">
        <ele>20.81</ele>
        <time>2018-04-03T15:07:29Z</time>
      </trkpt>
      <trkpt lat="46.71144" lon="-2.37424">
        <ele>20.81</ele>
        <time>2018-04-03T15:07:31Z</time>
      </trkpt>
      <trkpt lat="46.7115" lon="-2.37413">
        <ele>20.32</ele>
        <time>2018-04-03T15:07:41Z</time>
      </trkpt>
      <trkpt lat="46.71154" lon="-2.37402">
        <ele>20.32</ele>
        <time>2018-04-03T15:07:48Z</time>
      </trkpt>
      <trkpt lat="46.71157" lon="-2.37394">
        <ele>19.84</ele>
        <time>2018-04-03T15:07:55Z</time>
      </trkpt>
      <trkpt lat="46.71162" lon="-2.37381">
        <ele>19.84</ele>
        <time>2018-04-03T15:08:03Z</time>
      </trkpt>
      <trkpt lat="46.71162" lon="-2.37375">
        <ele>19.36</ele>
        <time>2018-04-03T15:08:07Z</time>
      </trkpt>
      <trkpt lat="46.71165" lon="-2.37356">
        <ele>18.4</ele>
        <time>2018-04-03T15:08:18Z</time>
      </trkpt>
      <trkpt lat="46.71168" lon="-2.3734">
        <ele>18.88</ele>
        <time>2018-04-03T15:08:28Z</time>
      </trkpt>
      <trkpt lat="46.71172" lon="-2.37331">
        <ele>19.36</ele>
        <time>2018-04-03T15:08:35Z</time>
      </trkpt>
      <trkpt lat="46.71177" lon="-2.37314">
        <ele>19.36</ele>
        <time>2018-04-03T15:08:45Z</time>
      </trkpt>
      <trkpt lat="46.71179" lon="-2.37303">
        <ele>19.84</ele>
        <time>2018-04-03T15:08:53Z</time>
      </trkpt>
      <trkpt lat="46.7118" lon="-2.37285">
        <ele>19.36</ele>
        <time>2018-04-03T15:09:03Z</time>
      </trkpt>
      <trkpt lat="46.7118" lon="-2.37282">
        <ele>19.36</ele>
        <time>2018-04-03T15:09:06Z</time>
      </trkpt>
      <trkpt lat="46.7118" lon="-2.37264">
        <ele>19.84</ele>
        <time>2018-04-03T15:09:15Z</time>
      </trkpt>
      <trkpt lat="46.71178" lon="-2.37262">
        <ele>19.84</ele>
        <time>2018-04-03T15:09:18Z</time>
      </trkpt>
      <trkpt lat="46.71177" lon="-2.37251">
        <ele>19.36</ele>
        <time>2018-04-03T15:09:28Z</time>
      </trkpt>
      <trkpt lat="46.71177" lon="-2.37237">
        <ele>19.36</ele>
        <time>2018-04-03T15:09:37Z</time>
      </trkpt>
      <trkpt lat="46.71178" lon="-2.37221">
        <ele>18.4</ele>
        <time>2018-04-03T15:09:47Z</time>
      </trkpt>
      <trkpt lat="46.71178" lon="-2.37206">
        <ele>16.96</ele>
        <time>2018-04-03T15:09:55Z</time>
      </trkpt>
      <trkpt lat="46.71179" lon="-2.37195">
        <ele>16</ele>
        <time>2018-04-03T15:10:01Z</time>
      </trkpt>
      <trkpt lat="46.71181" lon="-2.37184">
        <ele>15.04</ele>
        <time>2018-04-03T15:10:08Z</time>
      </trkpt>
      <trkpt lat="46.71182" lon="-2.37181">
        <ele>15.04</ele>
        <time>2018-04-03T15:10:10Z</time>
      </trkpt>
      <trkpt lat="46.71183" lon="-2.37173">
        <ele>16</ele>
        <time>2018-04-03T15:10:15Z</time>
      </trkpt>
      <trkpt lat="46.71183" lon="-2.3717">
        <ele>16</ele>
        <time>2018-04-03T15:10:17Z</time>
      </trkpt>
      <trkpt lat="46.71185" lon="-2.37153">
        <ele>16.96</ele>
        <time>2018-04-03T15:10:28Z</time>
      </trkpt>
      <trkpt lat="46.71183" lon="-2.37135">
        <ele>18.4</ele>
        <time>2018-04-03T15:10:38Z</time>
      </trkpt>
      <trkpt lat="46.71184" lon="-2.37135">
        <ele>17.44</ele>
        <time>2018-04-03T15:10:44Z</time>
      </trkpt>
      <trkpt lat="46.71184" lon="-2.37126">
        <ele>17.44</ele>
        <time>2018-04-03T15:10:50Z</time>
      </trkpt>
      <trkpt lat="46.71184" lon="-2.37107">
        <ele>18.4</ele>
        <time>2018-04-03T15:11:01Z</time>
      </trkpt>
      <trkpt lat="46.71184" lon="-2.37107">
        <ele>18.4</ele>
        <time>2018-04-03T15:11:02Z</time>
      </trkpt>
      <trkpt lat="46.71184" lon="-2.37089">
        <ele>18.4</ele>
        <time>2018-04-03T15:11:12Z</time>
      </trkpt>
      <trkpt lat="46.71184" lon="-2.37084">
        <ele>18.88</ele>
        <time>2018-04-03T15:11:16Z</time>
      </trkpt>
      <trkpt lat="46.71187" lon="-2.37064">
        <ele>19.36</ele>
        <time>2018-04-03T15:11:27Z</time>
      </trkpt>
      <trkpt lat="46.71189" lon="-2.37053">
        <ele>19.36</ele>
        <time>2018-04-03T15:11:35Z</time>
      </trkpt>
      <trkpt lat="46.71194" lon="-2.37035">
        <ele>19.36</ele>
        <time>2018-04-03T15:11:45Z</time>
      </trkpt>
      <trkpt lat="46.71194" lon="-2.3703">
        <ele>19.36</ele>
        <time>2018-04-03T15:11:48Z</time>
      </trkpt>
      <trkpt lat="46.71194" lon="-2.37021">
        <ele>19.36</ele>
        <time>2018-04-03T15:11:54Z</time>
      </trkpt>
      <trkpt lat="46.71197" lon="-2.37011">
        <ele>18.4</ele>
        <time>2018-04-03T15:12:01Z</time>
      </trkpt>
      <trkpt lat="46.712" lon="-2.37003">
        <ele>18.4</ele>
        <time>2018-04-03T15:12:07Z</time>
      </trkpt>
      <trkpt lat="46.71205" lon="-2.36989">
        <ele>17.92</ele>
        <time>2018-04-03T15:12:16Z</time>
      </trkpt>
      <trkpt lat="46.71204" lon="-2.36984">
        <ele>18.4</ele>
        <time>2018-04-03T15:12:19Z</time>
      </trkpt>
      <trkpt lat="46.71206" lon="-2.36972">
        <ele>17.92</ele>
        <time>2018-04-03T15:12:26Z</time>
      </trkpt>
      <trkpt lat="46.71207" lon="-2.36959">
        <ele>16.48</ele>
        <time>2018-04-03T15:12:34Z</time>
      </trkpt>
      <trkpt lat="46.71209" lon="-2.36949">
        <ele>17.44</ele>
        <time>2018-04-03T15:12:40Z</time>
      </trkpt>
      <trkpt lat="46.71211" lon="-2.36938">
        <ele>17.92</ele>
        <time>2018-04-03T15:12:46Z</time>
      </trkpt>
      <trkpt lat="46.71212" lon="-2.36924">
        <ele>19.36</ele>
        <time>2018-04-03T15:12:55Z</time>
      </trkpt>
      <trkpt lat="46.71212" lon="-2.36917">
        <ele>20.32</ele>
        <time>2018-04-03T15:12:59Z</time>
      </trkpt>
      <trkpt lat="46.71215" lon="-2.36905">
        <ele>19.84</ele>
        <time>2018-04-03T15:13:09Z</time>
      </trkpt>
      <trkpt lat="46.71217" lon="-2.36899">
        <ele>19.36</ele>
        <time>2018-04-03T15:13:13Z</time>
      </trkpt>
      <trkpt lat="46.71215" lon="-2.36873">
        <ele>19.36</ele>
        <time>2018-04-03T15:13:28Z</time>
      </trkpt>
      <trkpt lat="46.71215" lon="-2.3686">
        <ele>17.92</ele>
        <time>2018-04-03T15:13:37Z</time>
      </trkpt>
      <trkpt lat="46.71214" lon="-2.36847">
        <ele>17.44</ele>
        <time>2018-04-03T15:13:46Z</time>
      </trkpt>
      <trkpt lat="46.71215" lon="-2.36846">
        <ele>19.36</ele>
        <time>2018-04-03T15:14:00Z</time>
      </trkpt>
      <trkpt lat="46.71215" lon="-2.36845">
        <ele>19.36</ele>
        <time>2018-04-03T15:14:06Z</time>
      </trkpt>
      <trkpt lat="46.71215" lon="-2.36842">
        <ele>19.36</ele>
        <time>2018-04-03T15:14:08Z</time>
      </trkpt>
      <trkpt lat="46.71214" lon="-2.36834">
        <ele>18.88</ele>
        <time>2018-04-03T15:14:14Z</time>
      </trkpt>
      <trkpt lat="46.71215" lon="-2.3682">
        <ele>19.36</ele>
        <time>2018-04-03T15:14:23Z</time>
      </trkpt>
      <trkpt lat="46.71214" lon="-2.36814">
        <ele>19.84</ele>
        <time>2018-04-03T15:14:27Z</time>
      </trkpt>
      <trkpt lat="46.71213" lon="-2.36799">
        <ele>18.88</ele>
        <time>2018-04-03T15:14:36Z</time>
      </trkpt>
      <trkpt lat="46.71212" lon="-2.36786">
        <ele>19.84</ele>
        <time>2018-04-03T15:14:46Z</time>
      </trkpt>
      <trkpt lat="46.7121" lon="-2.36771">
        <ele>22.25</ele>
        <time>2018-04-03T15:14:54Z</time>
      </trkpt>
      <trkpt lat="46.7121" lon="-2.3677">
        <ele>21.29</ele>
        <time>2018-04-03T15:15:05Z</time>
      </trkpt>
      <trkpt lat="46.71209" lon="-2.36763">
        <ele>20.81</ele>
        <time>2018-04-03T15:15:10Z</time>
      </trkpt>
      <trkpt lat="46.71208" lon="-2.36745">
        <ele>21.77</ele>
        <time>2018-04-03T15:15:22Z</time>
      </trkpt>
      <trkpt lat="46.71207" lon="-2.36738">
        <ele>21.77</ele>
        <time>2018-04-03T15:15:27Z</time>
      </trkpt>
      <trkpt lat="46.71208" lon="-2.36718">
        <ele>21.29</ele>
        <time>2018-04-03T15:15:38Z</time>
      </trkpt>
      <trkpt lat="46.71208" lon="-2.36705">
        <ele>20.32</ele>
        <time>2018-04-03T15:15:47Z</time>
      </trkpt>
      <trkpt lat="46.71202" lon="-2.36697">
        <ele>20.81</ele>
        <time>2018-04-03T15:15:54Z</time>
      </trkpt>
      <trkpt lat="46.712" lon="-2.36694">
        <ele>20.32</ele>
        <time>2018-04-03T15:15:56Z</time>
      </trkpt>
      <trkpt lat="46.71198" lon="-2.3669">
        <ele>20.32</ele>
        <time>2018-04-03T15:16:00Z</time>
      </trkpt>
      <trkpt lat="46.71191" lon="-2.36674">
        <ele>18.4</ele>
        <time>2018-04-03T15:16:11Z</time>
      </trkpt>
      <trkpt lat="46.71186" lon="-2.36663">
        <ele>17.92</ele>
        <time>2018-04-03T15:16:19Z</time>
      </trkpt>
      <trkpt lat="46.71184" lon="-2.36652">
        <ele>18.88</ele>
        <time>2018-04-03T15:16:29Z</time>
      </trkpt>
      <trkpt lat="46.71181" lon="-2.36636">
        <ele>18.4</ele>
        <time>2018-04-03T15:16:39Z</time>
      </trkpt>
      <trkpt lat="46.71181" lon="-2.36635">
        <ele>17.92</ele>
        <time>2018-04-03T15:16:40Z</time>
      </trkpt>
      <trkpt lat="46.71179" lon="-2.36627">
        <ele>17.92</ele>
        <time>2018-04-03T15:16:46Z</time>
      </trkpt>
      <trkpt lat="46.71177" lon="-2.36617">
        <ele>18.4</ele>
        <time>2018-04-03T15:16:57Z</time>
      </trkpt>
      <trkpt lat="46.71176" lon="-2.36607">
        <ele>19.84</ele>
        <time>2018-04-03T15:17:09Z</time>
      </trkpt>
      <trkpt lat="46.71176" lon="-2.36605">
        <ele>20.32</ele>
        <time>2018-04-03T15:17:26Z</time>
      </trkpt>
      <trkpt lat="46.71173" lon="-2.36584">
        <ele>19.84</ele>
        <time>2018-04-03T15:17:40Z</time>
      </trkpt>
      <trkpt lat="46.71173" lon="-2.36577">
        <ele>19.84</ele>
        <time>2018-04-03T15:17:44Z</time>
      </trkpt>
      <trkpt lat="46.71172" lon="-2.36574">
        <ele>19.36</ele>
        <time>2018-04-03T15:17:46Z</time>
      </trkpt>
      <trkpt lat="46.71171" lon="-2.36559">
        <ele>17.92</ele>
        <time>2018-04-03T15:17:56Z</time>
      </trkpt>
      <trkpt lat="46.71168" lon="-2.36547">
        <ele>18.4</ele>
        <time>2018-04-03T15:18:03Z</time>
      </trkpt>
      <trkpt lat="46.71167" lon="-2.36541">
        <ele>17.92</ele>
        <time>2018-04-03T15:18:06Z</time>
      </trkpt>
      <trkpt lat="46.71165" lon="-2.36535">
        <ele>18.4</ele>
        <time>2018-04-03T15:18:10Z</time>
      </trkpt>
      <trkpt lat="46.71166" lon="-2.36529">
        <ele>17.92</ele>
        <time>2018-04-03T15:18:14Z</time>
      </trkpt>
      <trkpt lat="46.71165" lon="-2.3651">
        <ele>16.48</ele>
        <time>2018-04-03T15:18:27Z</time>
      </trkpt>
      <trkpt lat="46.71165" lon="-2.36506">
        <ele>16.48</ele>
        <time>2018-04-03T15:18:30Z</time>
      </trkpt>
      <trkpt lat="46.71163" lon="-2.365">
        <ele>16</ele>
        <time>2018-04-03T15:18:35Z</time>
      </trkpt>
      <trkpt lat="46.71165" lon="-2.36491">
        <ele>17.44</ele>
        <time>2018-04-03T15:18:47Z</time>
      </trkpt>
      <trkpt lat="46.71165" lon="-2.36487">
        <ele>16.96</ele>
        <time>2018-04-03T15:18:50Z</time>
      </trkpt>
      <trkpt lat="46.71165" lon="-2.36483">
        <ele>16.96</ele>
        <time>2018-04-03T15:18:53Z</time>
      </trkpt>
      <trkpt lat="46.71165" lon="-2.36475">
        <ele>16</ele>
        <time>2018-04-03T15:18:58Z</time>
      </trkpt>
      <trkpt lat="46.71164" lon="-2.36459">
        <ele>16.48</ele>
        <time>2018-04-03T15:19:07Z</time>
      </trkpt>
      <trkpt lat="46.71163" lon="-2.36439">
        <ele>15.04</ele>
        <time>2018-04-03T15:19:21Z</time>
      </trkpt>
      <trkpt lat="46.71162" lon="-2.3643">
        <ele>15.04</ele>
        <time>2018-04-03T15:19:27Z</time>
      </trkpt>
      <trkpt lat="46.71161" lon="-2.36423">
        <ele>15.04</ele>
        <time>2018-04-03T15:19:31Z</time>
      </trkpt>
      <trkpt lat="46.71161" lon="-2.3642">
        <ele>15.52</ele>
        <time>2018-04-03T15:19:33Z</time>
      </trkpt>
      <trkpt lat="46.71157" lon="-2.364">
        <ele>17.92</ele>
        <time>2018-04-03T15:19:45Z</time>
      </trkpt>
      <trkpt lat="46.71156" lon="-2.36394">
        <ele>18.4</ele>
        <time>2018-04-03T15:19:49Z</time>
      </trkpt>
      <trkpt lat="46.71151" lon="-2.36373">
        <ele>17.92</ele>
        <time>2018-04-03T15:20:02Z</time>
      </trkpt>
      <trkpt lat="46.71146" lon="-2.36359">
        <ele>18.4</ele>
        <time>2018-04-03T15:20:16Z</time>
      </trkpt>
      <trkpt lat="46.71147" lon="-2.36352">
        <ele>18.4</ele>
        <time>2018-04-03T15:20:22Z</time>
      </trkpt>
      <trkpt lat="46.71164" lon="-2.3634">
        <ele>19.84</ele>
        <time>2018-04-03T15:20:39Z</time>
      </trkpt>
      <trkpt lat="46.71175" lon="-2.36332">
        <ele>19.36</ele>
        <time>2018-04-03T15:20:51Z</time>
      </trkpt>
      <trkpt lat="46.71183" lon="-2.36327">
        <ele>18.88</ele>
        <time>2018-04-03T15:21:05Z</time>
      </trkpt>
      <trkpt lat="46.71186" lon="-2.36323">
        <ele>18.4</ele>
        <time>2018-04-03T15:21:09Z</time>
      </trkpt>
      <trkpt lat="46.71191" lon="-2.3632">
        <ele>18.88</ele>
        <time>2018-04-03T15:21:13Z</time>
      </trkpt>
      <trkpt lat="46.71199" lon="-2.36315">
        <ele>17.92</ele>
        <time>2018-04-03T15:21:22Z</time>
      </trkpt>
      <trkpt lat="46.71205" lon="-2.3631">
        <ele>17.44</ele>
        <time>2018-04-03T15:21:28Z</time>
      </trkpt>
      <trkpt lat="46.71217" lon="-2.363">
        <ele>18.4</ele>
        <time>2018-04-03T15:21:39Z</time>
      </trkpt>
      <trkpt lat="46.71227" lon="-2.36285">
        <ele>16.96</ele>
        <time>2018-04-03T15:21:53Z</time>
      </trkpt>
      <trkpt lat="46.71232" lon="-2.36274">
        <ele>16.96</ele>
        <time>2018-04-03T15:22:01Z</time>
      </trkpt>
      <trkpt lat="46.7124" lon="-2.36257">
        <ele>16.96</ele>
        <time>2018-04-03T15:22:13Z</time>
      </trkpt>
      <trkpt lat="46.71252" lon="-2.3624">
        <ele>16</ele>
        <time>2018-04-03T15:22:28Z</time>
      </trkpt>
      <trkpt lat="46.71253" lon="-2.36239">
        <ele>15.52</ele>
        <time>2018-04-03T15:22:29Z</time>
      </trkpt>
      <trkpt lat="46.71259" lon="-2.36236">
        <ele>15.04</ele>
        <time>2018-04-03T15:22:34Z</time>
      </trkpt>
      <trkpt lat="46.71274" lon="-2.36224">
        <ele>16</ele>
        <time>2018-04-03T15:22:49Z</time>
      </trkpt>
      <trkpt lat="46.71282" lon="-2.36217">
        <ele>15.04</ele>
        <time>2018-04-03T15:23:01Z</time>
      </trkpt>
      <trkpt lat="46.71293" lon="-2.36206">
        <ele>13.6</ele>
        <time>2018-04-03T15:23:12Z</time>
      </trkpt>
      <trkpt lat="46.71296" lon="-2.36203">
        <ele>13.6</ele>
        <time>2018-04-03T15:23:16Z</time>
      </trkpt>
      <trkpt lat="46.71302" lon="-2.36198">
        <ele>14.56</ele>
        <time>2018-04-03T15:23:22Z</time>
      </trkpt>
      <trkpt lat="46.71312" lon="-2.36189">
        <ele>15.04</ele>
        <time>2018-04-03T15:23:34Z</time>
      </trkpt>
      <trkpt lat="46.71315" lon="-2.36187">
        <ele>15.04</ele>
        <time>2018-04-03T15:23:37Z</time>
      </trkpt>
      <trkpt lat="46.71323" lon="-2.36183">
        <ele>13.12</ele>
        <time>2018-04-03T15:23:47Z</time>
      </trkpt>
      <trkpt lat="46.71336" lon="-2.36174">
        <ele>12.63</ele>
        <time>2018-04-03T15:23:58Z</time>
      </trkpt>
      <trkpt lat="46.71347" lon="-2.36163">
        <ele>12.63</ele>
        <time>2018-04-03T15:24:11Z</time>
      </trkpt>
      <trkpt lat="46.71356" lon="-2.36162">
        <ele>14.56</ele>
        <time>2018-04-03T15:24:18Z</time>
      </trkpt>
      <trkpt lat="46.71367" lon="-2.3616">
        <ele>16.96</ele>
        <time>2018-04-03T15:24:31Z</time>
      </trkpt>
      <trkpt lat="46.71377" lon="-2.36148">
        <ele>16.48</ele>
        <time>2018-04-03T15:24:44Z</time>
      </trkpt>
      <trkpt lat="46.7138" lon="-2.36147">
        <ele>16</ele>
        <time>2018-04-03T15:24:47Z</time>
      </trkpt>
      <trkpt lat="46.71384" lon="-2.36143">
        <ele>15.52</ele>
        <time>2018-04-03T15:24:51Z</time>
      </trkpt>
      <trkpt lat="46.71388" lon="-2.36136">
        <ele>15.04</ele>
        <time>2018-04-03T15:25:05Z</time>
      </trkpt>
      <trkpt lat="46.71389" lon="-2.36137">
        <ele>16</ele>
        <time>2018-04-03T15:25:19Z</time>
      </trkpt>
      <trkpt lat="46.71391" lon="-2.36137">
        <ele>15.04</ele>
        <time>2018-04-03T15:25:30Z</time>
      </trkpt>
      <trkpt lat="46.71394" lon="-2.36138">
        <ele>15.52</ele>
        <time>2018-04-03T15:25:35Z</time>
      </trkpt>
      <trkpt lat="46.71411" lon="-2.36134">
        <ele>16.96</ele>
        <time>2018-04-03T15:25:50Z</time>
      </trkpt>
      <trkpt lat="46.71412" lon="-2.36132">
        <ele>16</ele>
        <time>2018-04-03T15:25:56Z</time>
      </trkpt>
      <trkpt lat="46.71426" lon="-2.36127">
        <ele>16.48</ele>
        <time>2018-04-03T15:26:10Z</time>
      </trkpt>
      <trkpt lat="46.71427" lon="-2.36126">
        <ele>16.48</ele>
        <time>2018-04-03T15:26:11Z</time>
      </trkpt>
      <trkpt lat="46.71431" lon="-2.36123">
        <ele>16.96</ele>
        <time>2018-04-03T15:26:15Z</time>
      </trkpt>
      <trkpt lat="46.71442" lon="-2.36116">
        <ele>16.96</ele>
        <time>2018-04-03T15:26:26Z</time>
      </trkpt>
      <trkpt lat="46.71445" lon="-2.36114">
        <ele>16.48</ele>
        <time>2018-04-03T15:26:42Z</time>
      </trkpt>
      <trkpt lat="46.7145" lon="-2.36112">
        <ele>16</ele>
        <time>2018-04-03T15:26:46Z</time>
      </trkpt>
      <trkpt lat="46.71451" lon="-2.3611">
        <ele>16</ele>
        <time>2018-04-03T15:26:48Z</time>
      </trkpt>
      <trkpt lat="46.71458" lon="-2.36109">
        <ele>15.52</ele>
        <time>2018-04-03T15:26:54Z</time>
      </trkpt>
      <trkpt lat="46.71465" lon="-2.36106">
        <ele>16</ele>
        <time>2018-04-03T15:27:00Z</time>
      </trkpt>
      <trkpt lat="46.71466" lon="-2.36104">
        <ele>15.52</ele>
        <time>2018-04-03T15:27:02Z</time>
      </trkpt>
      <trkpt lat="46.71473" lon="-2.361">
        <ele>14.56</ele>
        <time>2018-04-03T15:27:09Z</time>
      </trkpt>
      <trkpt lat="46.71482" lon="-2.36093">
        <ele>13.6</ele>
        <time>2018-04-03T15:27:19Z</time>
      </trkpt>
      <trkpt lat="46.71485" lon="-2.36091">
        <ele>13.6</ele>
        <time>2018-04-03T15:27:22Z</time>
      </trkpt>
      <trkpt lat="46.71494" lon="-2.36085">
        <ele>15.04</ele>
        <time>2018-04-03T15:27:33Z</time>
      </trkpt>
      <trkpt lat="46.715" lon="-2.36082">
        <ele>15.04</ele>
        <time>2018-04-03T15:27:36Z</time>
      </trkpt>
      <trkpt lat="46.7151" lon="-2.3608">
        <ele>14.08</ele>
        <time>2018-04-03T15:27:46Z</time>
      </trkpt>
      <trkpt lat="46.71518" lon="-2.36076">
        <ele>14.08</ele>
        <time>2018-04-03T15:27:54Z</time>
      </trkpt>
      <trkpt lat="46.7152" lon="-2.36076">
        <ele>14.08</ele>
        <time>2018-04-03T15:27:57Z</time>
      </trkpt>
      <trkpt lat="46.71525" lon="-2.36073">
        <ele>13.6</ele>
        <time>2018-04-03T15:28:02Z</time>
      </trkpt>
      <trkpt lat="46.71537" lon="-2.36067">
        <ele>13.12</ele>
        <time>2018-04-03T15:28:12Z</time>
      </trkpt>
      <trkpt lat="46.71548" lon="-2.36064">
        <ele>13.6</ele>
        <time>2018-04-03T15:28:21Z</time>
      </trkpt>
      <trkpt lat="46.71557" lon="-2.36063">
        <ele>13.6</ele>
        <time>2018-04-03T15:28:29Z</time>
      </trkpt>
      <trkpt lat="46.71563" lon="-2.36061">
        <ele>12.15</ele>
        <time>2018-04-03T15:28:35Z</time>
      </trkpt>
      <trkpt lat="46.71574" lon="-2.3606">
        <ele>11.67</ele>
        <time>2018-04-03T15:28:46Z</time>
      </trkpt>
      <trkpt lat="46.71583" lon="-2.36058">
        <ele>12.15</ele>
        <time>2018-04-03T15:28:54Z</time>
      </trkpt>
      <trkpt lat="46.7159" lon="-2.36057">
        <ele>13.12</ele>
        <time>2018-04-03T15:29:02Z</time>
      </trkpt>
      <trkpt lat="46.71601" lon="-2.36058">
        <ele>13.6</ele>
        <time>2018-04-03T15:29:12Z</time>
      </trkpt>
      <trkpt lat="46.71608" lon="-2.36056">
        <ele>13.6</ele>
        <time>2018-04-03T15:29:21Z</time>
      </trkpt>
      <trkpt lat="46.71608" lon="-2.36056">
        <ele>13.6</ele>
        <time>2018-04-03T15:29:22Z</time>
      </trkpt>
      <trkpt lat="46.71618" lon="-2.36054">
        <ele>14.08</ele>
        <time>2018-04-03T15:29:32Z</time>
      </trkpt>
      <trkpt lat="46.71625" lon="-2.36053">
        <ele>15.04</ele>
        <time>2018-04-03T15:29:40Z</time>
      </trkpt>
      <trkpt lat="46.71634" lon="-2.36061">
        <ele>16</ele>
        <time>2018-04-03T15:29:48Z</time>
      </trkpt>
      <trkpt lat="46.71645" lon="-2.36063">
        <ele>15.52</ele>
        <time>2018-04-03T15:29:58Z</time>
      </trkpt>
      <trkpt lat="46.7165" lon="-2.3607">
        <ele>15.04</ele>
        <time>2018-04-03T15:30:04Z</time>
      </trkpt>
      <trkpt lat="46.71659" lon="-2.36084">
        <ele>11.19</ele>
        <time>2018-04-03T15:30:17Z</time>
      </trkpt>
      <trkpt lat="46.71669" lon="-2.36104">
        <ele>12.15</ele>
        <time>2018-04-03T15:30:28Z</time>
      </trkpt>
      <trkpt lat="46.7167" lon="-2.36106">
        <ele>12.63</ele>
        <time>2018-04-03T15:30:30Z</time>
      </trkpt>
      <trkpt lat="46.71678" lon="-2.36114">
        <ele>15.04</ele>
        <time>2018-04-03T15:30:40Z</time>
      </trkpt>
      <trkpt lat="46.71678" lon="-2.36115">
        <ele>15.52</ele>
        <time>2018-04-03T15:30:41Z</time>
      </trkpt>
      <trkpt lat="46.71682" lon="-2.36118">
        <ele>16</ele>
        <time>2018-04-03T15:30:45Z</time>
      </trkpt>
      <trkpt lat="46.71685" lon="-2.36113">
        <ele>17.44</ele>
        <time>2018-04-03T15:30:50Z</time>
      </trkpt>
      <trkpt lat="46.7169" lon="-2.36108">
        <ele>18.88</ele>
        <time>2018-04-03T15:30:55Z</time>
      </trkpt>
      <trkpt lat="46.71696" lon="-2.36103">
        <ele>19.84</ele>
        <time>2018-04-03T15:31:02Z</time>
      </trkpt>
      <trkpt lat="46.71701" lon="-2.36097">
        <ele>21.29</ele>
        <time>2018-04-03T15:31:14Z</time>
      </trkpt>
      <trkpt lat="46.7171" lon="-2.36089">
        <ele>22.73</ele>
        <time>2018-04-03T15:31:23Z</time>
      </trkpt>
      <trkpt lat="46.71712" lon="-2.36084">
        <ele>22.25</ele>
        <time>2018-04-03T15:31:26Z</time>
      </trkpt>
      <trkpt lat="46.71721" lon="-2.36074">
        <ele>20.81</ele>
        <time>2018-04-03T15:31:35Z</time>
      </trkpt>
      <trkpt lat="46.71729" lon="-2.36064">
        <ele>19.84</ele>
        <time>2018-04-03T15:31:44Z</time>
      </trkpt>
      <trkpt lat="46.71732" lon="-2.36059">
        <ele>21.77</ele>
        <time>2018-04-03T15:31:50Z</time>
      </trkpt>
      <trkpt lat="46.71742" lon="-2.36047">
        <ele>22.73</ele>
        <time>2018-04-03T15:32:00Z</time>
      </trkpt>
      <trkpt lat="46.71749" lon="-2.36041">
        <ele>24.65</ele>
        <time>2018-04-03T15:32:11Z</time>
      </trkpt>
      <trkpt lat="46.71749" lon="-2.36041">
        <ele>24.65</ele>
        <time>2018-04-03T15:32:17Z</time>
      </trkpt>
      <trkpt lat="46.71745" lon="-2.36033">
        <ele>25.13</ele>
        <time>2018-04-03T15:32:30Z</time>
      </trkpt>
      <trkpt lat="46.71746" lon="-2.36028">
        <ele>24.65</ele>
        <time>2018-04-03T15:32:39Z</time>
      </trkpt>
      <trkpt lat="46.71746" lon="-2.36025">
        <ele>24.65</ele>
        <time>2018-04-03T15:32:41Z</time>
      </trkpt>
      <trkpt lat="46.71745" lon="-2.36001">
        <ele>21.77</ele>
        <time>2018-04-03T15:32:53Z</time>
      </trkpt>
      <trkpt lat="46.71745" lon="-2.35999">
        <ele>21.77</ele>
        <time>2018-04-03T15:32:54Z</time>
      </trkpt>
      <trkpt lat="46.71744" lon="-2.35992">
        <ele>20.32</ele>
        <time>2018-04-03T15:32:58Z</time>
      </trkpt>
      <trkpt lat="46.71745" lon="-2.35977">
        <ele>19.84</ele>
        <time>2018-04-03T15:33:09Z</time>
      </trkpt>
      <trkpt lat="46.71746" lon="-2.35965">
        <ele>20.81</ele>
        <time>2018-04-03T15:33:20Z</time>
      </trkpt>
      <trkpt lat="46.71746" lon="-2.3596">
        <ele>20.81</ele>
        <time>2018-04-03T15:33:25Z</time>
      </trkpt>
      <trkpt lat="46.71748" lon="-2.35953">
        <ele>19.36</ele>
        <time>2018-04-03T15:33:29Z</time>
      </trkpt>
      <trkpt lat="46.71749" lon="-2.35943">
        <ele>17.44</ele>
        <time>2018-04-03T15:33:36Z</time>
      </trkpt>
      <trkpt lat="46.71747" lon="-2.35929">
        <ele>16.48</ele>
        <time>2018-04-03T15:33:44Z</time>
      </trkpt>
      <trkpt lat="46.71751" lon="-2.35911">
        <ele>17.44</ele>
        <time>2018-04-03T15:33:54Z</time>
      </trkpt>
      <trkpt lat="46.71753" lon="-2.35889">
        <ele>19.84</ele>
        <time>2018-04-03T15:34:06Z</time>
      </trkpt>
      <trkpt lat="46.71755" lon="-2.35876">
        <ele>23.21</ele>
        <time>2018-04-03T15:34:13Z</time>
      </trkpt>
      <trkpt lat="46.71756" lon="-2.35868">
        <ele>23.69</ele>
        <time>2018-04-03T15:34:17Z</time>
      </trkpt>
      <trkpt lat="46.71757" lon="-2.35852">
        <ele>23.69</ele>
        <time>2018-04-03T15:34:25Z</time>
      </trkpt>
      <trkpt lat="46.71759" lon="-2.35834">
        <ele>21.77</ele>
        <time>2018-04-03T15:34:36Z</time>
      </trkpt>
      <trkpt lat="46.71761" lon="-2.35822">
        <ele>17.92</ele>
        <time>2018-04-03T15:34:45Z</time>
      </trkpt>
      <trkpt lat="46.71764" lon="-2.35818">
        <ele>16.48</ele>
        <time>2018-04-03T15:34:48Z</time>
      </trkpt>
      <trkpt lat="46.71768" lon="-2.35803">
        <ele>11.67</ele>
        <time>2018-04-03T15:34:59Z</time>
      </trkpt>
      <trkpt lat="46.71774" lon="-2.35785">
        <ele>10.71</ele>
        <time>2018-04-03T15:35:13Z</time>
      </trkpt>
      <trkpt lat="46.71775" lon="-2.35779">
        <ele>11.19</ele>
        <time>2018-04-03T15:35:17Z</time>
      </trkpt>
      <trkpt lat="46.71789" lon="-2.35754">
        <ele>14.08</ele>
        <time>2018-04-03T15:35:33Z</time>
      </trkpt>
      <trkpt lat="46.71794" lon="-2.35741">
        <ele>13.6</ele>
        <time>2018-04-03T15:35:40Z</time>
      </trkpt>
      <trkpt lat="46.71796" lon="-2.35723">
        <ele>14.08</ele>
        <time>2018-04-03T15:35:51Z</time>
      </trkpt>
      <trkpt lat="46.71797" lon="-2.35719">
        <ele>15.04</ele>
        <time>2018-04-03T15:35:57Z</time>
      </trkpt>
      <trkpt lat="46.71799" lon="-2.35711">
        <ele>16.48</ele>
        <time>2018-04-03T15:36:02Z</time>
      </trkpt>
      <trkpt lat="46.71807" lon="-2.35704">
        <ele>19.84</ele>
        <time>2018-04-03T15:36:16Z</time>
      </trkpt>
      <trkpt lat="46.71806" lon="-2.35702">
        <ele>21.29</ele>
        <time>2018-04-03T15:36:28Z</time>
      </trkpt>
      <trkpt lat="46.7181" lon="-2.35698">
        <ele>22.73</ele>
        <time>2018-04-03T15:36:40Z</time>
      </trkpt>
      <trkpt lat="46.71817" lon="-2.35695">
        <ele>23.69</ele>
        <time>2018-04-03T15:36:47Z</time>
      </trkpt>
      <trkpt lat="46.71827" lon="-2.35687">
        <ele>25.13</ele>
        <time>2018-04-03T15:36:56Z</time>
      </trkpt>
      <trkpt lat="46.7183" lon="-2.35686">
        <ele>25.13</ele>
        <time>2018-04-03T15:37:01Z</time>
      </trkpt>
      <trkpt lat="46.7184" lon="-2.35686">
        <ele>24.17</ele>
        <time>2018-04-03T15:37:13Z</time>
      </trkpt>
      <trkpt lat="46.71848" lon="-2.35689">
        <ele>24.65</ele>
        <time>2018-04-03T15:37:26Z</time>
      </trkpt>
      <trkpt lat="46.71853" lon="-2.3569">
        <ele>25.13</ele>
        <time>2018-04-03T15:37:40Z</time>
      </trkpt>
      <trkpt lat="46.71853" lon="-2.35697">
        <ele>23.69</ele>
        <time>2018-04-03T15:37:50Z</time>
      </trkpt>
      <trkpt lat="46.71855" lon="-2.35708">
        <ele>21.77</ele>
        <time>2018-04-03T15:38:00Z</time>
      </trkpt>
      <trkpt lat="46.71858" lon="-2.35718">
        <ele>19.84</ele>
        <time>2018-04-03T15:38:12Z</time>
      </trkpt>
      <trkpt lat="46.71859" lon="-2.3573">
        <ele>18.88</ele>
        <time>2018-04-03T15:38:21Z</time>
      </trkpt>
      <trkpt lat="46.71858" lon="-2.35734">
        <ele>19.84</ele>
        <time>2018-04-03T15:38:33Z</time>
      </trkpt>
      <trkpt lat="46.71861" lon="-2.35737">
        <ele>22.73</ele>
        <time>2018-04-03T15:38:45Z</time>
      </trkpt>
      <trkpt lat="46.71869" lon="-2.35736">
        <ele>23.69</ele>
        <time>2018-04-03T15:38:56Z</time>
      </trkpt>
      <trkpt lat="46.71877" lon="-2.35736">
        <ele>24.17</ele>
        <time>2018-04-03T15:39:06Z</time>
      </trkpt>
      <trkpt lat="46.71883" lon="-2.3572">
        <ele>22.73</ele>
        <time>2018-04-03T15:39:27Z</time>
      </trkpt>
      <trkpt lat="46.71885" lon="-2.35726">
        <ele>22.25</ele>
        <time>2018-04-03T15:39:52Z</time>
      </trkpt>
      <trkpt lat="46.71884" lon="-2.35734">
        <ele>21.29</ele>
        <time>2018-04-03T15:40:01Z</time>
      </trkpt>
      <trkpt lat="46.71883" lon="-2.35739">
        <ele>23.21</ele>
        <time>2018-04-03T15:40:12Z</time>
      </trkpt>
      <trkpt lat="46.71886" lon="-2.35743">
        <ele>23.69</ele>
        <time>2018-04-03T15:40:17Z</time>
      </trkpt>
      <trkpt lat="46.71902" lon="-2.35747">
        <ele>23.69</ele>
        <time>2018-04-03T15:40:30Z</time>
      </trkpt>
      <trkpt lat="46.71904" lon="-2.3575">
        <ele>23.69</ele>
        <time>2018-04-03T15:40:33Z</time>
      </trkpt>
      <trkpt lat="46.71908" lon="-2.3575">
        <ele>24.17</ele>
        <time>2018-04-03T15:40:37Z</time>
      </trkpt>
      <trkpt lat="46.71915" lon="-2.35757">
        <ele>24.65</ele>
        <time>2018-04-03T15:40:47Z</time>
      </trkpt>
      <trkpt lat="46.71917" lon="-2.35759">
        <ele>24.65</ele>
        <time>2018-04-03T15:40:49Z</time>
      </trkpt>
      <trkpt lat="46.71927" lon="-2.35767">
        <ele>24.17</ele>
        <time>2018-04-03T15:41:01Z</time>
      </trkpt>
      <trkpt lat="46.71934" lon="-2.35771">
        <ele>24.65</ele>
        <time>2018-04-03T15:41:13Z</time>
      </trkpt>
      <trkpt lat="46.71944" lon="-2.35772">
        <ele>23.69</ele>
        <time>2018-04-03T15:41:23Z</time>
      </trkpt>
      <trkpt lat="46.7195" lon="-2.35773">
        <ele>24.65</ele>
        <time>2018-04-03T15:41:33Z</time>
      </trkpt>
      <trkpt lat="46.71951" lon="-2.35774">
        <ele>25.13</ele>
        <time>2018-04-03T15:41:39Z</time>
      </trkpt>
      <trkpt lat="46.71956" lon="-2.35776">
        <ele>25.61</ele>
        <time>2018-04-03T15:41:45Z</time>
      </trkpt>
      <trkpt lat="46.71969" lon="-2.35776">
        <ele>27.53</ele>
        <time>2018-04-03T15:41:56Z</time>
      </trkpt>
      <trkpt lat="46.71982" lon="-2.35782">
        <ele>25.61</ele>
        <time>2018-04-03T15:42:08Z</time>
      </trkpt>
      <trkpt lat="46.7199" lon="-2.35788">
        <ele>22.73</ele>
        <time>2018-04-03T15:42:19Z</time>
      </trkpt>
      <trkpt lat="46.71998" lon="-2.35799">
        <ele>21.29</ele>
        <time>2018-04-03T15:42:32Z</time>
      </trkpt>
      <trkpt lat="46.72" lon="-2.35807">
        <ele>21.29</ele>
        <time>2018-04-03T15:42:42Z</time>
      </trkpt>
      <trkpt lat="46.72009" lon="-2.3582">
        <ele>19.36</ele>
        <time>2018-04-03T15:42:56Z</time>
      </trkpt>
      <trkpt lat="46.72017" lon="-2.35835">
        <ele>16.48</ele>
        <time>2018-04-03T15:43:07Z</time>
      </trkpt>
      <trkpt lat="46.72023" lon="-2.35847">
        <ele>13.6</ele>
        <time>2018-04-03T15:43:17Z</time>
      </trkpt>
      <trkpt lat="46.72027" lon="-2.35863">
        <ele>10.23</ele>
        <time>2018-04-03T15:43:28Z</time>
      </trkpt>
      <trkpt lat="46.72026" lon="-2.35871">
        <ele>11.19</ele>
        <time>2018-04-03T15:43:43Z</time>
      </trkpt>
      <trkpt lat="46.72026" lon="-2.35877">
        <ele>13.6</ele>
        <time>2018-04-03T15:44:06Z</time>
      </trkpt>
      <trkpt lat="46.72023" lon="-2.35879">
        <ele>16.48</ele>
        <time>2018-04-03T15:44:24Z</time>
      </trkpt>
      <trkpt lat="46.72023" lon="-2.35879">
        <ele>16.96</ele>
        <time>2018-04-03T15:44:25Z</time>
      </trkpt>
      <trkpt lat="46.72025" lon="-2.35879">
        <ele>16.96</ele>
        <time>2018-04-03T15:44:37Z</time>
      </trkpt>
      <trkpt lat="46.72025" lon="-2.35879">
        <ele>17.44</ele>
        <time>2018-04-03T15:44:48Z</time>
      </trkpt>
      <trkpt lat="46.72026" lon="-2.35879">
        <ele>18.4</ele>
        <time>2018-04-03T15:45:01Z</time>
      </trkpt>
      <trkpt lat="46.72027" lon="-2.35879">
        <ele>18.88</ele>
        <time>2018-04-03T15:45:09Z</time>
      </trkpt>
      <trkpt lat="46.72023" lon="-2.35882">
        <ele>18.88</ele>
        <time>2018-04-03T15:45:16Z</time>
      </trkpt>
      <trkpt lat="46.72017" lon="-2.35889">
        <ele>19.36</ele>
        <time>2018-04-03T15:45:24Z</time>
      </trkpt>
      <trkpt lat="46.72011" lon="-2.35896">
        <ele>18.88</ele>
        <time>2018-04-03T15:45:31Z</time>
      </trkpt>
      <trkpt lat="46.72006" lon="-2.35897">
        <ele>18.4</ele>
        <time>2018-04-03T15:45:35Z</time>
      </trkpt>
      <trkpt lat="46.71993" lon="-2.35893">
        <ele>19.36</ele>
        <time>2018-04-03T15:45:44Z</time>
      </trkpt>
      <trkpt lat="46.71976" lon="-2.35895">
        <ele>19.84</ele>
        <time>2018-04-03T15:45:56Z</time>
      </trkpt>
      <trkpt lat="46.71973" lon="-2.359">
        <ele>21.77</ele>
        <time>2018-04-03T15:46:02Z</time>
      </trkpt>
      <trkpt lat="46.71964" lon="-2.35905">
        <ele>20.32</ele>
        <time>2018-04-03T15:46:17Z</time>
      </trkpt>
      <trkpt lat="46.71962" lon="-2.35905">
        <ele>19.36</ele>
        <time>2018-04-03T15:46:20Z</time>
      </trkpt>
      <trkpt lat="46.71944" lon="-2.35898">
        <ele>15.52</ele>
        <time>2018-04-03T15:46:40Z</time>
      </trkpt>
      <trkpt lat="46.71937" lon="-2.35896">
        <ele>17.44</ele>
        <time>2018-04-03T15:46:54Z</time>
      </trkpt>
      <trkpt lat="46.71937" lon="-2.35897">
        <ele>17.92</ele>
        <time>2018-04-03T15:47:11Z</time>
      </trkpt>
      <trkpt lat="46.71935" lon="-2.35898">
        <ele>18.88</ele>
        <time>2018-04-03T15:47:23Z</time>
      </trkpt>
      <trkpt lat="46.71933" lon="-2.35892">
        <ele>19.36</ele>
        <time>2018-04-03T15:47:33Z</time>
      </trkpt>
      <trkpt lat="46.71931" lon="-2.35888">
        <ele>21.29</ele>
        <time>2018-04-03T15:47:44Z</time>
      </trkpt>
      <trkpt lat="46.71933" lon="-2.35887">
        <ele>20.81</ele>
        <time>2018-04-03T15:47:47Z</time>
      </trkpt>
      <trkpt lat="46.71935" lon="-2.35888">
        <ele>20.81</ele>
        <time>2018-04-03T15:47:49Z</time>
      </trkpt>
      <trkpt lat="46.71941" lon="-2.35888">
        <ele>19.84</ele>
        <time>2018-04-03T15:48:03Z</time>
      </trkpt>
      <trkpt lat="46.7194" lon="-2.35887">
        <ele>18.88</ele>
        <time>2018-04-03T15:48:29Z</time>
      </trkpt>
      <trkpt lat="46.7194" lon="-2.35888">
        <ele>18.88</ele>
        <time>2018-04-03T15:48:51Z</time>
      </trkpt>
      <trkpt lat="46.71941" lon="-2.35887">
        <ele>19.36</ele>
        <time>2018-04-03T15:49:21Z</time>
      </trkpt>
      <trkpt lat="46.71941" lon="-2.35887">
        <ele>19.36</ele>
        <time>2018-04-03T15:49:47Z</time>
      </trkpt>
      <trkpt lat="46.71941" lon="-2.3589">
        <ele>19.36</ele>
        <time>2018-04-03T15:50:08Z</time>
      </trkpt>
      <trkpt lat="46.71942" lon="-2.35893">
        <ele>19.36</ele>
        <time>2018-04-03T15:50:26Z</time>
      </trkpt>
      <trkpt lat="46.71949" lon="-2.359">
        <ele>17.92</ele>
        <time>2018-04-03T15:50:44Z</time>
      </trkpt>
      <trkpt lat="46.71965" lon="-2.35907">
        <ele>18.4</ele>
        <time>2018-04-03T15:51:23Z</time>
      </trkpt>
      <trkpt lat="46.71969" lon="-2.35909">
        <ele>19.36</ele>
        <time>2018-04-03T15:51:27Z</time>
      </trkpt>
      <trkpt lat="46.71975" lon="-2.35913">
        <ele>18.88</ele>
        <time>2018-04-03T15:51:31Z</time>
      </trkpt>
      <trkpt lat="46.7198" lon="-2.35914">
        <ele>19.36</ele>
        <time>2018-04-03T15:51:35Z</time>
      </trkpt>
      <trkpt lat="46.71998" lon="-2.35905">
        <ele>18.88</ele>
        <time>2018-04-03T15:51:51Z</time>
      </trkpt>
      <trkpt lat="46.72" lon="-2.35903">
        <ele>19.36</ele>
        <time>2018-04-03T15:51:53Z</time>
      </trkpt>
      <trkpt lat="46.72004" lon="-2.35902">
        <ele>19.84</ele>
        <time>2018-04-03T15:51:56Z</time>
      </trkpt>
      <trkpt lat="46.72015" lon="-2.35888">
        <ele>23.21</ele>
        <time>2018-04-03T15:52:10Z</time>
      </trkpt>
      <trkpt lat="46.72016" lon="-2.35884">
        <ele>25.13</ele>
        <time>2018-04-03T15:52:27Z</time>
      </trkpt>
      <trkpt lat="46.72023" lon="-2.35875">
        <ele>25.61</ele>
        <time>2018-04-03T15:52:39Z</time>
      </trkpt>
      <trkpt lat="46.7203" lon="-2.35868">
        <ele>23.69</ele>
        <time>2018-04-03T15:52:50Z</time>
      </trkpt>
      <trkpt lat="46.72037" lon="-2.35862">
        <ele>22.73</ele>
        <time>2018-04-03T15:52:57Z</time>
      </trkpt>
      <trkpt lat="46.7204" lon="-2.35856">
        <ele>21.77</ele>
        <time>2018-04-03T15:53:02Z</time>
      </trkpt>
      <trkpt lat="46.72041" lon="-2.3585">
        <ele>20.81</ele>
        <time>2018-04-03T15:53:07Z</time>
      </trkpt>
      <trkpt lat="46.72047" lon="-2.35838">
        <ele>18.88</ele>
        <time>2018-04-03T15:53:18Z</time>
      </trkpt>
      <trkpt lat="46.72048" lon="-2.35835">
        <ele>18.4</ele>
        <time>2018-04-03T15:53:20Z</time>
      </trkpt>
      <trkpt lat="46.72052" lon="-2.35818">
        <ele>18.88</ele>
        <time>2018-04-03T15:53:32Z</time>
      </trkpt>
      <trkpt lat="46.72055" lon="-2.35812">
        <ele>19.36</ele>
        <time>2018-04-03T15:53:37Z</time>
      </trkpt>
      <trkpt lat="46.72054" lon="-2.35806">
        <ele>19.84</ele>
        <time>2018-04-03T15:53:41Z</time>
      </trkpt>
      <trkpt lat="46.72055" lon="-2.35798">
        <ele>19.36</ele>
        <time>2018-04-03T15:53:46Z</time>
      </trkpt>
      <trkpt lat="46.72054" lon="-2.35787">
        <ele>18.4</ele>
        <time>2018-04-03T15:53:57Z</time>
      </trkpt>
      <trkpt lat="46.72055" lon="-2.35783">
        <ele>17.44</ele>
        <time>2018-04-03T15:53:59Z</time>
      </trkpt>
      <trkpt lat="46.72057" lon="-2.35775">
        <ele>16</ele>
        <time>2018-04-03T15:54:03Z</time>
      </trkpt>
      <trkpt lat="46.72055" lon="-2.3576">
        <ele>12.63</ele>
        <time>2018-04-03T15:54:14Z</time>
      </trkpt>
      <trkpt lat="46.7207" lon="-2.35741">
        <ele>8.31</ele>
        <time>2018-04-03T15:54:28Z</time>
      </trkpt>
      <trkpt lat="46.72082" lon="-2.35729">
        <ele>10.23</ele>
        <time>2018-04-03T15:54:36Z</time>
      </trkpt>
      <trkpt lat="46.72089" lon="-2.35724">
        <ele>12.63</ele>
        <time>2018-04-03T15:54:41Z</time>
      </trkpt>
      <trkpt lat="46.7209" lon="-2.35721">
        <ele>13.6</ele>
        <time>2018-04-03T15:54:43Z</time>
      </trkpt>
      <trkpt lat="46.72103" lon="-2.35709">
        <ele>16</ele>
        <time>2018-04-03T15:54:56Z</time>
      </trkpt>
      <trkpt lat="46.72114" lon="-2.35695">
        <ele>16.48</ele>
        <time>2018-04-03T15:55:08Z</time>
      </trkpt>
      <trkpt lat="46.72128" lon="-2.35676">
        <ele>16</ele>
        <time>2018-04-03T15:55:23Z</time>
      </trkpt>
      <trkpt lat="46.7213" lon="-2.35672">
        <ele>16.48</ele>
        <time>2018-04-03T15:55:26Z</time>
      </trkpt>
      <trkpt lat="46.72135" lon="-2.35666">
        <ele>16.48</ele>
        <time>2018-04-03T15:55:31Z</time>
      </trkpt>
      <trkpt lat="46.72143" lon="-2.35654">
        <ele>16</ele>
        <time>2018-04-03T15:55:42Z</time>
      </trkpt>
      <trkpt lat="46.7215" lon="-2.35637">
        <ele>15.52</ele>
        <time>2018-04-03T15:55:54Z</time>
      </trkpt>
      <trkpt lat="46.72154" lon="-2.3563">
        <ele>16.48</ele>
        <time>2018-04-03T15:55:59Z</time>
      </trkpt>
      <trkpt lat="46.72161" lon="-2.3561">
        <ele>16</ele>
        <time>2018-04-03T15:56:12Z</time>
      </trkpt>
      <trkpt lat="46.72168" lon="-2.35592">
        <ele>15.52</ele>
        <time>2018-04-03T15:56:25Z</time>
      </trkpt>
      <trkpt lat="46.72169" lon="-2.35588">
        <ele>15.04</ele>
        <time>2018-04-03T15:56:28Z</time>
      </trkpt>
      <trkpt lat="46.7217" lon="-2.35585">
        <ele>15.04</ele>
        <time>2018-04-03T15:56:30Z</time>
      </trkpt>
      <trkpt lat="46.72177" lon="-2.35564">
        <ele>14.08</ele>
        <time>2018-04-03T15:56:44Z</time>
      </trkpt>
      <trkpt lat="46.72187" lon="-2.35546">
        <ele>13.12</ele>
        <time>2018-04-03T15:56:58Z</time>
      </trkpt>
      <trkpt lat="46.72188" lon="-2.35543">
        <ele>13.12</ele>
        <time>2018-04-03T15:57:00Z</time>
      </trkpt>
      <trkpt lat="46.72194" lon="-2.35534">
        <ele>13.12</ele>
        <time>2018-04-03T15:57:06Z</time>
      </trkpt>
      <trkpt lat="46.72196" lon="-2.3553">
        <ele>12.15</ele>
        <time>2018-04-03T15:57:10Z</time>
      </trkpt>
      <trkpt lat="46.722" lon="-2.35526">
        <ele>11.67</ele>
        <time>2018-04-03T15:57:14Z</time>
      </trkpt>
      <trkpt lat="46.72209" lon="-2.35512">
        <ele>9.75</ele>
        <time>2018-04-03T15:57:27Z</time>
      </trkpt>
      <trkpt lat="46.72213" lon="-2.35508">
        <ele>9.27</ele>
        <time>2018-04-03T15:57:34Z</time>
      </trkpt>
      <trkpt lat="46.72219" lon="-2.35503">
        <ele>8.31</ele>
        <time>2018-04-03T15:57:41Z</time>
      </trkpt>
      <trkpt lat="46.72228" lon="-2.35492">
        <ele>9.75</ele>
        <time>2018-04-03T15:57:50Z</time>
      </trkpt>
      <trkpt lat="46.72235" lon="-2.35485">
        <ele>9.75</ele>
        <time>2018-04-03T15:57:57Z</time>
      </trkpt>
      <trkpt lat="46.72245" lon="-2.35473">
        <ele>9.27</ele>
        <time>2018-04-03T15:58:09Z</time>
      </trkpt>
      <trkpt lat="46.72245" lon="-2.35473">
        <ele>9.27</ele>
        <time>2018-04-03T15:58:10Z</time>
      </trkpt>
      <trkpt lat="46.72245" lon="-2.35472">
        <ele>9.27</ele>
        <time>2018-04-03T15:58:23Z</time>
      </trkpt>
      <trkpt lat="46.72246" lon="-2.35472">
        <ele>9.75</ele>
        <time>2018-04-03T15:58:37Z</time>
      </trkpt>
      <trkpt lat="46.72246" lon="-2.35471">
        <ele>9.75</ele>
        <time>2018-04-03T15:58:54Z</time>
      </trkpt>
      <trkpt lat="46.72245" lon="-2.35472">
        <ele>10.23</ele>
        <time>2018-04-03T15:59:10Z</time>
      </trkpt>
      <trkpt lat="46.72242" lon="-2.35474">
        <ele>10.23</ele>
        <time>2018-04-03T15:59:13Z</time>
      </trkpt>
      <trkpt lat="46.7224" lon="-2.35478">
        <ele>10.71</ele>
        <time>2018-04-03T15:59:27Z</time>
      </trkpt>
      <trkpt lat="46.72236" lon="-2.35482">
        <ele>9.75</ele>
        <time>2018-04-03T15:59:36Z</time>
      </trkpt>
      <trkpt lat="46.72223" lon="-2.35492">
        <ele>9.75</ele>
        <time>2018-04-03T15:59:50Z</time>
      </trkpt>
      <trkpt lat="46.72221" lon="-2.35495">
        <ele>9.27</ele>
        <time>2018-04-03T15:59:53Z</time>
      </trkpt>
      <trkpt lat="46.72211" lon="-2.35505">
        <ele>7.35</ele>
        <time>2018-04-03T16:00:07Z</time>
      </trkpt>
      <trkpt lat="46.72212" lon="-2.35506">
        <ele>8.31</ele>
        <time>2018-04-03T16:00:12Z</time>
      </trkpt>
      <trkpt lat="46.72202" lon="-2.35507">
        <ele>8.79</ele>
        <time>2018-04-03T16:00:25Z</time>
      </trkpt>
      <trkpt lat="46.72201" lon="-2.35507">
        <ele>8.79</ele>
        <time>2018-04-03T16:00:27Z</time>
      </trkpt>
      <trkpt lat="46.72196" lon="-2.35496">
        <ele>9.27</ele>
        <time>2018-04-03T16:00:40Z</time>
      </trkpt>
      <trkpt lat="46.72196" lon="-2.35495">
        <ele>10.71</ele>
        <time>2018-04-03T16:00:53Z</time>
      </trkpt>
      <trkpt lat="46.72196" lon="-2.35495">
        <ele>11.19</ele>
        <time>2018-04-03T16:01:07Z</time>
      </trkpt>
      <trkpt lat="46.72194" lon="-2.3549">
        <ele>11.67</ele>
        <time>2018-04-03T16:01:24Z</time>
      </trkpt>
      <trkpt lat="46.7219" lon="-2.35484">
        <ele>11.67</ele>
        <time>2018-04-03T16:01:28Z</time>
      </trkpt>
      <trkpt lat="46.72187" lon="-2.35479">
        <ele>12.15</ele>
        <time>2018-04-03T16:01:34Z</time>
      </trkpt>
      <trkpt lat="46.72184" lon="-2.35473">
        <ele>12.15</ele>
        <time>2018-04-03T16:01:39Z</time>
      </trkpt>
      <trkpt lat="46.72183" lon="-2.3547">
        <ele>12.63</ele>
        <time>2018-04-03T16:01:41Z</time>
      </trkpt>
      <trkpt lat="46.72178" lon="-2.35455">
        <ele>12.15</ele>
        <time>2018-04-03T16:01:51Z</time>
      </trkpt>
      <trkpt lat="46.72176" lon="-2.35451">
        <ele>12.15</ele>
        <time>2018-04-03T16:01:54Z</time>
      </trkpt>
      <trkpt lat="46.7217" lon="-2.35433">
        <ele>12.63</ele>
        <time>2018-04-03T16:02:07Z</time>
      </trkpt>
      <trkpt lat="46.72164" lon="-2.35416">
        <ele>14.08</ele>
        <time>2018-04-03T16:02:17Z</time>
      </trkpt>
      <trkpt lat="46.72161" lon="-2.35406">
        <ele>15.04</ele>
        <time>2018-04-03T16:02:27Z</time>
      </trkpt>
      <trkpt lat="46.72158" lon="-2.35392">
        <ele>15.04</ele>
        <time>2018-04-03T16:02:36Z</time>
      </trkpt>
      <trkpt lat="46.72153" lon="-2.35375">
        <ele>13.6</ele>
        <time>2018-04-03T16:02:47Z</time>
      </trkpt>
      <trkpt lat="46.72146" lon="-2.35361">
        <ele>14.08</ele>
        <time>2018-04-03T16:02:58Z</time>
      </trkpt>
      <trkpt lat="46.7214" lon="-2.35346">
        <ele>14.08</ele>
        <time>2018-04-03T16:03:08Z</time>
      </trkpt>
      <trkpt lat="46.72137" lon="-2.35341">
        <ele>13.6</ele>
        <time>2018-04-03T16:03:12Z</time>
      </trkpt>
      <trkpt lat="46.72132" lon="-2.35326">
        <ele>13.12</ele>
        <time>2018-04-03T16:03:23Z</time>
      </trkpt>
      <trkpt lat="46.72127" lon="-2.35311">
        <ele>13.12</ele>
        <time>2018-04-03T16:03:33Z</time>
      </trkpt>
      <trkpt lat="46.72124" lon="-2.35303">
        <ele>12.63</ele>
        <time>2018-04-03T16:03:39Z</time>
      </trkpt>
      <trkpt lat="46.72121" lon="-2.35286">
        <ele>12.15</ele>
        <time>2018-04-03T16:03:50Z</time>
      </trkpt>
      <trkpt lat="46.72118" lon="-2.35269">
        <ele>10.71</ele>
        <time>2018-04-03T16:04:00Z</time>
      </trkpt>
      <trkpt lat="46.72116" lon="-2.35259">
        <ele>10.71</ele>
        <time>2018-04-03T16:04:07Z</time>
      </trkpt>
      <trkpt lat="46.72116" lon="-2.35238">
        <ele>10.71</ele>
        <time>2018-04-03T16:04:19Z</time>
      </trkpt>
      <trkpt lat="46.72117" lon="-2.35226">
        <ele>12.15</ele>
        <time>2018-04-03T16:04:33Z</time>
      </trkpt>
      <trkpt lat="46.72121" lon="-2.35206">
        <ele>11.67</ele>
        <time>2018-04-03T16:04:50Z</time>
      </trkpt>
      <trkpt lat="46.72122" lon="-2.35186">
        <ele>10.23</ele>
        <time>2018-04-03T16:05:01Z</time>
      </trkpt>
      <trkpt lat="46.72124" lon="-2.35169">
        <ele>11.67</ele>
        <time>2018-04-03T16:05:12Z</time>
      </trkpt>
      <trkpt lat="46.72121" lon="-2.35158">
        <ele>11.67</ele>
        <time>2018-04-03T16:05:21Z</time>
      </trkpt>
      <trkpt lat="46.72118" lon="-2.35149">
        <ele>11.19</ele>
        <time>2018-04-03T16:05:26Z</time>
      </trkpt>
      <trkpt lat="46.72112" lon="-2.35133">
        <ele>12.15</ele>
        <time>2018-04-03T16:05:37Z</time>
      </trkpt>
      <trkpt lat="46.7211" lon="-2.35126">
        <ele>12.63</ele>
        <time>2018-04-03T16:05:40Z</time>
      </trkpt>
      <trkpt lat="46.72107" lon="-2.35115">
        <ele>13.12</ele>
        <time>2018-04-03T16:05:48Z</time>
      </trkpt>
      <trkpt lat="46.72101" lon="-2.35101">
        <ele>13.12</ele>
        <time>2018-04-03T16:05:58Z</time>
      </trkpt>
      <trkpt lat="46.72099" lon="-2.35095">
        <ele>14.08</ele>
        <time>2018-04-03T16:06:02Z</time>
      </trkpt>
      <trkpt lat="46.72097" lon="-2.35092">
        <ele>14.08</ele>
        <time>2018-04-03T16:06:06Z</time>
      </trkpt>
      <trkpt lat="46.72092" lon="-2.35073">
        <ele>14.56</ele>
        <time>2018-04-03T16:06:17Z</time>
      </trkpt>
      <trkpt lat="46.7209" lon="-2.35066">
        <ele>14.08</ele>
        <time>2018-04-03T16:06:21Z</time>
      </trkpt>
      <trkpt lat="46.72088" lon="-2.35061">
        <ele>13.12</ele>
        <time>2018-04-03T16:06:25Z</time>
      </trkpt>
      <trkpt lat="46.72085" lon="-2.35051">
        <ele>11.67</ele>
        <time>2018-04-03T16:06:32Z</time>
      </trkpt>
      <trkpt lat="46.72083" lon="-2.35039">
        <ele>13.12</ele>
        <time>2018-04-03T16:06:39Z</time>
      </trkpt>
      <trkpt lat="46.72081" lon="-2.35037">
        <ele>13.12</ele>
        <time>2018-04-03T16:06:53Z</time>
      </trkpt>
      <trkpt lat="46.72079" lon="-2.35036">
        <ele>13.6</ele>
        <time>2018-04-03T16:06:58Z</time>
      </trkpt>
      <trkpt lat="46.72072" lon="-2.3503">
        <ele>14.08</ele>
        <time>2018-04-03T16:07:04Z</time>
      </trkpt>
      <trkpt lat="46.72064" lon="-2.35032">
        <ele>14.08</ele>
        <time>2018-04-03T16:07:10Z</time>
      </trkpt>
      <trkpt lat="46.7206" lon="-2.35034">
        <ele>14.08</ele>
        <time>2018-04-03T16:07:14Z</time>
      </trkpt>
      <trkpt lat="46.72051" lon="-2.35036">
        <ele>15.04</ele>
        <time>2018-04-03T16:07:22Z</time>
      </trkpt>
      <trkpt lat="46.72037" lon="-2.35039">
        <ele>16.48</ele>
        <time>2018-04-03T16:07:34Z</time>
      </trkpt>
      <trkpt lat="46.72037" lon="-2.35038">
        <ele>16.48</ele>
        <time>2018-04-03T16:07:40Z</time>
      </trkpt>
      <trkpt lat="46.72033" lon="-2.35032">
        <ele>15.04</ele>
        <time>2018-04-03T16:07:50Z</time>
      </trkpt>
      <trkpt lat="46.72033" lon="-2.35032">
        <ele>14.56</ele>
        <time>2018-04-03T16:07:59Z</time>
      </trkpt>
      <trkpt lat="46.72033" lon="-2.35032">
        <ele>14.56</ele>
        <time>2018-04-03T16:08:11Z</time>
      </trkpt>
      <trkpt lat="46.72034" lon="-2.35032">
        <ele>13.12</ele>
        <time>2018-04-03T16:08:25Z</time>
      </trkpt>
      <trkpt lat="46.72035" lon="-2.35031">
        <ele>13.12</ele>
        <time>2018-04-03T16:08:52Z</time>
      </trkpt>
      <trkpt lat="46.72035" lon="-2.35031">
        <ele>12.63</ele>
        <time>2018-04-03T16:08:56Z</time>
      </trkpt>
      <trkpt lat="46.72031" lon="-2.3503">
        <ele>12.63</ele>
        <time>2018-04-03T16:09:01Z</time>
      </trkpt>
      <trkpt lat="46.72029" lon="-2.35028">
        <ele>12.15</ele>
        <time>2018-04-03T16:09:03Z</time>
      </trkpt>
      <trkpt lat="46.72019" lon="-2.35022">
        <ele>11.67</ele>
        <time>2018-04-03T16:09:12Z</time>
      </trkpt>
      <trkpt lat="46.72012" lon="-2.35011">
        <ele>13.12</ele>
        <time>2018-04-03T16:09:22Z</time>
      </trkpt>
      <trkpt lat="46.72005" lon="-2.35005">
        <ele>13.6</ele>
        <time>2018-04-03T16:09:29Z</time>
      </trkpt>
      <trkpt lat="46.72" lon="-2.34998">
        <ele>12.63</ele>
        <time>2018-04-03T16:09:36Z</time>
      </trkpt>
      <trkpt lat="46.7199" lon="-2.34986">
        <ele>12.63</ele>
        <time>2018-04-03T16:09:46Z</time>
      </trkpt>
      <trkpt lat="46.71982" lon="-2.34977">
        <ele>11.19</ele>
        <time>2018-04-03T16:09:56Z</time>
      </trkpt>
      <trkpt lat="46.7198" lon="-2.34977">
        <ele>10.71</ele>
        <time>2018-04-03T16:09:59Z</time>
      </trkpt>
      <trkpt lat="46.71972" lon="-2.34979">
        <ele>10.23</ele>
        <time>2018-04-03T16:10:09Z</time>
      </trkpt>
      <trkpt lat="46.7197" lon="-2.34982">
        <ele>10.23</ele>
        <time>2018-04-03T16:10:12Z</time>
      </trkpt>
      <trkpt lat="46.71969" lon="-2.34993">
        <ele>9.75</ele>
        <time>2018-04-03T16:10:20Z</time>
      </trkpt>
      <trkpt lat="46.71971" lon="-2.35004">
        <ele>9.27</ele>
        <time>2018-04-03T16:10:30Z</time>
      </trkpt>
      <trkpt lat="46.7197" lon="-2.35004">
        <ele>9.27</ele>
        <time>2018-04-03T16:10:36Z</time>
      </trkpt>
      <trkpt lat="46.71973" lon="-2.35019">
        <ele>10.23</ele>
        <time>2018-04-03T16:10:47Z</time>
      </trkpt>
      <trkpt lat="46.71972" lon="-2.35025">
        <ele>9.75</ele>
        <time>2018-04-03T16:10:52Z</time>
      </trkpt>
      <trkpt lat="46.71973" lon="-2.35031">
        <ele>9.75</ele>
        <time>2018-04-03T16:10:58Z</time>
      </trkpt>
      <trkpt lat="46.71972" lon="-2.35037">
        <ele>10.23</ele>
        <time>2018-04-03T16:11:02Z</time>
      </trkpt>
      <trkpt lat="46.7197" lon="-2.35039">
        <ele>10.23</ele>
        <time>2018-04-03T16:11:05Z</time>
      </trkpt>
      <trkpt lat="46.71964" lon="-2.35043">
        <ele>9.27</ele>
        <time>2018-04-03T16:11:13Z</time>
      </trkpt>
      <trkpt lat="46.71962" lon="-2.35043">
        <ele>9.27</ele>
        <time>2018-04-03T16:11:15Z</time>
      </trkpt>
      <trkpt lat="46.71954" lon="-2.35044">
        <ele>9.75</ele>
        <time>2018-04-03T16:11:28Z</time>
      </trkpt>
      <trkpt lat="46.71953" lon="-2.35045">
        <ele>9.75</ele>
        <time>2018-04-03T16:11:46Z</time>
      </trkpt>
      <trkpt lat="46.71945" lon="-2.35046">
        <ele>11.67</ele>
        <time>2018-04-03T16:11:59Z</time>
      </trkpt>
      <trkpt lat="46.71943" lon="-2.3504">
        <ele>13.12</ele>
        <time>2018-04-03T16:12:11Z</time>
      </trkpt>
      <trkpt lat="46.71943" lon="-2.35038">
        <ele>14.08</ele>
        <time>2018-04-03T16:12:27Z</time>
      </trkpt>
      <trkpt lat="46.71942" lon="-2.35037">
        <ele>13.6</ele>
        <time>2018-04-03T16:12:42Z</time>
      </trkpt>
      <trkpt lat="46.71952" lon="-2.35035">
        <ele>13.12</ele>
        <time>2018-04-03T16:12:54Z</time>
      </trkpt>
      <trkpt lat="46.71954" lon="-2.35037">
        <ele>13.12</ele>
        <time>2018-04-03T16:13:06Z</time>
      </trkpt>
      <trkpt lat="46.71955" lon="-2.35038">
        <ele>13.12</ele>
        <time>2018-04-03T16:13:11Z</time>
      </trkpt>
      <trkpt lat="46.71959" lon="-2.35042">
        <ele>11.19</ele>
        <time>2018-04-03T16:13:22Z</time>
      </trkpt>
      <trkpt lat="46.71965" lon="-2.35042">
        <ele>11.19</ele>
        <time>2018-04-03T16:13:38Z</time>
      </trkpt>
      <trkpt lat="46.7197" lon="-2.35043">
        <ele>11.19</ele>
        <time>2018-04-03T16:13:47Z</time>
      </trkpt>
      <trkpt lat="46.7197" lon="-2.35043">
        <ele>11.19</ele>
        <time>2018-04-03T16:13:51Z</time>
      </trkpt>
      <trkpt lat="46.71973" lon="-2.35046">
        <ele>10.71</ele>
        <time>2018-04-03T16:14:00Z</time>
      </trkpt>
      <trkpt lat="46.71988" lon="-2.35045">
        <ele>10.71</ele>
        <time>2018-04-03T16:14:14Z</time>
      </trkpt>
      <trkpt lat="46.71994" lon="-2.3504">
        <ele>10.71</ele>
        <time>2018-04-03T16:14:21Z</time>
      </trkpt>
      <trkpt lat="46.72003" lon="-2.35038">
        <ele>10.23</ele>
        <time>2018-04-03T16:14:28Z</time>
      </trkpt>
      <trkpt lat="46.7201" lon="-2.35036">
        <ele>10.23</ele>
        <time>2018-04-03T16:14:35Z</time>
      </trkpt>
      <trkpt lat="46.72017" lon="-2.35036">
        <ele>10.71</ele>
        <time>2018-04-03T16:14:42Z</time>
      </trkpt>
      <trkpt lat="46.7202" lon="-2.35036">
        <ele>10.71</ele>
        <time>2018-04-03T16:14:45Z</time>
      </trkpt>
      <trkpt lat="46.72034" lon="-2.3503">
        <ele>11.19</ele>
        <time>2018-04-03T16:14:59Z</time>
      </trkpt>
      <trkpt lat="46.72042" lon="-2.35027">
        <ele>12.63</ele>
        <time>2018-04-03T16:15:10Z</time>
      </trkpt>
      <trkpt lat="46.72043" lon="-2.35028">
        <ele>12.63</ele>
        <time>2018-04-03T16:15:20Z</time>
      </trkpt>
      <trkpt lat="46.72047" lon="-2.35037">
        <ele>13.12</ele>
        <time>2018-04-03T16:15:30Z</time>
      </trkpt>
      <trkpt lat="46.7205" lon="-2.35037">
        <ele>13.12</ele>
        <time>2018-04-03T16:15:46Z</time>
      </trkpt>
      <trkpt lat="46.72057" lon="-2.35033">
        <ele>12.63</ele>
        <time>2018-04-03T16:15:53Z</time>
      </trkpt>
      <trkpt lat="46.7207" lon="-2.35031">
        <ele>13.6</ele>
        <time>2018-04-03T16:16:03Z</time>
      </trkpt>
      <trkpt lat="46.72071" lon="-2.35031">
        <ele>13.6</ele>
        <time>2018-04-03T16:16:06Z</time>
      </trkpt>
      <trkpt lat="46.72077" lon="-2.3503">
        <ele>14.08</ele>
        <time>2018-04-03T16:16:12Z</time>
      </trkpt>
      <trkpt lat="46.72084" lon="-2.35025">
        <ele>13.6</ele>
        <time>2018-04-03T16:16:19Z</time>
      </trkpt>
      <trkpt lat="46.721" lon="-2.35024">
        <ele>14.08</ele>
        <time>2018-04-03T16:16:31Z</time>
      </trkpt>
      <trkpt lat="46.72101" lon="-2.35023">
        <ele>13.6</ele>
        <time>2018-04-03T16:16:32Z</time>
      </trkpt>
      <trkpt lat="46.72117" lon="-2.3502">
        <ele>13.12</ele>
        <time>2018-04-03T16:16:46Z</time>
      </trkpt>
      <trkpt lat="46.72131" lon="-2.35017">
        <ele>15.52</ele>
        <time>2018-04-03T16:16:57Z</time>
      </trkpt>
      <trkpt lat="46.72145" lon="-2.35014">
        <ele>13.6</ele>
        <time>2018-04-03T16:17:09Z</time>
      </trkpt>
      <trkpt lat="46.72158" lon="-2.35012">
        <ele>13.12</ele>
        <time>2018-04-03T16:17:21Z</time>
      </trkpt>
      <trkpt lat="46.72169" lon="-2.35011">
        <ele>13.12</ele>
        <time>2018-04-03T16:17:32Z</time>
      </trkpt>
      <trkpt lat="46.72175" lon="-2.35011">
        <ele>12.63</ele>
        <time>2018-04-03T16:17:36Z</time>
      </trkpt>
      <trkpt lat="46.72178" lon="-2.3501">
        <ele>12.63</ele>
        <time>2018-04-03T16:17:39Z</time>
      </trkpt>
      <trkpt lat="46.72188" lon="-2.35007">
        <ele>12.63</ele>
        <time>2018-04-03T16:17:50Z</time>
      </trkpt>
      <trkpt lat="46.722" lon="-2.35006">
        <ele>11.67</ele>
        <time>2018-04-03T16:18:00Z</time>
      </trkpt>
      <trkpt lat="46.72211" lon="-2.35011">
        <ele>10.23</ele>
        <time>2018-04-03T16:18:12Z</time>
      </trkpt>
      <trkpt lat="46.72218" lon="-2.35012">
        <ele>9.75</ele>
        <time>2018-04-03T16:18:17Z</time>
      </trkpt>
      <trkpt lat="46.72221" lon="-2.35013">
        <ele>10.23</ele>
        <time>2018-04-03T16:18:19Z</time>
      </trkpt>
      <trkpt lat="46.72234" lon="-2.35015">
        <ele>11.19</ele>
        <time>2018-04-03T16:18:29Z</time>
      </trkpt>
      <trkpt lat="46.72244" lon="-2.35018">
        <ele>11.19</ele>
        <time>2018-04-03T16:18:37Z</time>
      </trkpt>
      <trkpt lat="46.72255" lon="-2.35021">
        <ele>10.23</ele>
        <time>2018-04-03T16:18:47Z</time>
      </trkpt>
      <trkpt lat="46.72263" lon="-2.35023">
        <ele>10.23</ele>
        <time>2018-04-03T16:18:57Z</time>
      </trkpt>
      <trkpt lat="46.72262" lon="-2.35022">
        <ele>9.75</ele>
        <time>2018-04-03T16:19:00Z</time>
      </trkpt>
      <trkpt lat="46.72262" lon="-2.3502">
        <ele>10.71</ele>
        <time>2018-04-03T16:19:10Z</time>
      </trkpt>
      <trkpt lat="46.72263" lon="-2.3502">
        <ele>11.19</ele>
        <time>2018-04-03T16:19:16Z</time>
      </trkpt>
      <trkpt lat="46.72274" lon="-2.35027">
        <ele>12.63</ele>
        <time>2018-04-03T16:19:28Z</time>
      </trkpt>
      <trkpt lat="46.72278" lon="-2.35029">
        <ele>13.12</ele>
        <time>2018-04-03T16:19:31Z</time>
      </trkpt>
      <trkpt lat="46.72281" lon="-2.35029">
        <ele>14.08</ele>
        <time>2018-04-03T16:19:34Z</time>
      </trkpt>
      <trkpt lat="46.72288" lon="-2.35032">
        <ele>14.08</ele>
        <time>2018-04-03T16:19:40Z</time>
      </trkpt>
      <trkpt lat="46.72292" lon="-2.35029">
        <ele>14.56</ele>
        <time>2018-04-03T16:19:47Z</time>
      </trkpt>
      <trkpt lat="46.72298" lon="-2.35036">
        <ele>14.56</ele>
        <time>2018-04-03T16:19:53Z</time>
      </trkpt>
      <trkpt lat="46.72303" lon="-2.3504">
        <ele>15.52</ele>
        <time>2018-04-03T16:19:58Z</time>
      </trkpt>
      <trkpt lat="46.72305" lon="-2.35041">
        <ele>15.52</ele>
        <time>2018-04-03T16:20:00Z</time>
      </trkpt>
      <trkpt lat="46.72312" lon="-2.35039">
        <ele>15.04</ele>
        <time>2018-04-03T16:20:11Z</time>
      </trkpt>
      <trkpt lat="46.72322" lon="-2.35041">
        <ele>13.6</ele>
        <time>2018-04-03T16:20:19Z</time>
      </trkpt>
      <trkpt lat="46.72324" lon="-2.35042">
        <ele>12.63</ele>
        <time>2018-04-03T16:20:23Z</time>
      </trkpt>
      <trkpt lat="46.7233" lon="-2.35045">
        <ele>11.19</ele>
        <time>2018-04-03T16:20:35Z</time>
      </trkpt>
      <trkpt lat="46.7234" lon="-2.35041">
        <ele>5.91</ele>
        <time>2018-04-03T16:23:23Z</time>
      </trkpt>
      <trkpt lat="46.72349" lon="-2.35043">
        <ele>12.15</ele>
        <time>2018-04-03T16:23:37Z</time>
      </trkpt>
      <trkpt lat="46.72349" lon="-2.35043">
        <ele>12.15</ele>
        <time>2018-04-03T16:23:38Z</time>
      </trkpt>
      <trkpt lat="46.72352" lon="-2.35046">
        <ele>12.63</ele>
        <time>2018-04-03T16:23:42Z</time>
      </trkpt>
      <trkpt lat="46.72357" lon="-2.35046">
        <ele>13.6</ele>
        <time>2018-04-03T16:23:46Z</time>
      </trkpt>
      <trkpt lat="46.72367" lon="-2.35041">
        <ele>14.08</ele>
        <time>2018-04-03T16:24:01Z</time>
      </trkpt>
      <trkpt lat="46.72374" lon="-2.35037">
        <ele>13.12</ele>
        <time>2018-04-03T16:24:14Z</time>
      </trkpt>
      <trkpt lat="46.72394" lon="-2.35033">
        <ele>13.12</ele>
        <time>2018-04-03T16:24:30Z</time>
      </trkpt>
      <trkpt lat="46.72395" lon="-2.35033">
        <ele>13.6</ele>
        <time>2018-04-03T16:24:32Z</time>
      </trkpt>
      <trkpt lat="46.72405" lon="-2.35029">
        <ele>15.04</ele>
        <time>2018-04-03T16:24:46Z</time>
      </trkpt>
      <trkpt lat="46.72408" lon="-2.35032">
        <ele>16.48</ele>
        <time>2018-04-03T16:24:54Z</time>
      </trkpt>
      <trkpt lat="46.72415" lon="-2.3503">
        <ele>18.4</ele>
        <time>2018-04-03T16:25:09Z</time>
      </trkpt>
      <trkpt lat="46.72418" lon="-2.35028">
        <ele>19.84</ele>
        <time>2018-04-03T16:25:13Z</time>
      </trkpt>
      <trkpt lat="46.72432" lon="-2.3502">
        <ele>24.65</ele>
        <time>2018-04-03T16:25:27Z</time>
      </trkpt>
      <trkpt lat="46.72444" lon="-2.35018">
        <ele>28.02</ele>
        <time>2018-04-03T16:25:42Z</time>
      </trkpt>
      <trkpt lat="46.72459" lon="-2.35022">
        <ele>25.61</ele>
        <time>2018-04-03T16:25:51Z</time>
      </trkpt>
      <trkpt lat="46.72471" lon="-2.3502">
        <ele>22.73</ele>
        <time>2018-04-03T16:25:56Z</time>
      </trkpt>
      <trkpt lat="46.72477" lon="-2.35017">
        <ele>19.84</ele>
        <time>2018-04-03T16:26:11Z</time>
      </trkpt>
      <trkpt lat="46.72481" lon="-2.35018">
        <ele>21.29</ele>
        <time>2018-04-03T16:26:16Z</time>
      </trkpt>
      <trkpt lat="46.72489" lon="-2.35022">
        <ele>18.88</ele>
        <time>2018-04-03T16:26:21Z</time>
      </trkpt>
      <trkpt lat="46.72498" lon="-2.35018">
        <ele>18.88</ele>
        <time>2018-04-03T16:26:32Z</time>
      </trkpt>
      <trkpt lat="46.72506" lon="-2.35015">
        <ele>18.88</ele>
        <time>2018-04-03T16:26:49Z</time>
      </trkpt>
      <trkpt lat="46.72517" lon="-2.35015">
        <ele>18.88</ele>
        <time>2018-04-03T16:27:04Z</time>
      </trkpt>
      <trkpt lat="46.72517" lon="-2.35015">
        <ele>17.92</ele>
        <time>2018-04-03T16:27:17Z</time>
      </trkpt>
      <trkpt lat="46.7252" lon="-2.35016">
        <ele>16.96</ele>
        <time>2018-04-03T16:27:32Z</time>
      </trkpt>
      <trkpt lat="46.7252" lon="-2.35017">
        <ele>16.96</ele>
        <time>2018-04-03T16:27:46Z</time>
      </trkpt>
      <trkpt lat="46.72526" lon="-2.35018">
        <ele>17.44</ele>
        <time>2018-04-03T16:27:57Z</time>
      </trkpt>
      <trkpt lat="46.72533" lon="-2.35023">
        <ele>16.96</ele>
        <time>2018-04-03T16:28:05Z</time>
      </trkpt>
      <trkpt lat="46.72539" lon="-2.35022">
        <ele>17.44</ele>
        <time>2018-04-03T16:28:17Z</time>
      </trkpt>
      <trkpt lat="46.72545" lon="-2.35026">
        <ele>18.88</ele>
        <time>2018-04-03T16:28:26Z</time>
      </trkpt>
      <trkpt lat="46.72551" lon="-2.35029">
        <ele>19.84</ele>
        <time>2018-04-03T16:28:39Z</time>
      </trkpt>
      <trkpt lat="46.72557" lon="-2.35032">
        <ele>18.4</ele>
        <time>2018-04-03T16:28:44Z</time>
      </trkpt>
      <trkpt lat="46.72563" lon="-2.35032">
        <ele>16</ele>
        <time>2018-04-03T16:28:54Z</time>
      </trkpt>
      <trkpt lat="46.72577" lon="-2.35039">
        <ele>16.96</ele>
        <time>2018-04-03T16:29:07Z</time>
      </trkpt>
      <trkpt lat="46.72577" lon="-2.35039">
        <ele>16</ele>
        <time>2018-04-03T16:29:18Z</time>
      </trkpt>
      <trkpt lat="46.7258" lon="-2.35043">
        <ele>13.6</ele>
        <time>2018-04-03T16:29:25Z</time>
      </trkpt>
      <trkpt lat="46.72584" lon="-2.35039">
        <ele>10.71</ele>
        <time>2018-04-03T16:29:36Z</time>
      </trkpt>
      <trkpt lat="46.72585" lon="-2.35039">
        <ele>10.23</ele>
        <time>2018-04-03T16:29:40Z</time>
      </trkpt>
      <trkpt lat="46.72595" lon="-2.35036">
        <ele>10.71</ele>
        <time>2018-04-03T16:29:50Z</time>
      </trkpt>
      <trkpt lat="46.72599" lon="-2.35035">
        <ele>10.71</ele>
        <time>2018-04-03T16:30:02Z</time>
      </trkpt>
      <trkpt lat="46.72605" lon="-2.35026">
        <ele>11.67</ele>
        <time>2018-04-03T16:30:24Z</time>
      </trkpt>
      <trkpt lat="46.72619" lon="-2.35021">
        <ele>13.12</ele>
        <time>2018-04-03T16:30:39Z</time>
      </trkpt>
      <trkpt lat="46.72628" lon="-2.35012">
        <ele>12.15</ele>
        <time>2018-04-03T16:30:51Z</time>
      </trkpt>
      <trkpt lat="46.7263" lon="-2.35007">
        <ele>11.67</ele>
        <time>2018-04-03T16:30:54Z</time>
      </trkpt>
      <trkpt lat="46.72627" lon="-2.34998">
        <ele>7.35</ele>
        <time>2018-04-03T16:31:04Z</time>
      </trkpt>
      <trkpt lat="46.72627" lon="-2.35001">
        <ele>4.94</ele>
        <time>2018-04-03T16:31:11Z</time>
      </trkpt>
      <trkpt lat="46.72628" lon="-2.35009">
        <ele>4.94</ele>
        <time>2018-04-03T16:31:26Z</time>
      </trkpt>
      <trkpt lat="46.72629" lon="-2.35009">
        <ele>4.46</ele>
        <time>2018-04-03T16:31:40Z</time>
      </trkpt>
      <trkpt lat="46.72626" lon="-2.35004">
        <ele>3.5</ele>
        <time>2018-04-03T16:31:45Z</time>
      </trkpt>
      <trkpt lat="46.72619" lon="-2.34991">
        <ele>2.06</ele>
        <time>2018-04-03T16:31:59Z</time>
      </trkpt>
      <trkpt lat="46.72616" lon="-2.34994">
        <ele>-0.34</ele>
        <time>2018-04-03T16:32:08Z</time>
      </trkpt>
      <trkpt lat="46.72613" lon="-2.34996">
        <ele>-2.27</ele>
        <time>2018-04-03T16:32:11Z</time>
      </trkpt>
      <trkpt lat="46.72602" lon="-2.35">
        <ele>-2.75</ele>
        <time>2018-04-03T16:32:20Z</time>
      </trkpt>
      <trkpt lat="46.72601" lon="-2.35">
        <ele>-2.75</ele>
        <time>2018-04-03T16:32:22Z</time>
      </trkpt>
      <trkpt lat="46.72589" lon="-2.35003">
        <ele>-2.75</ele>
        <time>2018-04-03T16:32:32Z</time>
      </trkpt>
      <trkpt lat="46.7258" lon="-2.35004">
        <ele>-1.79</ele>
        <time>2018-04-03T16:32:41Z</time>
      </trkpt>
      <trkpt lat="46.72572" lon="-2.35004">
        <ele>-0.82</ele>
        <time>2018-04-03T16:32:50Z</time>
      </trkpt>
      <trkpt lat="46.72558" lon="-2.35">
        <ele>1.58</ele>
        <time>2018-04-03T16:33:00Z</time>
      </trkpt>
      <trkpt lat="46.72552" lon="-2.34996">
        <ele>3.02</ele>
        <time>2018-04-03T16:33:08Z</time>
      </trkpt>
      <trkpt lat="46.72544" lon="-2.34985">
        <ele>3.98</ele>
        <time>2018-04-03T16:33:16Z</time>
      </trkpt>
      <trkpt lat="46.72542" lon="-2.34981">
        <ele>3.98</ele>
        <time>2018-04-03T16:33:20Z</time>
      </trkpt>
      <trkpt lat="46.72535" lon="-2.34983">
        <ele>4.94</ele>
        <time>2018-04-03T16:33:29Z</time>
      </trkpt>
      <trkpt lat="46.72523" lon="-2.34968">
        <ele>6.87</ele>
        <time>2018-04-03T16:33:43Z</time>
      </trkpt>
      <trkpt lat="46.72517" lon="-2.34959">
        <ele>9.27</ele>
        <time>2018-04-03T16:33:54Z</time>
      </trkpt>
      <trkpt lat="46.72514" lon="-2.34954">
        <ele>11.67</ele>
        <time>2018-04-03T16:34:01Z</time>
      </trkpt>
      <trkpt lat="46.7251" lon="-2.3495">
        <ele>13.6</ele>
        <time>2018-04-03T16:34:06Z</time>
      </trkpt>
      <trkpt lat="46.72498" lon="-2.3493">
        <ele>15.04</ele>
        <time>2018-04-03T16:34:19Z</time>
      </trkpt>
      <trkpt lat="46.72489" lon="-2.34922">
        <ele>11.19</ele>
        <time>2018-04-03T16:34:29Z</time>
      </trkpt>
      <trkpt lat="46.72486" lon="-2.34913">
        <ele>11.19</ele>
        <time>2018-04-03T16:34:34Z</time>
      </trkpt>
      <trkpt lat="46.72478" lon="-2.34898">
        <ele>8.79</ele>
        <time>2018-04-03T16:34:44Z</time>
      </trkpt>
      <trkpt lat="46.72477" lon="-2.34897">
        <ele>7.83</ele>
        <time>2018-04-03T16:34:46Z</time>
      </trkpt>
      <trkpt lat="46.72471" lon="-2.34881">
        <ele>7.35</ele>
        <time>2018-04-03T16:34:56Z</time>
      </trkpt>
      <trkpt lat="46.72465" lon="-2.3487">
        <ele>6.39</ele>
        <time>2018-04-03T16:35:05Z</time>
      </trkpt>
      <trkpt lat="46.72459" lon="-2.34851">
        <ele>5.42</ele>
        <time>2018-04-03T16:35:17Z</time>
      </trkpt>
      <trkpt lat="46.72454" lon="-2.34841">
        <ele>3.5</ele>
        <time>2018-04-03T16:35:26Z</time>
      </trkpt>
      <trkpt lat="46.72449" lon="-2.3483">
        <ele>3.02</ele>
        <time>2018-04-03T16:35:34Z</time>
      </trkpt>
      <trkpt lat="46.72441" lon="-2.34821">
        <ele>0.62</ele>
        <time>2018-04-03T16:35:42Z</time>
      </trkpt>
      <trkpt lat="46.72432" lon="-2.34809">
        <ele>-1.3</ele>
        <time>2018-04-03T16:35:52Z</time>
      </trkpt>
      <trkpt lat="46.72428" lon="-2.34801">
        <ele>-2.27</ele>
        <time>2018-04-03T16:35:58Z</time>
      </trkpt>
      <trkpt lat="46.7243" lon="-2.34798">
        <ele>-1.3</ele>
        <time>2018-04-03T16:36:01Z</time>
      </trkpt>
      <trkpt lat="46.72436" lon="-2.34791">
        <ele>1.1</ele>
        <time>2018-04-03T16:36:07Z</time>
      </trkpt>
      <trkpt lat="46.72435" lon="-2.34786">
        <ele>1.58</ele>
        <time>2018-04-03T16:36:10Z</time>
      </trkpt>
      <trkpt lat="46.72435" lon="-2.3478">
        <ele>3.02</ele>
        <time>2018-04-03T16:36:18Z</time>
      </trkpt>
      <trkpt lat="46.72436" lon="-2.34779">
        <ele>3.5</ele>
        <time>2018-04-03T16:36:23Z</time>
      </trkpt>
      <trkpt lat="46.72437" lon="-2.34775">
        <ele>3.98</ele>
        <time>2018-04-03T16:36:27Z</time>
      </trkpt>
      <trkpt lat="46.72442" lon="-2.34763">
        <ele>3.02</ele>
        <time>2018-04-03T16:36:36Z</time>
      </trkpt>
      <trkpt lat="46.72442" lon="-2.34759">
        <ele>3.5</ele>
        <time>2018-04-03T16:36:40Z</time>
      </trkpt>
      <trkpt lat="46.72445" lon="-2.34748">
        <ele>3.5</ele>
        <time>2018-04-03T16:36:47Z</time>
      </trkpt>
      <trkpt lat="46.72443" lon="-2.34741">
        <ele>3.02</ele>
        <time>2018-04-03T16:36:52Z</time>
      </trkpt>
      <trkpt lat="46.72443" lon="-2.34736">
        <ele>3.5</ele>
        <time>2018-04-03T16:36:55Z</time>
      </trkpt>
      <trkpt lat="46.72444" lon="-2.34719">
        <ele>3.5</ele>
        <time>2018-04-03T16:37:06Z</time>
      </trkpt>
      <trkpt lat="46.72447" lon="-2.34703">
        <ele>3.98</ele>
        <time>2018-04-03T16:37:15Z</time>
      </trkpt>
      <trkpt lat="46.72449" lon="-2.34696">
        <ele>3.5</ele>
        <time>2018-04-03T16:37:20Z</time>
      </trkpt>
      <trkpt lat="46.7245" lon="-2.34689">
        <ele>2.54</ele>
        <time>2018-04-03T16:37:25Z</time>
      </trkpt>
      <trkpt lat="46.72443" lon="-2.3468">
        <ele>0.62</ele>
        <time>2018-04-03T16:37:35Z</time>
      </trkpt>
      <trkpt lat="46.72442" lon="-2.34679">
        <ele>0.62</ele>
        <time>2018-04-03T16:37:36Z</time>
      </trkpt>
      <trkpt lat="46.72439" lon="-2.34673">
        <ele>0.62</ele>
        <time>2018-04-03T16:37:44Z</time>
      </trkpt>
      <trkpt lat="46.72443" lon="-2.34669">
        <ele>1.1</ele>
        <time>2018-04-03T16:38:01Z</time>
      </trkpt>
    </trkseg>
  </trk>
</gpx>